GFSSGP_sfc_rhum_000.txt.gz
RH
63 53 37 29 18 29 29 24 32 46 67 62 61 71 88 92 77 84 90 88 88 96 94 90 92 91 91 89 89 89 86 81 80 81 80 78 77 78 78 77 76 69 65 64 64 66 70 74 79
29 28 26 30 32 31 25 24 50 54 58 50 56 63 75 81 88 97 94 90 90 92 95 92 93 92 92 91 90 88 83 81 82 82 80 78 77 75 75 76 76 69 65 64 63 64 67 72 76
33 26 24 30 39 26 26 46 47 50 47 45 49 51 66 78 87 90 88 91 91 98 97 93 94 94 92 92 91 89 89 88 87 85 79 78 75 73 72 74 70 66 64 63 62 63 67 71 75
26 25 22 26 28 24 25 38 45 48 43 43 45 59 54 74 86 88 89 94 96 99 98 98 97 95 93 92 93 94 93 93 91 87 80 77 74 72 72 71 66 64 62 60 60 64 68 72 74
29 25 26 35 25 23 20 30 38 48 52 44 42 56 65 94 92 91 94 90 88 98 99 98 98 96 94 93 94 94 94 91 91 88 83 79 76 74 73 70 67 66 64 65 66 68 71 72 73
27 26 26 26 24 26 32 39 47 49 48 50 57 61 77 91 91 89 89 94 88 93 96 97 96 96 95 94 95 95 93 92 92 89 84 79 79 79 73 69 69 69 67 68 71 72 73 74 75
27 25 27 26 35 31 22 40 45 47 49 53 50 70 88 97 90 88 84 85 83 85 97 94 98 96 96 96 96 96 95 94 94 92 89 86 87 84 74 72 73 73 72 73 74 76 78 77 80
25 23 39 34 28 37 16 27 42 45 56 43 47 91 95 92 91 83 78 77 76 77 77 82 86 94 99 98 97 95 94 94 93 92 91 89 88 85 82 82 77 78 79 78 78 78 79 81 83
24 26 27 26 33 29 18 23 20 40 48 47 48 64 76 94 84 87 90 89 84 84 83 91 90 98 99 98 97 94 93 92 92 91 89 92 94 92 91 88 87 83 84 83 83 84 84 85 88
26 28 22 16 16 28 22 28 32 45 52 55 57 73 90 95 90 88 86 87 86 88 92 94 99 98 98 93 98 98 95 96 96 95 94 96 94 94 90 90 87 88 89 90 90 90 90 92 97
26 21 13 10 10 9 22 19 35 47 58 55 60 85 90 98 97 97 97 96 96 96 98 98 97 97 98 96 99 99 99 98 97 94 94 94 94 96 97 98 97 96 91 97 94 95 96 94 96
19 14 10 11 11 11 22 16 40 34 35 45 54 72 77 88 86 86 86 89 90 93 93 94 95 96 96 96 98 97 98 97 98 97 94 96 97 95 93 96 89 85 86 82 87 92 90 90 85
16 12 13 12 10 12 10 21 32 24 42 44 52 63 68 72 73 67 62 68 78 84 86 88 92 93 92 92 96 96 96 97 96 96 94 95 94 86 86 82 81 81 84 85 83 82 80 79 77
15 13 14 16 13 12 12 18 18 23 57 47 49 58 60 62 58 60 58 63 68 74 78 84 89 87 80 84 89 96 96 95 96 97 90 81 85 82 79 72 72 75 82 80 82 83 82 79 75
14 12 14 14 18 17 17 20 22 38 54 50 44 49 49 48 50 49 46 50 60 69 74 86 91 90 92 89 91 95 94 89 92 89 83 81 75 70 68 66 67 72 78 75 73 74 69 69 64
17 20 18 16 20 23 14 18 22 46 57 62 58 56 57 60 55 52 53 42 59 80 92 90 84 93 94 94 96 96 91 93 94 93 87 73 60 62 65 74 73 75 74 69 72 75 64 72 71
23 24 24 23 22 22 20 34 42 41 58 59 64 62 63 70 74 77 85 80 87 93 93 95 92 91 94 95 94 87 82 81 83 83 71 61 59 60 67 72 75 69 68 71 68 70 71 74 72
21 24 46 23 35 45 43 67 64 64 60 73 76 77 76 72 73 79 86 87 94 94 94 93 90 88 85 86 89 86 84 83 87 75 63 54 53 58 63 68 70 67 67 71 71 69 72 73 80
22 24 26 29 31 50 62 64 62 72 76 76 77 75 71 69 74 74 80 81 78 88 85 82 83 84 81 82 82 79 80 85 72 66 62 60 57 60 65 71 72 72 71 75 76 77 77 74 90
30 33 41 41 39 49 54 54 53 55 65 76 73 72 67 67 64 62 62 70 77 84 82 77 74 72 66 74 84 83 85 75 68 60 61 64 63 62 63 74 77 75 74 80 85 86 83 85 94
42 35 38 44 44 47 50 54 56 52 63 64 67 68 65 67 68 59 57 61 66 63 62 55 58 58 64 75 74 68 67 69 62 69 62 65 65 65 67 73 76 78 80 86 91 90 89 94 92
41 39 38 48 50 56 47 76 59 64 71 69 72 70 72 64 57 53 51 49 48 52 50 50 51 51 52 56 57 56 64 65 77 70 63 66 66 65 65 70 76 78 83 86 88 82 85 89 86
42 36 38 40 43 46 50 65 61 64 72 70 71 68 72 72 59 52 53 53 59 53 53 56 52 52 54 58 66 71 68 76 75 67 62 60 65 66 67 70 74 77 83 82 82 80 79 84 85
36 44 49 57 57 66 52 59 66 70 64 68 65 64 65 67 68 61 57 52 54 58 58 57 60 64 64 64 66 65 67 66 61 64 67 68 68 72 73 72 80 82 82 81 81 80 82 85 87
44 50 69 64 74 76 57 59 56 50 55 58 60 63 67 73 73 70 58 58 64 62 61 59 59 59 60 62 61 60 56 54 60 66 73 74 74 77 81 82 84 83 80 77 75 74 76 77 78
46 50 70 64 84 67 54 66 55 47 47 52 56 61 66 69 66 65 71 68 66 62 56 55 55 55 58 62 62 64 66 72 74 77 76 74 80 82 85 82 75 74 69 74 73 71 79 79 80
47 53 49 72 75 73 70 57 52 59 57 56 56 60 71 70 72 70 68 64 65 68 66 57 56 56 58 62 68 70 69 67 72 74 80 85 86 81 88 77 79 80 84 74 74 77 69 79 82
42 41 50 70 63 72 70 67 69 62 60 57 62 65 71 69 70 66 62 63 66 68 73 63 51 46 48 51 60 56 59 62 70 79 80 84 86 80 76 74 80 72 70 64 70 75 76 82 88
45 48 60 62 74 73 86 72 57 55 57 56 63 69 70 73 68 64 62 60 53 48 46 43 43 41 45 50 55 58 64 68 72 77 82 84 79 77 77 70 73 72 73 75 72 71 74 83 82
45 50 47 62 54 88 87 59 59 60 52 62 71 70 72 67 63 61 57 47 40 40 40 43 41 40 45 50 56 61 66 68 72 75 77 77 74 73 73 77 80 80 76 72 69 72 76 71 67

GFSSGP_sfc_rhum_003.txt.gz
RH
51 38 24 20 17 20 20 18 23 52 65 60 60 61 69 72 77 82 80 78 77 76 72 69 88 89 88 87 88 87 85 82 81 81 80 78 78 78 78 76 77 70 64 63 62 63 64 66 71
20 22 20 22 17 16 18 20 46 55 55 52 49 47 59 72 68 92 84 81 76 75 72 66 87 89 89 88 89 87 83 81 82 82 80 78 77 76 77 76 77 68 63 60 59 59 62 67 71
21 19 18 20 23 16 19 39 44 47 48 48 63 57 61 69 71 82 77 78 76 75 72 72 88 89 90 90 90 89 88 88 88 84 79 77 75 72 74 72 71 63 59 56 57 59 64 71 74
19 18 16 19 21 19 17 40 42 41 40 36 45 55 65 63 71 75 80 79 78 75 76 86 92 91 90 89 92 92 92 93 92 87 80 76 73 72 72 70 64 59 58 60 62 66 70 73 76
20 18 19 19 17 18 18 35 40 47 47 37 34 56 70 86 79 80 83 76 78 75 73 74 96 92 89 91 93 94 93 93 92 88 83 78 76 74 71 69 65 64 64 67 68 70 73 75 78
21 18 19 17 20 21 24 33 39 37 38 39 47 58 76 86 86 85 79 77 77 77 73 72 91 92 94 94 94 94 92 92 92 89 84 80 81 78 71 72 71 69 69 71 73 74 75 77 79
20 18 17 17 28 23 31 39 44 37 36 47 45 73 93 95 83 79 80 82 80 78 76 75 71 81 95 95 96 95 92 93 92 91 89 87 85 82 76 76 77 77 75 76 77 77 80 80 83
18 16 19 27 25 22 18 31 39 44 45 40 47 77 91 84 82 81 74 73 74 81 73 72 74 72 77 80 97 97 95 94 93 91 90 88 86 82 81 82 78 79 83 82 81 82 83 84 88
17 18 28 23 23 24 22 25 22 35 40 39 38 60 64 82 80 77 79 80 85 82 79 80 79 83 87 83 85 91 93 93 93 85 88 84 63 66 66 80 86 85 86 86 87 87 88 89 86
17 20 18 17 20 24 19 18 30 38 39 41 61 80 77 78 81 84 86 85 79 78 80 83 85 85 88 81 84 80 72 66 67 64 71 65 74 71 73 80 90 89 89 89 90 90 90 81 57
20 17 14 9 6 15 21 18 30 37 38 37 56 88 86 86 82 78 76 74 71 73 77 81 83 85 85 80 79 72 69 70 69 74 72 73 73 74 69 67 64 68 76 55 55 55 54 65 60
15 14 8 6 8 18 18 23 36 27 24 33 57 81 84 85 82 80 76 74 79 83 75 82 80 81 84 72 72 70 66 69 68 68 74 76 70 70 65 54 56 60 55 56 54 51 61 58 53
13 10 12 9 11 17 13 27 31 14 36 41 62 74 79 86 80 76 68 71 72 73 73 76 76 77 74 74 70 70 78 84 84 82 78 77 67 64 57 58 50 50 47 48 49 49 46 45 42
13 12 12 11 10 10 14 13 13 21 38 51 66 68 70 71 67 59 54 60 63 65 69 76 69 66 64 69 75 82 82 78 84 91 92 89 88 68 50 47 46 45 46 46 45 44 39 37 35
12 12 12 14 14 15 14 15 20 32 40 45 58 57 57 53 47 49 44 50 56 61 71 72 74 71 75 74 75 78 83 83 88 89 86 84 72 57 52 45 47 48 45 45 42 39 40 35 31
14 18 15 12 15 17 10 14 31 36 40 42 41 44 45 47 48 50 45 39 58 65 69 67 70 73 81 84 90 82 82 87 82 85 78 56 45 49 53 48 50 42 40 38 39 37 34 36 36
21 17 18 16 26 17 18 28 42 41 44 46 48 47 48 51 57 71 66 52 64 64 67 72 74 75 84 93 80 66 69 59 66 69 58 56 54 53 53 48 47 46 42 45 39 40 40 38 36
19 18 17 18 23 32 37 49 50 53 46 54 54 56 53 57 66 74 79 82 77 69 72 74 74 86 87 69 59 60 57 56 53 43 41 44 42 50 49 48 53 45 43 44 41 44 41 46 49
17 18 18 20 32 41 50 51 53 55 54 58 57 55 58 64 68 73 82 86 80 76 74 73 68 64 60 54 58 58 59 54 42 38 45 46 45 45 50 44 45 46 44 50 48 40 42 38 51
27 29 34 34 34 39 44 53 52 53 59 59 57 57 57 63 65 69 76 77 75 74 69 66 58 49 44 49 53 58 58 48 40 41 46 45 48 43 42 48 45 49 45 55 54 48 40 45 58
33 32 36 35 36 35 38 46 55 54 57 57 56 55 56 59 63 66 73 75 73 66 63 58 50 47 47 53 48 46 47 48 41 40 38 41 43 38 41 49 49 53 52 52 57 54 51 46 52
35 32 38 39 36 36 33 38 54 56 60 58 57 56 55 50 49 49 53 56 56 48 46 43 44 42 44 48 46 52 43 42 50 43 41 40 48 47 42 47 54 57 56 60 58 51 53 51 47
36 38 34 32 32 32 37 36 43 54 62 58 56 55 51 46 41 39 38 37 36 43 48 49 48 46 47 49 49 44 48 48 45 45 52 53 52 52 50 52 58 61 57 61 59 56 49 41 39
38 38 40 43 40 46 38 34 40 54 52 54 52 53 49 44 42 41 42 42 43 46 53 53 46 45 46 46 49 52 50 47 46 50 51 50 50 48 53 53 60 62 61 58 54 54 49 42 40
34 39 49 50 57 50 46 43 35 38 44 46 49 48 49 48 48 49 43 43 48 52 53 47 42 45 46 48 47 49 49 51 49 48 47 51 46 44 51 61 64 60 58 58 53 51 50 43 36
36 38 56 60 63 45 44 48 32 35 36 40 41 43 49 51 53 50 49 48 46 50 47 46 43 41 41 42 39 36 33 29 28 36 38 40 44 48 60 63 62 58 56 55 59 50 46 50 47
34 38 40 59 60 55 45 42 34 41 39 45 48 48 50 50 52 53 52 50 47 46 51 47 33 27 29 34 34 38 39 40 41 45 46 45 57 57 68 62 60 61 58 56 53 50 51 51 56
32 35 41 50 63 58 45 51 40 49 43 44 49 49 51 52 54 55 51 56 55 51 44 38 27 26 30 33 38 38 42 43 46 47 48 52 58 62 66 60 59 60 57 52 53 50 50 55 56
36 39 50 46 55 47 52 38 43 44 41 44 43 49 52 54 55 52 52 55 58 43 33 32 31 29 32 34 41 45 44 47 48 48 51 54 60 61 60 59 58 57 55 53 54 54 52 56 57
33 37 40 49 44 63 65 38 47 52 44 46 44 52 53 54 51 48 45 42 36 32 30 33 31 30 32 36 40 43 47 49 50 52 54 58 59 58 59 59 58 57 56 52 50 52 48 52 52

GFSSGP_sfc_rhum_006.txt.gz
RH
47 18 10 12 14 12 13 14 26 41 48 42 44 47 54 53 61 71 57 54 50 56 57 56 88 88 87 86 87 86 85 81 80 80 77 76 76 75 75 74 73 66 62 59 56 56 58 60 65
11 10 12 11 14 14 12 12 23 40 39 35 40 37 39 45 52 64 62 62 58 55 53 50 88 88 88 88 87 86 82 81 81 79 76 75 74 74 75 73 72 64 57 54 53 54 57 64 69
10 12 10 10 9 12 13 20 36 34 32 31 43 46 51 48 46 56 69 65 62 58 55 56 88 88 87 87 86 86 88 88 84 80 75 73 71 72 71 69 65 57 56 56 58 60 63 70 75
8 10 11 12 10 9 16 28 30 31 30 31 42 49 45 47 42 55 63 63 68 65 59 82 88 85 87 85 86 90 92 92 89 84 76 72 70 68 68 66 59 59 60 61 62 65 69 74 78
8 9 10 11 11 11 16 25 26 28 26 30 31 44 40 54 53 57 64 74 78 70 66 69 93 90 85 85 91 92 93 92 89 83 79 75 71 66 66 66 64 65 66 66 67 70 72 75 77
10 11 11 12 11 14 11 22 27 27 23 26 32 38 45 62 55 65 66 71 77 61 66 71 85 85 88 91 93 92 92 92 89 85 80 77 74 70 70 70 70 70 70 70 70 71 73 75 78
12 10 10 11 18 21 18 23 27 26 26 27 30 44 73 71 65 62 61 59 66 60 65 65 61 72 95 94 94 92 91 91 89 86 83 80 78 75 73 74 74 74 72 73 74 74 77 78 82
11 9 10 14 20 25 24 26 23 19 25 28 31 42 82 69 62 68 68 63 67 67 65 67 64 60 62 62 95 94 92 91 90 85 83 83 80 75 77 72 76 77 78 78 78 81 84 84 87
12 10 11 18 21 30 27 27 22 21 31 33 32 38 47 57 49 58 66 71 70 67 64 57 56 57 61 56 73 87 90 88 87 78 82 76 40 43 44 76 80 82 86 86 86 86 87 87 85
13 12 14 14 18 19 17 17 23 30 33 33 41 45 52 52 54 61 65 71 64 60 72 68 68 70 65 52 55 53 47 40 42 44 51 39 53 53 56 68 85 84 84 84 77 74 78 71 31
13 12 10 12 16 14 14 15 18 24 32 27 45 53 62 58 58 66 65 69 62 62 71 72 80 74 58 52 44 37 36 42 46 56 55 52 55 54 46 41 38 42 58 35 37 35 31 41 38
15 11 10 6 5 13 15 16 22 19 18 22 41 52 60 64 64 54 55 44 47 53 61 65 52 57 59 40 38 43 41 46 47 52 57 62 60 72 52 38 39 44 36 38 34 31 40 38 35
14 11 9 6 8 14 17 22 22 19 25 32 43 49 53 52 47 40 37 38 41 44 50 53 53 55 53 50 48 48 48 48 53 51 60 60 68 78 56 46 37 36 32 32 33 30 29 29 28
11 8 7 8 11 11 18 19 15 17 29 36 44 43 45 48 40 39 38 40 39 44 52 53 48 50 50 53 57 52 52 58 71 66 74 74 81 93 73 41 33 32 31 29 27 28 26 25 27
9 8 8 10 10 10 8 11 20 26 31 39 38 38 40 40 36 34 32 34 36 42 47 50 55 55 56 53 51 58 54 61 53 56 72 77 76 78 59 42 37 32 32 32 31 29 28 26 24
9 8 10 12 9 11 9 11 21 28 27 32 36 41 42 39 35 32 33 30 34 43 49 48 50 54 59 70 79 83 65 59 49 52 56 52 52 59 50 38 42 40 35 32 32 31 28 28 29
11 10 10 12 15 10 8 11 24 30 26 29 33 36 36 39 38 37 31 30 35 42 48 51 54 62 78 79 70 52 57 47 43 40 38 49 46 46 45 41 40 38 33 36 33 31 34 30 30
12 10 8 10 17 11 14 22 25 32 29 29 29 32 35 36 40 42 34 34 37 45 48 54 48 53 56 46 48 37 34 34 32 31 31 35 33 38 36 37 41 34 30 30 32 38 33 35 36
10 11 10 14 23 23 24 24 27 32 33 36 33 33 33 37 45 47 51 47 46 50 54 51 54 53 45 41 40 36 36 36 33 30 37 37 35 34 37 31 34 36 35 42 42 37 37 34 37
12 12 16 21 24 22 24 30 31 31 36 34 34 35 38 45 48 55 56 54 53 52 49 49 48 46 39 35 35 37 37 34 31 33 37 34 35 31 31 39 36 38 36 41 46 45 38 30 36
18 16 22 16 24 22 23 29 32 39 38 40 37 36 39 44 50 55 57 56 55 54 54 48 42 36 37 39 34 34 36 34 31 30 28 34 37 33 33 38 39 42 39 38 44 44 45 40 35
19 21 20 24 22 20 23 21 34 37 43 41 43 42 44 48 49 51 53 56 54 55 49 39 35 36 36 33 36 41 33 32 35 33 32 34 39 40 35 36 41 44 40 42 43 38 44 41 35
25 24 22 22 20 23 24 20 32 37 42 44 44 45 46 46 45 45 44 43 38 41 40 39 35 34 35 36 37 34 37 34 33 34 38 36 35 36 34 35 40 43 38 43 49 48 42 37 39
26 25 24 24 23 32 21 23 20 34 32 40 41 41 41 40 36 32 32 30 31 36 40 40 36 35 36 37 40 44 43 35 29 26 24 20 20 20 24 24 40 46 46 51 47 45 45 43 39
24 24 29 29 36 35 31 28 19 21 28 34 40 36 38 36 30 29 29 28 33 40 42 38 35 36 37 38 35 31 27 25 23 23 21 25 22 23 27 33 38 42 49 47 46 49 51 43 38
25 23 28 35 41 22 32 26 16 24 24 29 31 31 33 32 32 31 29 31 35 41 38 37 35 35 31 27 23 23 23 22 21 27 28 27 28 31 39 46 47 50 48 48 57 51 44 42 38
27 29 27 40 46 42 22 24 23 26 26 29 29 30 31 31 33 33 34 36 38 38 42 40 30 24 23 25 26 29 29 32 33 34 33 30 34 33 42 52 52 53 51 57 48 41 41 40 39
24 24 33 36 49 41 24 30 22 32 30 30 30 32 30 30 33 37 37 39 37 39 37 33 25 23 26 27 29 29 31 32 34 34 35 36 38 39 44 48 53 52 52 44 42 38 34 36 35
28 26 28 28 40 32 28 16 26 27 28 32 31 31 30 33 36 39 39 40 38 37 32 28 25 26 27 25 30 34 33 33 34 34 35 37 41 40 42 46 50 50 44 41 47 37 34 34 36
24 23 21 30 31 45 53 21 26 32 30 27 29 30 30 34 36 38 40 43 42 34 28 27 27 25 24 27 30 31 33 33 34 35 36 41 42 42 43 45 47 45 43 45 38 35 34 35 37

GFSSGP_sfc_rhum_009.txt.gz
RH
40 20 10 7 12 11 13 10 9 27 41 38 33 35 38 42 53 69 48 50 51 51 50 57 89 89 87 85 86 86 85 80 79 77 76 74 72 73 73 73 73 64 57 54 53 53 58 63 67
16 9 7 8 14 14 11 8 12 38 42 32 30 30 32 44 43 57 55 49 48 54 52 54 90 88 88 87 85 85 82 81 78 76 74 72 71 71 71 70 70 61 56 54 54 57 62 66 67
12 6 7 7 12 11 10 12 28 30 28 29 34 27 31 34 43 47 47 47 52 55 54 65 90 86 86 84 84 85 88 86 82 78 72 70 68 67 67 66 64 60 60 60 59 62 67 72 75
8 6 8 12 12 9 9 26 28 26 26 27 30 40 31 30 36 50 49 47 55 58 65 88 87 85 84 82 83 86 91 90 86 81 73 70 65 63 64 64 64 63 62 62 63 66 70 75 79
7 6 7 9 10 9 8 27 19 25 29 26 25 36 34 33 40 39 46 54 67 82 80 71 91 88 83 82 83 89 92 90 86 80 76 71 63 62 64 66 67 67 66 66 66 68 72 75 77
6 7 9 10 10 8 8 19 28 33 28 27 25 29 35 39 37 44 66 79 92 93 78 74 88 86 83 83 91 92 92 90 87 81 76 70 69 69 68 68 70 68 68 69 69 72 74 76 79
8 8 10 10 10 11 11 16 33 33 30 32 27 38 41 39 38 48 80 89 88 91 79 78 66 69 94 94 93 93 92 90 87 83 79 74 74 73 71 72 73 73 72 73 74 76 78 79 80
6 8 10 9 10 20 13 18 19 21 23 22 19 36 48 39 51 61 71 73 76 93 75 64 62 65 70 76 94 93 92 90 87 82 78 78 77 72 71 69 75 76 78 80 81 83 83 82 81
8 11 9 9 18 31 18 21 16 15 18 22 47 30 38 45 49 56 65 71 75 71 68 61 59 60 65 72 75 86 88 87 84 76 77 73 44 41 45 73 77 79 83 82 81 75 75 78 81
8 10 8 12 19 28 23 18 26 19 26 29 40 34 42 43 51 57 60 65 59 63 59 59 60 62 58 43 51 45 40 36 39 42 44 36 46 43 38 58 76 77 78 75 74 69 74 74 28
8 12 13 21 14 15 15 15 14 33 28 24 37 41 40 42 53 55 51 38 38 52 58 55 59 54 45 42 34 31 34 40 44 50 42 51 44 49 41 41 38 41 59 34 39 36 30 37 34
12 10 9 8 11 11 13 10 26 47 62 39 26 34 33 43 51 46 45 37 46 52 54 47 42 47 47 34 30 32 36 39 40 44 48 51 46 53 50 44 46 41 35 38 34 32 36 33 30
11 10 9 7 7 11 12 14 14 17 19 23 31 36 34 38 35 34 29 30 35 39 44 41 43 47 45 41 42 44 55 54 52 52 59 52 49 59 54 69 66 53 35 34 34 32 28 27 26
10 10 7 8 11 13 16 13 11 22 21 28 33 30 29 30 28 27 28 30 32 36 42 43 41 44 43 49 52 46 47 46 46 51 57 58 49 56 51 49 45 37 35 33 31 30 29 29 31
8 8 8 13 12 14 10 12 16 22 22 27 26 25 27 26 24 26 26 30 32 36 40 44 51 48 50 48 44 46 46 53 44 48 60 64 54 59 72 54 51 47 39 35 32 32 30 29 28
9 10 16 15 10 8 6 14 15 18 22 25 25 26 27 27 24 22 23 24 31 35 39 43 45 47 47 60 73 76 54 52 49 52 54 55 49 57 56 47 43 40 46 41 43 42 36 35 30
10 12 14 13 7 5 7 12 16 15 20 23 26 28 28 28 24 24 24 24 30 36 40 43 49 50 59 68 47 46 53 42 39 40 36 39 36 36 38 35 38 40 32 33 33 33 36 35 33
14 11 10 9 7 6 9 14 15 15 17 23 24 28 30 30 29 28 25 24 29 37 41 45 46 49 58 40 42 37 34 32 30 29 30 33 31 36 37 32 40 38 32 33 37 45 39 38 34
10 8 8 8 8 8 12 12 14 16 16 20 21 25 28 29 29 32 29 29 32 40 42 46 46 47 41 36 35 35 36 34 32 31 35 35 35 32 37 34 35 36 36 40 42 41 44 38 33
9 10 11 11 12 16 13 15 15 17 18 20 20 22 24 28 34 35 37 36 38 43 45 44 44 43 34 32 30 33 34 31 30 33 36 33 36 32 33 39 38 38 38 42 43 44 43 35 31
10 10 15 15 16 14 13 19 22 20 22 23 22 22 23 30 36 42 43 43 44 46 46 42 39 35 32 34 32 32 32 33 30 29 28 32 37 35 35 37 38 41 39 35 42 40 45 40 34
15 13 14 14 18 17 12 22 20 24 25 27 26 27 29 31 36 41 44 48 52 47 43 36 35 34 34 28 32 37 31 31 35 33 32 31 32 31 27 27 32 37 37 40 38 32 43 44 39
31 16 16 16 18 16 17 16 58 25 26 26 29 29 31 34 38 40 42 44 40 42 41 37 34 30 31 33 35 33 35 32 30 28 27 24 23 21 18 21 28 35 36 41 44 46 46 41 42
18 19 18 15 17 28 15 20 31 24 21 25 29 33 36 38 38 37 37 37 39 39 40 38 32 31 34 37 40 42 37 28 25 25 22 20 20 20 24 24 32 34 35 42 42 46 48 54 50
16 20 24 24 32 30 16 19 17 13 18 20 30 33 36 36 34 31 32 29 32 37 39 35 32 34 36 37 32 29 28 27 24 25 24 27 24 24 28 35 39 36 38 42 47 59 62 60 52
18 16 26 31 31 18 19 20 12 14 13 16 25 29 33 33 29 27 27 26 30 36 36 33 32 34 33 28 26 26 23 23 23 27 27 25 26 27 32 36 41 40 42 50 49 57 62 59 48
17 25 17 26 30 32 17 12 12 18 18 20 26 28 32 30 26 24 25 26 31 36 37 37 33 29 25 27 30 31 30 32 31 30 30 27 30 26 31 38 40 47 46 53 60 49 49 41 42
21 16 27 24 35 36 18 18 14 23 22 22 28 28 29 26 25 26 26 29 32 35 34 38 30 24 27 30 32 29 30 30 31 31 31 31 33 33 34 36 38 42 44 49 44 40 42 43 38
23 20 20 22 32 38 30 17 16 14 19 22 24 26 27 27 26 27 28 31 33 34 36 33 26 26 30 28 28 35 30 31 31 31 31 32 35 33 33 34 38 37 38 37 40 42 44 37 38
20 20 21 35 30 34 43 23 16 19 20 20 22 23 24 24 24 26 31 33 34 36 34 29 27 28 27 26 30 31 31 30 30 31 31 33 35 35 36 37 37 36 36 36 37 38 35 37 39

GFSSGP_sfc_rhum_012.txt.gz
RH
42 25 18 12 13 15 16 13 9 23 37 29 26 30 42 44 56 75 84 73 62 63 68 71 89 87 86 86 87 87 85 83 81 79 77 76 74 73 77 75 70 66 57 54 57 58 59 61 64
17 14 14 10 14 16 14 9 41 35 34 28 28 29 34 55 52 59 64 56 53 55 57 68 91 88 87 87 86 85 84 81 80 77 74 75 71 69 71 72 71 68 61 58 58 62 65 70 74
32 14 8 9 13 16 13 16 28 37 32 32 32 28 30 47 48 54 58 66 56 57 53 76 90 84 85 85 84 87 86 84 81 77 71 67 66 65 65 73 71 65 62 61 62 65 71 76 83
13 8 7 13 12 11 10 19 28 28 27 26 29 36 29 28 42 44 65 72 66 69 70 90 86 84 82 82 88 90 88 86 83 80 74 64 62 62 68 75 71 65 64 64 66 69 74 82 83
12 8 8 10 12 10 10 26 43 66 53 57 44 31 31 39 37 45 64 68 85 92 91 88 92 87 85 83 90 90 90 88 85 82 75 70 63 65 71 76 74 69 68 68 69 73 79 82 83
10 9 11 10 9 8 8 34 47 62 63 52 59 28 34 37 43 68 80 83 91 92 94 89 90 90 92 90 93 92 90 88 85 82 75 72 75 76 76 77 77 77 77 78 78 80 81 81 81
13 9 9 10 9 13 9 28 35 47 41 34 36 62 80 36 71 76 80 91 95 96 93 94 91 87 93 93 93 92 90 89 87 84 80 80 80 79 78 79 78 79 81 82 83 83 82 81 80
9 9 10 10 10 13 31 35 46 41 28 24 31 47 52 68 79 81 82 82 90 96 98 91 95 92 89 84 91 90 89 87 85 81 79 79 79 77 77 79 80 80 81 80 80 77 74 77 78
6 10 12 11 11 38 52 52 37 32 21 28 30 43 44 59 64 71 82 87 90 94 93 89 91 86 90 89 84 87 86 84 82 78 78 79 66 69 70 78 77 77 78 78 76 70 71 76 76
9 12 12 28 31 39 52 69 48 21 35 40 42 75 64 56 63 72 77 91 92 96 85 77 81 79 78 56 77 76 65 65 67 62 71 68 65 56 48 70 74 75 73 72 72 71 77 74 48
9 12 10 40 48 41 32 46 22 26 46 64 80 57 51 55 62 66 64 62 73 69 69 69 78 77 64 58 60 54 56 65 67 63 63 66 66 72 69 74 68 77 74 58 64 56 53 48 52
10 8 10 31 36 36 23 23 31 36 52 70 70 43 47 51 54 48 56 56 54 58 61 62 59 64 62 50 50 56 57 63 68 66 61 73 76 77 78 76 76 73 64 58 59 57 52 52 45
11 10 9 10 14 14 20 21 30 32 38 41 49 31 42 46 43 38 36 44 49 52 51 52 58 61 60 61 65 67 68 68 68 74 72 73 75 77 76 76 71 71 63 57 49 51 48 48 43
10 10 8 8 10 19 24 26 21 29 28 32 30 29 35 36 34 32 33 38 44 45 50 55 54 61 59 68 67 68 69 69 68 71 75 69 72 77 77 68 65 62 54 50 50 56 54 50 48
10 12 9 12 12 16 35 21 20 24 27 29 28 27 27 28 27 30 34 37 42 45 47 54 62 66 67 66 63 67 62 62 68 75 81 80 86 85 74 72 75 66 56 52 57 54 54 55 45
11 11 14 16 14 12 10 19 18 24 26 26 25 26 26 25 26 28 32 33 39 42 48 52 50 62 73 76 76 82 72 69 66 69 70 62 56 60 64 62 64 63 60 56 56 59 57 56 56
14 16 24 19 14 9 7 15 16 20 22 25 26 28 28 27 25 27 28 33 38 42 49 55 63 69 70 79 71 67 69 58 57 61 58 54 51 52 60 62 67 61 60 60 58 65 66 63 58
19 16 17 16 11 6 7 14 15 17 51 81 25 26 29 28 26 27 26 32 39 45 49 57 60 70 74 64 62 60 58 56 54 53 52 52 48 53 60 62 58 57 58 60 65 66 65 66 64
14 14 13 10 7 7 13 14 15 15 26 26 29 28 30 31 28 29 31 36 44 50 50 55 61 66 63 54 53 55 58 55 52 50 51 54 51 47 53 58 59 60 60 66 62 64 64 64 60
14 14 11 9 8 9 10 13 13 14 16 19 23 29 30 30 30 34 34 36 46 50 52 54 53 55 53 48 54 57 51 52 50 54 53 53 55 50 46 60 58 60 61 64 66 64 66 62 61
12 14 16 13 9 10 25 19 14 14 15 15 17 20 24 28 36 38 36 44 51 58 59 52 60 51 49 52 47 51 52 57 53 52 54 52 50 44 44 51 56 60 60 64 66 62 65 68 63
24 20 15 18 28 19 23 34 53 32 17 19 20 23 23 26 33 37 43 45 63 71 61 51 48 46 44 44 51 56 50 50 55 54 50 43 45 40 31 38 51 56 62 64 66 50 68 68 67
24 22 19 14 17 24 30 30 40 40 30 23 24 26 27 31 35 42 46 57 58 67 58 54 47 41 43 48 52 54 55 54 49 48 43 42 41 40 37 42 56 58 60 61 67 71 71 70 75
18 19 20 14 18 52 32 39 44 42 33 33 23 26 30 32 38 40 52 53 51 56 56 54 43 40 47 52 56 59 53 47 46 40 42 45 44 43 46 46 56 61 62 64 71 76 76 79 75
15 20 28 40 50 45 15 28 37 37 33 62 67 28 32 38 40 42 53 50 48 54 54 49 40 42 50 53 48 49 47 43 47 42 46 44 45 47 53 52 59 62 62 70 69 73 77 80 82
19 15 37 80 80 42 21 28 16 21 29 48 37 30 36 39 43 41 41 45 46 49 49 44 40 42 46 43 41 43 41 42 43 46 42 45 46 50 48 55 56 59 63 62 70 78 82 81 84
14 21 16 26 53 42 22 13 8 15 15 16 27 31 38 39 38 37 38 38 42 45 49 49 40 41 38 39 45 49 47 50 50 46 43 46 47 37 50 54 56 58 58 63 72 80 74 70 67
20 15 30 31 50 44 21 21 22 22 20 18 27 33 35 35 33 33 32 36 38 43 43 51 42 39 35 42 50 44 48 49 48 46 45 44 48 48 51 52 53 56 59 65 66 65 59 64 68
21 21 20 19 38 64 58 25 17 17 18 22 23 31 33 35 33 30 28 31 36 42 43 46 43 34 36 41 45 50 46 50 46 45 44 44 48 49 48 49 52 52 52 53 58 58 56 62 58
18 23 19 62 43 57 69 36 16 18 17 21 21 25 29 31 30 28 29 32 37 43 41 45 42 33 38 40 43 46 48 44 46 44 43 46 48 49 48 50 51 51 51 55 59 59 54 60 71

GFSSGP_sfc_rhum_015.txt.gz
RH
68 54 44 33 30 29 30 21 20 52 52 44 41 55 71 74 78 88 89 87 84 89 85 82 88 86 86 87 88 87 85 82 79 79 79 77 74 71 74 72 70 67 61 58 60 62 64 66 69
38 23 28 33 26 33 28 28 58 51 43 38 36 41 58 77 68 96 90 87 78 82 78 80 88 87 87 88 88 85 81 78 79 77 76 76 72 69 73 75 72 69 62 62 63 64 66 69 72
44 31 38 25 26 27 25 37 52 41 38 38 40 36 44 76 74 82 76 76 75 76 80 84 89 86 86 88 88 85 83 81 79 76 72 70 67 68 70 75 72 67 63 63 63 66 69 74 81
30 24 15 19 21 17 15 29 50 49 57 49 50 46 40 52 60 73 77 75 72 81 85 88 86 83 86 88 88 87 85 83 80 75 71 66 66 69 72 76 72 65 65 64 66 69 73 81 80
28 25 17 20 17 14 22 45 61 64 67 55 42 41 54 73 76 81 85 92 92 95 91 84 85 83 88 89 88 88 86 84 80 76 74 71 70 70 76 79 75 70 69 69 71 73 80 80 79
32 18 20 19 11 8 49 56 58 64 60 54 46 43 59 81 87 96 94 95 95 96 95 91 90 92 95 90 90 89 87 85 80 79 77 75 78 79 80 80 80 78 79 81 80 81 79 78 78
33 27 20 14 11 29 44 49 57 62 56 53 49 78 79 94 93 91 93 94 95 95 97 98 97 90 94 92 91 90 88 85 81 81 81 80 81 82 81 81 82 80 80 79 78 75 75 76 76
19 20 20 15 15 45 47 50 46 48 54 38 54 67 79 95 91 92 90 90 94 96 96 98 97 96 95 88 90 88 85 82 80 80 80 80 80 80 80 80 80 77 75 74 76 71 70 73 75
18 18 18 35 59 60 66 55 50 42 41 44 66 61 92 87 85 86 92 96 91 96 90 96 93 93 93 92 84 84 83 80 80 78 79 82 78 76 76 79 78 74 75 73 74 69 74 75 70
20 21 20 42 43 54 50 50 44 40 57 78 57 69 85 86 86 84 82 92 93 96 91 91 90 95 90 68 85 86 75 78 75 73 76 73 77 78 66 76 82 78 77 73 71 70 77 68 51
19 16 30 43 39 43 44 51 50 45 61 57 62 68 85 80 90 81 80 84 89 91 91 86 90 82 80 71 82 78 76 78 79 72 74 75 74 78 80 81 89 85 74 67 66 56 52 48 52
18 12 11 36 36 47 44 51 48 52 56 62 60 67 72 74 87 81 88 89 88 89 81 80 82 83 70 73 72 67 67 75 77 75 72 81 88 83 83 85 82 76 75 63 59 56 49 47 47
14 13 13 27 28 38 36 44 38 54 52 47 59 61 68 64 72 84 76 75 72 75 73 73 63 64 62 68 76 78 76 80 82 83 81 85 88 80 79 79 74 65 59 60 59 54 50 53 49
13 13 11 12 21 28 29 34 34 41 54 56 59 62 56 57 61 66 62 65 64 66 66 66 64 70 69 66 72 75 77 72 84 90 91 87 91 93 84 75 71 64 62 61 60 55 54 54 53
16 16 15 19 30 30 24 39 41 36 45 50 50 57 52 46 44 54 58 58 56 59 61 65 71 73 70 75 73 71 73 80 83 75 85 87 84 80 68 75 70 66 63 58 59 61 64 63 56
18 17 21 19 20 27 26 40 42 40 40 41 41 40 44 40 43 45 50 53 55 57 58 62 64 78 79 77 79 81 78 78 77 75 72 64 62 68 72 70 72 66 66 66 68 69 66 68 66
24 29 29 21 15 22 27 36 37 34 34 38 37 38 37 39 41 41 49 52 53 54 58 73 77 75 76 82 87 79 67 67 69 72 67 58 60 61 71 72 66 59 66 72 67 70 72 71 72
26 30 32 25 18 20 16 27 37 38 41 52 49 53 40 39 41 39 48 50 57 56 70 73 73 75 79 82 75 74 69 71 68 63 62 55 56 53 65 69 69 67 68 70 69 69 71 76 68
20 20 24 22 17 15 18 24 35 48 55 41 62 73 64 40 38 36 47 52 62 73 66 73 77 76 83 71 74 74 72 65 62 59 55 59 60 59 60 64 60 67 66 70 69 73 66 66 71
24 25 23 15 11 12 23 24 23 52 51 43 67 70 70 50 40 36 49 55 57 72 65 70 71 75 74 54 66 65 57 62 59 63 62 56 55 53 53 63 66 65 66 67 69 67 68 74 69
24 27 26 20 16 19 24 30 33 30 35 47 53 63 44 42 41 45 46 60 60 66 65 66 67 64 65 55 56 58 61 67 68 67 66 61 46 35 38 52 56 58 64 72 73 71 70 71 70
31 24 28 23 26 32 24 52 50 30 28 29 32 39 40 41 44 46 56 69 63 72 61 62 56 52 57 54 52 50 62 60 68 61 49 42 40 39 39 52 57 60 66 61 72 65 80 76 78
25 23 30 32 28 38 31 42 52 42 31 31 33 35 39 45 48 52 61 74 70 70 79 64 48 46 56 57 58 58 62 55 52 48 46 39 45 44 46 53 56 64 70 72 82 83 84 82 81
25 28 29 33 36 62 39 41 55 49 35 34 39 30 38 48 55 56 67 69 70 79 72 46 43 55 62 64 61 54 47 47 45 46 50 45 49 53 54 45 62 64 71 81 84 83 84 85 81
32 38 53 51 72 71 39 46 38 42 31 34 37 33 43 52 58 71 71 70 68 75 64 46 51 61 56 52 49 47 45 44 42 46 50 47 48 51 51 54 61 67 76 72 78 83 86 86 89
32 31 62 62 89 64 47 47 35 23 30 32 32 38 45 56 60 68 63 59 62 58 46 52 55 60 52 50 47 44 43 52 48 49 49 52 52 54 51 57 57 62 65 74 80 83 85 86 87
28 38 32 68 72 84 52 32 24 33 37 47 47 48 55 60 65 65 61 56 56 52 59 58 54 56 48 48 50 48 49 54 54 50 47 54 53 40 53 56 55 60 66 73 76 82 82 83 74
27 26 43 59 74 64 35 36 40 35 34 45 56 50 57 60 60 64 56 56 54 56 59 60 57 48 45 51 54 50 53 53 52 52 50 48 50 48 54 55 57 57 59 63 72 79 71 65 72
32 33 30 35 61 66 80 50 26 28 30 43 48 47 51 52 50 52 49 51 52 54 58 60 58 46 49 55 53 56 55 56 51 52 52 48 50 47 51 54 56 56 57 60 64 64 56 69 75
23 31 39 68 44 78 81 56 24 22 25 26 32 41 46 46 44 43 43 48 53 54 55 57 56 42 50 53 54 55 53 50 52 51 48 52 49 52 51 52 57 57 60 61 61 63 63 68 72

GFSSGP_sfc_rhum_018.txt.gz
RH
75 58 45 36 34 32 35 24 21 48 56 54 60 72 84 82 86 78 90 86 88 91 89 87 88 87 88 90 88 86 82 79 76 77 77 75 71 72 74 72 70 69 64 61 59 59 60 62 67
48 32 32 37 31 32 27 23 56 58 48 44 41 60 76 85 86 95 94 85 87 89 86 84 87 88 90 89 87 83 77 76 76 74 72 73 71 72 76 74 72 71 63 60 59 60 62 67 74
41 34 47 36 34 29 26 44 64 60 49 44 44 42 64 92 88 88 84 81 86 86 82 85 89 90 90 88 85 83 82 81 79 76 70 70 70 69 72 74 73 69 62 61 61 63 66 75 79
36 28 29 19 21 19 21 35 56 49 47 47 44 53 61 83 82 86 82 80 86 87 85 90 89 91 89 87 86 84 83 80 78 75 73 72 70 70 75 75 72 65 63 63 64 66 71 78 79
36 26 23 22 18 14 17 45 64 76 69 55 44 59 77 87 88 83 83 84 91 94 86 82 87 84 83 86 86 85 84 81 77 75 77 76 74 74 78 77 75 71 68 68 69 71 77 76 79
39 24 24 23 17 25 60 63 61 71 69 55 47 70 89 89 90 93 96 95 92 93 90 91 90 93 90 85 88 87 84 81 78 78 79 78 79 80 81 81 80 80 79 78 76 75 75 74 75
49 36 33 26 19 38 52 62 67 59 58 56 65 87 95 91 91 92 95 97 97 98 98 97 96 92 94 94 90 89 84 81 81 80 79 80 82 82 81 81 80 79 77 73 71 72 72 72 76
32 27 28 19 62 74 63 60 53 54 52 47 54 79 96 92 93 92 92 93 94 98 97 94 92 90 97 95 90 87 85 82 83 82 82 84 83 82 82 80 78 76 71 69 66 70 71 71 77
19 25 25 27 54 53 60 60 50 48 58 63 72 87 89 92 86 94 96 96 97 97 94 90 94 96 95 93 84 84 81 80 82 81 82 84 82 78 78 80 76 74 76 70 66 70 79 72 74
23 26 23 23 49 58 57 47 44 52 67 76 94 88 90 87 88 91 91 91 86 88 96 94 88 97 96 73 87 87 78 80 78 76 77 74 78 79 74 81 77 76 73 76 70 77 66 58 55
23 23 22 42 44 49 51 52 52 53 70 62 93 89 89 88 89 86 89 90 76 84 92 88 90 92 82 75 90 86 82 81 77 75 76 81 80 85 82 81 87 85 68 59 58 53 52 49 51
22 16 17 41 42 45 41 48 54 55 54 62 84 80 88 89 90 87 85 90 87 93 87 87 89 94 88 79 79 76 77 83 83 80 78 85 90 84 82 88 85 72 67 62 60 60 54 52 50
19 16 14 31 37 41 40 45 44 55 63 69 70 76 86 79 81 80 77 82 88 92 89 82 86 85 80 81 76 77 82 82 85 86 85 88 88 87 79 72 68 65 63 60 60 56 54 56 52
22 15 15 34 36 36 40 44 42 52 66 70 70 72 83 81 79 84 79 84 86 86 83 83 84 74 73 79 82 81 85 91 96 96 94 87 89 87 81 73 66 64 64 64 63 63 63 64 59
23 17 24 30 32 33 35 46 53 47 60 67 69 71 70 84 74 78 77 79 80 76 74 72 77 78 76 75 74 87 86 88 89 89 90 89 88 82 77 72 71 72 69 65 67 68 69 68 61
25 20 24 27 28 34 33 52 42 48 55 62 59 65 67 71 78 75 74 72 70 68 66 73 66 78 81 78 85 88 86 85 80 77 77 70 69 75 75 72 68 69 74 72 73 73 69 72 73
28 29 34 22 19 29 32 60 46 45 48 57 63 67 56 61 65 66 64 63 65 64 70 84 83 82 79 85 87 80 75 71 74 74 72 68 66 70 76 72 72 73 72 76 71 73 77 78 70
31 31 34 27 20 29 36 47 48 47 47 58 58 58 51 53 58 60 60 60 62 64 76 81 79 77 85 85 78 75 74 78 72 71 66 60 61 70 71 70 72 69 69 70 70 67 69 74 73
24 25 26 28 24 23 28 43 50 49 50 64 66 58 57 49 50 56 59 59 63 80 79 76 76 84 80 75 74 78 78 72 70 63 64 65 65 61 66 69 70 70 68 72 73 72 65 66 72
28 27 28 27 21 18 30 47 50 56 42 50 59 60 46 55 51 59 61 63 65 76 77 75 68 82 74 63 70 72 61 70 69 69 66 63 63 61 57 64 58 61 67 70 72 72 71 81 76
28 30 34 28 18 25 29 39 44 46 48 51 52 43 41 50 46 58 62 65 67 77 76 74 70 75 78 69 71 70 71 74 72 73 71 50 41 40 51 55 58 60 64 64 71 78 74 74 79
33 23 29 30 29 30 28 48 47 39 39 50 46 62 52 60 40 49 62 67 71 78 71 71 72 76 75 64 63 55 53 61 73 71 52 43 44 50 53 56 61 65 72 72 79 80 85 80 79
30 31 30 34 38 40 42 45 37 54 30 48 54 55 57 56 41 46 63 64 68 75 81 74 77 81 69 59 56 57 72 71 63 56 47 49 52 56 53 57 65 69 83 87 85 86 82 81 82
27 30 37 41 46 63 47 43 48 52 30 26 40 48 50 48 50 67 68 64 69 82 84 82 55 55 54 59 65 61 58 51 49 52 51 54 60 62 54 58 66 74 84 84 85 87 85 88 86
31 41 52 49 70 65 46 47 41 34 39 35 37 42 42 47 65 74 77 72 79 89 79 54 51 60 63 59 65 53 46 43 43 48 53 55 56 59 54 61 64 70 81 81 85 87 88 89 90
33 36 59 55 78 53 54 60 43 32 29 32 33 41 58 66 62 69 76 77 80 79 60 54 53 54 57 58 63 58 46 48 50 51 54 57 57 56 58 56 57 64 72 76 83 84 84 89 91
32 37 38 68 81 76 61 40 25 38 43 45 46 47 61 72 79 77 78 75 75 64 60 68 64 50 52 62 65 64 56 52 53 52 54 59 56 50 53 56 56 61 62 75 83 86 83 86 84
33 28 43 63 68 74 44 45 43 43 42 43 54 53 52 69 79 82 74 74 66 54 57 63 56 54 66 69 65 63 56 54 54 55 56 54 53 50 54 54 57 58 60 62 72 78 74 71 81
41 37 37 44 64 63 75 51 29 33 35 38 48 53 54 69 73 73 71 66 60 55 54 58 55 55 62 67 65 59 56 58 56 52 53 55 54 52 51 53 55 55 59 62 62 63 63 72 74
37 34 37 65 43 82 83 54 33 26 29 41 49 50 59 62 65 66 66 64 60 55 58 59 58 56 54 47 50 54 59 56 56 55 57 57 53 54 51 53 54 58 62 64 64 65 67 71 74

GFSSGP_sfc_rhum_021.txt.gz
RH
75 58 46 36 37 36 38 29 21 35 66 64 70 73 90 98 80 75 90 91 86 84 89 88 88 88 89 88 86 84 81 78 73 73 73 72 73 74 74 74 73 68 63 58 58 59 60 62 71
49 37 36 34 32 37 29 25 29 55 57 59 63 75 84 96 86 95 90 89 83 84 88 86 88 89 89 88 85 82 76 73 75 70 70 72 71 72 76 76 73 69 64 58 59 60 62 66 76
42 38 46 40 36 31 28 28 62 59 60 58 57 58 79 96 85 88 88 88 88 88 86 86 90 90 89 86 82 81 81 79 77 73 70 70 70 69 74 76 73 68 61 60 60 62 67 75 76
39 37 27 22 23 21 20 21 58 60 55 55 56 70 83 88 83 88 84 85 89 91 88 93 92 91 88 86 85 84 83 80 77 76 75 72 71 69 75 76 72 64 62 62 62 64 74 77 74
36 28 26 30 18 15 32 65 65 70 69 66 67 90 92 93 87 84 87 88 93 97 94 89 92 89 86 85 85 85 84 81 78 79 78 77 76 74 79 77 75 72 67 66 66 70 76 76 72
41 27 27 26 20 16 66 71 71 70 69 63 72 86 95 93 94 96 93 96 96 95 96 89 90 90 85 87 88 86 84 81 81 81 80 80 81 82 81 80 80 79 78 76 73 72 75 77 74
40 39 39 28 27 50 63 65 68 69 64 57 65 90 97 96 96 93 95 97 97 97 96 97 98 92 88 90 90 87 84 82 84 84 82 83 84 83 81 80 80 78 76 73 72 73 74 78 75
38 33 41 24 58 60 63 59 53 57 56 52 61 96 97 97 95 92 93 93 94 94 95 96 96 97 97 92 86 83 82 85 86 86 85 85 84 83 81 80 77 73 72 73 73 78 76 82 74
26 32 32 23 63 50 61 61 59 64 72 85 87 93 91 93 90 92 97 97 96 96 96 96 94 91 94 95 86 84 81 83 84 83 83 87 87 82 76 78 74 72 75 74 76 76 72 70 74
28 36 31 21 48 55 60 56 50 60 80 92 92 94 93 88 90 89 96 97 97 94 91 89 85 90 96 80 89 87 76 82 82 81 79 79 84 87 79 82 78 76 76 76 72 68 65 56 56
27 27 22 35 45 53 55 50 53 62 72 83 95 96 92 90 90 93 88 90 94 88 89 92 90 92 97 83 94 90 87 83 81 79 78 81 84 87 86 84 85 77 65 55 55 54 55 52 57
29 20 22 25 45 48 50 51 53 65 72 79 85 83 89 90 89 88 89 91 92 97 94 92 95 97 93 89 89 85 80 82 82 79 83 89 90 84 85 85 80 69 68 62 61 64 58 57 56
24 19 18 25 41 42 44 47 47 70 86 82 84 84 86 84 88 83 83 84 80 84 83 85 90 97 94 89 86 82 82 87 87 88 89 91 91 84 73 70 69 68 65 64 62 60 60 60 58
22 25 23 33 41 41 44 47 50 68 87 88 80 88 73 72 77 85 83 90 95 89 84 87 92 96 87 85 81 84 91 95 95 94 92 84 84 84 78 71 68 67 68 68 68 68 68 67 63
28 22 32 41 42 45 38 43 50 65 75 89 85 84 74 77 78 81 80 85 88 90 86 94 94 90 86 85 86 94 96 95 95 95 92 89 86 85 74 74 76 76 72 71 71 71 72 72 65
26 21 39 35 34 40 35 56 53 66 71 81 84 90 78 80 77 81 75 80 84 86 90 83 75 85 87 83 92 97 94 92 94 93 88 79 75 75 75 73 76 78 76 74 75 75 74 78 68
28 28 34 35 28 36 36 64 56 64 65 77 77 83 89 87 79 76 77 83 86 84 78 82 85 88 84 90 92 91 93 83 80 80 76 74 74 73 74 74 78 74 73 75 68 79 78 79 70
35 32 38 30 27 34 39 58 60 62 64 68 78 82 84 87 81 74 77 78 80 80 77 88 85 84 86 88 83 88 79 80 76 75 71 68 76 72 76 75 75 72 72 74 74 65 72 79 76
31 32 31 29 23 31 43 54 57 59 65 71 75 74 75 79 73 72 74 71 78 85 87 85 83 86 86 77 80 79 80 77 76 71 66 71 71 67 70 76 73 72 72 78 72 74 69 78 77
30 31 32 29 26 24 30 56 63 58 58 60 65 68 64 68 68 72 71 73 77 79 82 84 77 88 84 68 71 72 75 75 74 74 72 69 68 67 68 64 60 62 63 65 73 76 77 87 81
31 36 36 35 27 30 38 48 61 54 53 53 57 55 54 60 64 71 70 72 74 77 85 80 76 83 79 73 72 75 74 76 75 77 76 57 54 49 54 58 62 65 65 67 72 81 75 81 78
35 30 30 34 31 40 32 55 50 55 53 50 48 62 52 54 56 67 70 72 73 75 75 75 72 79 78 73 66 60 70 66 76 79 56 48 54 58 56 61 68 73 77 77 86 82 88 81 82
31 32 34 36 45 40 43 45 41 53 55 46 42 45 56 59 53 63 69 66 69 75 77 80 74 79 79 70 64 76 88 86 75 57 51 54 62 61 58 66 70 79 83 81 77 78 80 79 79
31 33 39 48 49 60 46 45 48 58 44 43 35 42 44 66 65 55 67 67 71 85 88 90 87 80 84 74 65 70 84 79 57 53 58 63 68 64 65 64 74 82 81 77 78 84 83 86 85
35 41 52 49 67 63 50 50 44 33 36 35 36 40 51 56 59 68 75 73 74 90 92 90 85 84 81 77 71 68 71 73 56 50 62 64 63 60 63 63 65 72 75 77 81 86 87 90 90
39 37 59 53 70 48 57 58 41 34 35 35 37 39 47 63 57 68 72 77 79 83 88 83 76 81 72 75 71 64 57 49 42 47 52 62 61 61 61 62 60 73 71 82 87 84 88 89 93
38 40 40 71 84 79 57 50 26 31 42 52 51 55 65 64 74 72 75 77 80 83 88 81 75 74 73 78 69 58 52 50 49 53 54 64 65 58 62 60 62 60 64 78 87 86 86 88 91
34 35 44 64 63 66 56 47 41 38 36 49 62 53 61 81 85 84 80 78 83 83 77 77 72 67 68 72 69 70 59 57 50 52 55 54 57 56 61 59 58 59 59 60 69 84 75 71 77
41 41 44 48 67 64 72 52 37 35 34 35 38 55 54 76 85 83 80 82 81 77 69 72 66 64 66 68 69 72 63 62 58 55 53 55 57 58 57 58 58 57 57 64 66 65 63 71 75
38 40 41 67 47 83 83 56 34 29 31 34 35 42 57 62 78 78 77 81 73 66 67 67 64 64 61 63 68 64 66 60 56 51 56 60 54 58 56 58 56 58 60 64 67 68 67 75 79

GFSSGP_sfc_rhum_024.txt.gz
RH
78 57 46 33 37 36 41 28 28 26 78 80 75 78 89 95 78 83 90 92 88 90 90 87 88 88 86 84 84 82 79 76 74 74 74 75 75 75 75 72 70 68 66 59 58 64 71 75 79
49 36 36 35 33 38 24 27 31 52 69 71 57 74 93 90 82 94 91 91 81 86 90 88 90 89 86 84 83 80 76 74 74 73 73 76 74 74 76 73 70 69 67 59 57 58 66 72 80
40 41 40 38 39 31 27 24 71 68 66 59 56 74 90 93 86 92 90 84 85 90 90 90 91 89 87 84 81 79 78 77 76 74 71 73 73 71 74 74 72 69 66 59 59 57 66 75 79
41 39 23 27 29 24 22 20 47 64 61 58 65 90 90 90 85 90 89 90 93 93 94 92 91 89 86 84 83 82 81 78 77 76 74 73 72 70 76 74 71 68 65 60 62 59 69 81 76
33 30 31 32 22 17 29 73 78 76 73 72 73 92 93 94 88 91 94 91 96 98 97 88 90 86 86 86 85 84 82 80 80 79 77 76 77 77 79 78 76 73 69 68 68 71 70 77 75
38 28 30 29 21 19 64 74 75 73 72 70 86 87 95 92 93 97 93 96 94 97 97 98 86 86 86 87 87 86 84 84 84 82 81 81 81 81 81 80 80 77 76 75 77 77 73 73 78
40 38 44 31 28 40 64 67 70 72 67 75 84 93 96 97 97 93 95 96 96 96 97 98 98 95 89 91 90 88 87 88 87 86 84 85 85 83 81 80 79 77 76 76 78 82 76 73 78
39 35 54 30 37 66 61 64 64 62 72 70 78 95 94 97 96 94 93 94 92 95 95 96 96 97 96 94 86 86 87 89 88 87 86 85 84 83 81 80 78 76 76 77 76 81 75 74 77
31 35 37 28 57 52 64 66 68 80 92 86 88 92 90 93 92 94 96 97 95 93 92 94 96 98 94 97 84 83 84 86 86 84 85 88 89 85 77 78 75 76 77 78 76 75 77 75 73
32 42 32 24 30 54 63 62 62 78 93 90 96 95 95 93 92 93 96 97 97 97 93 92 95 92 88 91 90 83 80 84 84 84 82 83 86 84 82 83 80 81 80 74 72 69 65 58 59
32 30 26 22 35 55 56 58 60 77 86 83 96 96 96 91 93 94 91 90 94 95 93 93 94 92 87 94 91 89 85 86 84 81 80 84 87 88 82 81 78 74 62 56 56 58 59 60 61
30 22 22 22 47 55 52 56 58 65 76 78 88 89 88 89 94 91 90 93 95 86 86 85 87 94 98 94 90 88 82 83 84 80 82 91 91 85 82 80 77 69 67 64 65 67 64 63 61
27 21 20 20 52 53 48 54 61 96 86 78 81 84 86 88 89 87 84 85 81 83 78 87 96 98 97 94 91 90 83 85 84 86 91 91 91 84 73 71 72 69 66 65 66 66 65 66 62
24 22 29 40 47 47 48 55 70 92 90 84 83 86 88 77 82 89 87 83 89 87 92 93 95 97 96 95 90 88 87 93 96 96 94 87 81 81 74 70 70 70 71 72 71 70 70 70 64
31 27 34 48 47 48 42 53 79 86 89 87 93 91 88 80 84 87 84 90 92 93 88 92 94 96 95 92 86 90 97 96 97 95 90 87 85 82 74 76 76 74 74 73 74 75 74 72 59
26 26 39 38 41 42 50 66 79 86 90 83 86 87 81 84 84 89 88 84 90 94 94 94 82 95 94 93 92 96 98 98 97 97 94 82 78 74 76 76 80 80 77 76 76 76 78 73 66
31 29 40 41 36 43 40 67 67 79 89 92 91 92 83 89 85 89 85 91 93 92 93 93 93 94 93 92 97 97 96 97 96 92 88 80 74 71 74 78 81 77 75 76 72 80 78 73 71
40 36 56 42 36 45 46 70 68 76 77 87 94 96 90 89 84 78 83 90 93 94 90 90 92 92 90 96 94 96 88 85 84 81 79 78 77 72 78 80 79 76 74 76 71 69 80 80 74
38 36 35 32 26 38 47 68 67 78 76 82 86 94 95 91 79 77 81 90 93 93 90 92 93 91 88 90 91 93 86 88 80 75 72 79 76 73 76 78 75 74 74 79 74 74 72 80 79
33 36 37 33 26 31 51 67 78 71 71 68 74 85 86 88 85 83 87 89 92 90 90 93 88 88 83 76 79 76 79 79 77 76 76 76 73 72 73 71 72 73 71 71 78 75 84 82 80
35 38 38 35 31 39 48 59 70 58 61 64 67 70 73 80 86 82 85 87 88 88 88 86 85 84 81 76 75 78 80 76 76 80 78 70 65 58 57 62 67 66 68 69 78 81 77 80 73
34 31 36 36 33 41 39 43 51 61 62 58 59 69 67 68 73 76 82 85 88 87 84 84 82 83 83 74 70 63 71 71 77 81 64 55 59 60 59 65 71 74 79 83 81 80 84 80 77
31 34 40 39 44 44 48 44 41 61 59 56 53 54 61 61 65 72 78 75 78 83 85 90 85 85 82 72 67 74 85 86 84 68 56 62 66 64 66 69 74 82 86 80 76 74 78 78 82
30 33 39 49 50 59 47 46 47 57 47 45 48 49 50 60 66 65 75 78 79 88 91 95 89 85 88 79 79 77 84 85 76 70 67 69 70 72 70 71 81 83 81 78 76 76 78 80 81
36 41 53 51 66 62 53 54 44 32 38 45 49 47 45 48 67 70 80 80 81 86 88 93 91 88 93 89 86 82 80 75 72 66 72 71 72 73 69 71 77 82 79 81 78 81 85 86 85
41 42 61 54 70 48 59 53 34 34 38 35 37 40 45 52 58 62 66 76 78 83 86 88 91 90 93 91 89 85 79 73 66 58 59 62 55 67 69 62 65 76 76 78 81 85 86 89 91
39 44 41 71 85 77 57 47 29 31 40 50 52 50 48 69 70 66 63 72 79 84 84 88 88 86 94 92 93 88 86 81 72 70 62 60 58 58 64 61 64 75 73 77 85 86 85 89 92
35 39 48 63 58 65 57 54 39 30 38 49 55 54 57 75 78 77 76 78 80 81 80 90 88 83 86 90 88 86 84 80 79 69 68 59 62 63 62 63 63 65 67 71 80 86 87 89 90
42 44 50 51 66 64 71 51 40 33 37 36 40 51 54 67 86 88 85 85 84 85 91 91 91 87 86 88 90 91 86 83 75 66 63 59 60 58 60 61 63 63 64 65 68 74 74 73 74
39 41 46 67 51 82 83 57 34 33 32 32 32 37 56 58 81 90 91 91 93 91 93 91 88 81 87 88 87 87 84 73 65 64 57 58 58 61 59 61 60 61 64 67 71 72 68 75 78

GFSSGP_sfc_rhum_027.txt.gz
RH
60 36 29 20 21 23 20 17 19 17 34 69 65 54 62 69 65 62 86 87 78 78 64 70 88 87 86 85 84 82 79 78 77 78 76 76 76 75 74 72 71 69 68 69 70 70 70 75 79
35 25 24 22 18 17 12 18 22 50 54 56 62 71 69 85 79 88 91 84 79 74 63 63 88 85 84 84 83 80 77 76 77 77 77 78 77 75 74 73 72 68 66 65 67 72 76 80 83
29 29 24 23 22 17 16 18 36 52 53 50 57 70 78 86 82 88 84 78 81 80 66 67 88 86 85 83 80 78 77 77 78 77 77 77 76 75 74 74 71 69 65 59 63 68 74 78 83
28 25 16 19 20 19 17 15 43 43 47 46 61 82 79 88 87 89 81 81 87 82 71 83 89 88 85 82 81 79 79 78 78 77 77 76 75 75 76 74 71 69 65 57 62 69 73 80 81
21 20 23 19 16 13 14 50 61 54 52 65 60 82 82 92 95 94 93 92 94 92 79 84 88 87 86 84 83 81 81 80 79 78 78 77 77 78 80 78 74 72 71 67 66 72 76 77 80
23 18 19 18 15 14 28 53 58 58 60 63 67 70 94 91 94 96 95 97 95 97 97 93 88 90 86 87 85 84 85 84 82 81 81 81 82 81 81 80 77 77 79 79 73 76 78 78 78
26 23 20 21 22 35 48 53 59 57 54 67 67 77 93 94 95 96 96 96 97 97 97 96 95 90 85 90 90 90 88 87 85 85 85 85 85 83 81 80 77 76 80 82 76 74 81 79 75
25 22 24 22 21 25 47 49 56 53 63 62 66 76 92 97 95 92 94 96 97 98 97 96 93 92 95 92 87 90 90 90 89 88 88 85 83 82 82 79 77 78 78 82 76 75 78 74 73
20 23 22 20 25 33 48 50 62 70 70 73 78 79 87 95 87 90 94 96 97 97 96 96 91 91 93 88 78 84 88 89 88 83 86 82 57 56 54 73 77 80 80 81 80 76 73 72 69
22 27 22 18 17 32 46 50 58 68 80 81 91 95 94 90 87 93 92 96 96 96 92 84 91 93 87 87 80 79 76 76 70 64 65 60 65 62 57 70 85 81 78 74 73 66 62 50 34
23 23 21 18 17 38 51 48 53 65 72 74 93 92 93 89 92 92 93 89 91 89 86 83 89 90 88 91 89 86 71 75 76 78 68 65 66 65 64 60 58 56 56 39 44 41 38 44 37
23 20 19 17 27 43 44 47 55 62 60 67 77 80 88 91 91 87 88 95 91 80 84 86 86 90 89 90 86 74 69 65 64 63 69 74 67 69 61 48 49 53 45 50 48 46 52 48 44
22 18 17 18 37 50 46 52 66 87 80 84 79 82 82 89 88 76 84 78 87 89 87 77 74 74 81 80 71 67 63 57 59 61 69 69 64 63 52 54 49 47 46 45 46 45 43 45 42
22 18 22 34 43 43 51 63 60 84 73 79 78 74 75 83 87 79 76 77 78 74 79 73 76 77 79 76 73 64 63 65 67 69 79 71 62 62 54 53 48 48 44 46 44 44 43 41 40
25 24 30 39 41 43 38 49 75 79 78 82 78 76 77 72 79 78 74 72 68 63 66 73 78 78 84 78 69 68 65 65 69 74 77 71 64 63 58 50 51 51 51 53 52 50 47 40 39
21 23 32 32 37 41 34 53 81 81 79 80 79 80 77 68 70 74 74 73 70 69 70 71 68 77 84 79 70 69 67 73 72 72 68 63 55 58 58 52 54 52 52 49 48 48 46 46 42
27 22 31 34 33 38 34 55 66 77 76 72 74 71 66 67 68 71 70 68 70 70 74 72 73 75 83 79 69 72 82 75 74 75 64 63 55 55 54 52 58 56 50 52 48 52 49 47 44
30 26 28 33 28 35 37 53 70 82 79 82 71 68 69 66 63 64 66 64 63 66 69 69 72 77 81 72 74 81 76 73 82 78 61 60 52 55 57 57 60 52 49 50 46 51 52 48 43
28 27 25 23 22 34 39 47 65 76 77 79 80 79 70 62 54 62 65 65 66 72 71 70 74 78 76 73 74 79 77 78 77 68 65 64 55 55 58 54 56 52 49 50 53 50 53 49 50
29 27 26 25 22 28 33 41 54 70 70 65 68 75 72 62 62 67 66 69 71 69 71 71 71 74 73 65 68 70 70 70 75 62 63 59 60 55 57 57 52 52 50 57 57 56 53 49 52
29 30 31 28 26 31 36 34 54 53 63 58 59 59 62 66 68 69 71 70 69 72 76 72 68 70 71 69 66 67 76 64 58 56 58 57 58 53 52 56 52 51 45 45 54 56 56 50 52
29 26 28 30 27 28 27 26 35 53 53 52 51 54 56 60 63 61 67 68 70 72 73 71 71 71 71 70 65 66 69 65 55 55 54 52 55 51 41 44 49 51 49 53 55 54 56 54 51
27 31 29 30 32 36 36 29 24 45 53 48 47 48 49 53 56 60 62 60 62 67 73 74 71 70 68 66 64 64 70 71 63 62 61 55 52 48 43 49 54 55 53 60 64 68 61 57 65
30 30 34 39 40 44 36 32 28 32 39 37 39 44 45 48 54 54 56 59 61 68 73 79 73 69 69 69 69 69 74 70 62 56 53 51 48 49 52 49 55 58 58 68 81 74 67 60 51
29 35 40 40 50 47 43 41 31 25 27 33 38 40 42 43 46 52 56 61 62 72 75 76 73 70 74 76 72 74 74 74 65 63 67 67 62 60 60 59 60 56 63 66 63 66 62 58 53
34 33 49 47 54 36 45 45 22 24 27 28 29 32 36 42 44 47 49 56 62 69 69 71 73 71 74 76 73 73 74 81 75 70 66 65 63 62 59 58 55 63 73 64 62 62 58 63 61
34 38 34 57 70 58 40 34 25 21 24 34 36 37 38 36 42 47 46 52 60 66 70 74 72 69 73 75 74 75 77 77 78 76 72 71 66 57 64 54 54 74 72 72 67 60 63 65 65
30 33 44 50 53 52 41 42 30 25 23 27 33 35 36 44 44 52 51 52 58 62 64 73 69 68 70 72 77 80 85 83 81 77 70 66 62 55 56 54 71 66 68 64 68 68 64 66 65
37 39 44 42 49 48 48 36 32 29 26 28 26 32 41 41 49 50 53 54 56 61 65 72 70 66 69 76 82 85 85 82 77 74 70 70 66 66 60 64 56 61 60 54 57 57 60 64 61
32 37 41 57 46 57 59 42 26 30 29 30 26 28 35 41 41 54 58 62 66 66 66 69 71 72 75 81 81 82 82 79 78 75 75 72 71 63 58 58 56 50 52 52 52 56 50 56 55

GFSSGP_sfc_rhum_030.txt.gz
RH
46 19 13 14 14 11 11 9 9 13 16 44 45 30 20 39 36 46 60 69 56 51 46 61 88 87 87 86 84 82 79 78 79 77 77 78 77 76 75 74 75 75 74 68 67 70 69 68 73
15 13 14 11 12 12 10 10 14 25 30 39 45 50 46 69 60 80 88 71 57 52 47 48 90 87 86 84 82 80 78 78 78 77 78 77 77 76 76 75 75 76 75 70 68 70 70 73 81
17 16 13 12 10 10 10 13 12 31 38 35 42 53 81 74 66 65 63 71 66 59 53 55 89 87 86 84 82 79 78 79 78 79 78 77 76 76 76 75 71 72 72 69 71 71 71 80 85
13 14 11 12 11 10 10 8 14 24 29 32 38 56 76 87 82 64 67 82 75 66 59 84 89 87 85 83 80 79 80 80 80 80 78 77 76 76 76 76 70 68 68 65 68 66 74 82 84
11 12 12 11 11 9 8 15 37 36 28 38 40 58 63 92 88 71 78 83 84 76 76 80 89 87 84 82 81 81 82 81 80 79 78 78 78 79 80 77 74 71 72 70 69 72 79 82 81
13 12 12 10 10 13 16 27 40 41 42 46 43 50 75 90 92 94 91 92 88 86 81 86 83 84 83 84 84 85 84 83 82 80 79 80 82 82 81 80 81 78 75 78 78 80 79 78 74
15 12 12 17 20 24 35 38 39 42 39 48 43 52 87 94 95 95 96 97 97 96 96 95 92 83 84 91 92 91 88 86 85 85 84 84 84 81 79 78 79 79 76 77 81 82 78 72 71
13 13 14 17 17 22 28 37 41 41 42 45 44 58 91 96 94 94 94 97 96 97 97 96 92 87 86 84 92 92 92 90 90 88 85 85 81 81 79 78 79 82 78 77 80 80 75 71 70
13 13 15 15 14 16 23 34 40 47 48 49 57 54 83 93 88 87 96 96 96 97 97 94 94 90 86 80 76 87 90 91 89 82 83 74 40 38 45 74 81 84 83 80 76 73 74 73 66
14 14 14 11 12 13 20 33 39 44 49 60 79 94 93 87 81 85 90 96 97 97 96 93 93 90 89 85 76 71 71 56 62 60 54 45 53 40 40 66 84 82 80 76 72 66 60 48 25
15 14 13 13 13 12 32 36 39 39 41 47 81 95 93 89 83 84 90 95 95 91 91 91 93 91 85 87 89 64 56 64 61 60 50 52 56 49 45 50 44 44 53 31 35 34 28 34 29
16 14 14 13 15 21 34 39 51 44 56 54 70 86 87 82 85 85 86 95 95 90 84 83 77 82 76 75 85 59 52 51 58 55 55 54 46 50 48 42 40 42 36 42 40 36 42 38 36
18 14 14 15 17 34 33 37 44 64 68 61 73 75 84 83 74 65 67 72 81 83 85 75 68 67 73 58 42 44 52 48 43 44 44 40 42 52 44 44 37 36 36 36 37 37 34 37 35
17 16 17 19 24 35 39 42 41 67 64 69 72 72 88 85 69 59 60 71 70 70 77 72 60 55 47 46 51 44 43 40 42 46 51 52 45 51 45 43 38 37 34 34 33 33 32 31 32
17 20 19 21 31 32 33 35 48 59 53 59 66 56 51 61 55 58 52 63 65 67 66 61 61 56 52 54 57 45 44 42 45 50 62 57 51 53 48 38 40 38 38 40 39 37 36 32 29
17 17 20 24 27 31 30 35 53 61 54 48 47 49 50 54 57 52 48 54 53 53 59 58 54 60 62 63 52 42 43 46 45 52 58 57 47 48 48 42 42 39 39 36 36 35 34 32 28
17 18 20 22 23 28 28 32 41 62 53 40 42 48 44 47 49 47 49 42 49 46 52 53 57 59 67 68 57 48 50 48 51 55 54 57 47 45 45 40 44 45 38 40 37 37 34 32 28
18 17 16 22 22 25 26 29 36 52 51 49 38 39 40 39 44 50 49 48 44 46 50 51 55 60 64 56 50 39 47 53 59 56 50 52 43 46 46 44 50 41 37 39 37 38 32 31 29
19 18 16 16 19 24 23 22 33 44 51 54 46 40 38 38 36 42 46 48 48 50 49 50 53 56 56 53 48 46 53 55 58 55 55 54 46 46 49 44 47 40 38 39 42 36 39 33 34
21 19 18 17 18 21 19 20 28 39 46 45 43 47 40 36 36 40 42 44 48 49 52 51 50 52 53 46 42 43 48 50 57 60 58 54 51 45 47 47 43 41 40 45 42 39 33 31 36
21 19 21 20 20 18 20 19 28 32 39 42 42 38 38 33 36 39 43 45 47 47 49 46 47 48 52 48 41 49 53 57 62 64 66 56 53 45 44 48 43 46 40 38 42 40 38 36 39
22 17 20 22 21 20 20 19 21 24 36 42 41 42 39 34 32 34 42 45 46 47 46 46 45 45 49 51 46 55 50 54 61 71 60 49 54 49 41 44 46 46 34 35 36 34 43 43 49
19 20 20 21 20 24 24 18 19 28 28 27 31 35 36 33 32 34 34 37 42 45 48 50 48 47 48 53 54 52 55 49 50 58 53 54 55 55 42 42 44 42 35 38 38 50 52 48 41
21 23 24 24 23 32 22 20 15 16 16 15 20 24 29 30 31 30 32 34 36 42 48 50 52 48 49 53 58 57 56 56 60 55 55 55 58 60 48 40 44 41 37 46 53 69 65 48 45
21 22 28 30 35 34 28 29 18 14 14 17 18 16 22 27 30 32 33 33 36 41 48 50 51 49 51 54 58 61 61 65 67 64 66 65 54 60 54 48 52 57 58 58 59 73 71 51 45
23 19 29 41 39 23 31 27 16 14 16 17 18 19 19 24 28 30 31 33 35 41 46 50 50 51 49 56 59 60 63 68 67 68 74 73 69 69 55 69 62 50 63 62 80 77 57 51 45
26 27 19 33 46 34 21 20 16 13 13 20 20 22 22 21 21 25 27 31 36 40 47 53 52 53 50 55 60 63 66 67 71 73 73 71 64 53 66 74 63 58 67 75 83 60 51 52 52
24 21 31 32 42 39 24 24 17 15 14 15 14 17 18 23 26 26 27 29 32 37 41 51 50 52 51 54 61 62 65 66 76 76 76 72 64 57 58 63 62 79 80 84 67 51 50 49 52
28 26 27 26 31 34 33 23 16 15 14 15 15 18 20 22 25 32 32 31 32 36 41 47 51 54 52 50 58 65 69 78 82 78 76 69 62 57 59 68 86 78 76 59 59 52 42 61 54
19 21 25 36 34 39 45 27 14 16 15 19 17 18 20 25 26 33 36 38 38 41 42 43 46 46 47 49 56 62 76 76 77 75 74 72 65 69 73 76 68 56 49 47 50 44 47 56 61

GFSSGP_sfc_rhum_033.txt.gz
RH
44 25 12 10 13 10 10 8 6 8 9 18 22 22 13 35 54 53 58 53 43 47 52 70 90 90 89 88 86 83 80 79 80 78 78 78 78 78 78 79 78 75 73 69 65 63 65 68 73
14 10 9 10 12 10 9 6 8 8 15 25 30 37 27 56 55 64 67 65 52 51 52 66 91 89 88 86 83 81 79 79 78 78 79 78 79 78 80 82 80 75 74 69 64 65 68 72 77
16 9 11 12 11 9 12 9 10 10 23 25 26 39 62 69 47 56 60 60 66 56 46 73 90 88 86 84 82 80 81 79 79 80 79 78 77 77 78 82 80 76 75 68 64 68 72 77 83
12 11 9 9 10 8 8 7 9 14 16 21 23 48 57 69 62 64 79 66 66 71 62 87 90 88 85 83 81 82 80 81 81 80 78 78 77 77 76 77 76 77 74 65 66 70 74 82 83
9 9 10 11 9 8 7 6 13 19 18 22 24 43 69 75 75 71 88 74 84 78 73 84 90 87 85 83 82 83 82 84 82 80 79 78 78 79 78 76 76 75 74 70 70 72 76 79 78
11 8 11 10 8 8 9 13 18 25 24 27 27 46 75 86 86 85 86 87 93 82 84 89 87 87 85 84 86 85 85 84 83 82 82 83 84 83 82 79 81 81 78 80 79 80 78 75 73
12 10 11 11 14 33 25 23 24 29 29 27 30 49 85 88 94 95 96 97 98 97 96 93 89 88 92 92 90 89 86 86 86 86 86 84 83 82 80 78 78 80 81 81 80 78 77 70 70
10 10 12 13 14 34 19 22 26 28 27 30 33 42 69 94 93 93 95 97 98 96 95 94 93 94 90 87 92 91 91 91 91 87 85 84 81 81 81 80 78 79 82 82 77 76 73 69 70
9 11 16 12 12 13 14 22 26 30 32 34 55 67 85 88 87 90 94 96 97 98 96 94 93 93 90 86 88 89 91 88 86 80 79 70 51 47 56 79 83 82 85 82 78 76 75 73 67
10 11 12 10 11 12 16 22 28 29 35 46 84 84 91 87 84 84 92 97 97 97 98 94 94 90 85 76 76 75 59 62 53 48 51 40 58 55 49 77 84 83 81 78 75 73 72 62 26
11 14 11 11 12 13 22 24 30 32 70 66 76 91 88 84 85 91 92 91 95 95 96 94 88 90 88 87 91 91 91 79 60 62 52 55 60 63 59 57 56 50 54 32 37 38 30 35 29
12 11 11 11 12 18 24 24 27 36 52 57 75 80 79 78 80 90 95 94 94 91 93 92 84 85 83 86 93 91 83 68 50 50 52 68 58 64 59 47 44 47 36 38 37 37 42 38 36
13 12 11 11 13 23 24 28 30 50 54 60 76 75 70 68 68 75 86 88 88 92 88 80 85 86 81 78 67 62 45 41 44 54 52 50 49 52 42 42 40 38 39 39 39 40 34 35 34
14 12 12 12 15 21 28 30 32 47 45 58 57 69 86 70 58 63 72 84 83 88 88 86 76 68 65 56 60 61 50 44 43 47 45 42 44 53 44 48 40 38 36 36 35 33 32 29 30
13 15 13 14 17 19 29 50 38 45 44 53 61 53 54 78 54 44 59 73 74 69 68 65 66 59 57 49 52 49 45 40 41 38 52 48 41 52 49 41 41 38 37 38 36 35 32 30 26
14 13 22 22 17 19 39 69 40 39 35 39 40 41 42 45 41 40 45 52 57 68 56 46 36 46 53 52 50 44 42 38 34 40 55 53 47 51 50 41 42 39 40 37 34 34 32 31 27
13 16 31 26 14 18 37 74 35 34 32 34 31 33 33 40 39 43 48 51 56 54 50 57 61 52 52 53 49 42 46 46 40 54 66 58 48 46 48 42 43 44 39 38 36 35 34 32 28
16 14 14 23 19 18 22 21 32 34 32 34 29 29 30 32 35 39 40 42 43 50 51 52 56 58 57 58 54 40 36 40 40 53 51 51 44 47 50 42 47 46 40 39 37 39 31 30 29
15 14 15 17 22 17 19 27 23 31 32 36 30 36 29 28 29 40 41 40 42 46 47 46 48 50 50 57 47 38 39 41 48 58 54 51 46 47 51 43 49 48 41 40 43 38 39 32 32
15 15 14 14 13 15 14 17 27 27 31 30 30 33 31 27 27 34 41 39 42 44 45 44 44 45 45 41 38 35 36 36 42 63 53 49 51 46 49 49 49 48 39 44 46 40 35 31 36
15 16 18 16 15 12 14 16 16 18 24 28 27 25 25 27 28 31 35 40 43 43 43 40 41 42 44 41 36 32 34 39 40 50 56 55 54 48 46 50 48 48 42 46 48 44 40 35 39
17 12 17 16 17 21 14 25 18 15 21 26 28 27 25 24 25 26 31 35 39 41 42 41 39 38 39 41 37 39 38 40 43 49 50 55 59 55 45 46 50 49 44 46 45 37 38 41 41
17 17 16 17 18 18 16 16 21 12 18 20 24 27 26 25 23 25 28 30 32 37 40 43 39 37 38 42 44 40 45 43 41 47 58 63 55 56 49 47 53 52 47 45 47 41 44 52 61
14 18 18 18 20 31 20 17 24 14 13 14 16 20 24 23 23 21 22 27 30 33 39 42 40 36 37 41 47 51 50 49 42 52 56 56 58 56 56 48 57 59 60 47 43 48 61 70 60
16 20 28 33 35 35 17 19 16 19 11 12 12 13 18 22 22 21 21 23 26 34 40 40 39 38 39 43 46 52 51 51 52 56 59 55 58 68 71 70 71 72 67 81 82 77 81 80 74
19 19 28 59 59 32 21 22 14 11 11 11 10 11 12 16 21 21 20 22 24 29 36 40 39 41 39 47 47 49 60 59 60 67 65 71 73 84 91 85 70 66 75 73 76 87 88 85 76
19 24 16 24 27 34 24 16 12 12 10 11 12 14 14 14 17 20 20 22 24 26 33 42 40 38 40 42 53 56 60 66 61 66 65 71 74 74 74 62 62 68 75 86 91 90 84 85 66
19 17 27 26 53 47 22 19 17 14 11 11 10 13 13 16 18 18 19 22 22 25 27 40 40 39 38 46 56 57 60 61 68 73 78 77 70 66 59 62 64 64 77 91 90 91 86 69 66
21 24 23 22 26 43 36 23 15 14 13 13 12 12 12 15 19 23 22 21 22 26 29 34 39 41 41 43 50 61 66 75 73 78 78 74 70 62 57 64 66 71 82 86 85 83 64 57 53
16 20 22 37 36 35 40 28 12 13 12 13 12 12 13 16 18 23 26 27 27 28 30 33 38 41 42 44 48 64 81 84 82 83 78 79 76 68 67 60 64 75 80 77 75 73 55 50 59

GFSSGP_sfc_rhum_036.txt.gz
RH
52 28 21 19 17 15 14 10 7 6 9 36 39 38 47 58 36 58 75 86 86 67 75 77 89 90 90 88 86 83 81 81 80 79 79 80 80 81 81 79 78 77 70 64 63 63 62 62 67
21 15 11 12 18 17 11 11 8 8 18 30 28 36 45 73 57 68 72 71 65 61 69 79 91 90 89 87 84 82 81 81 80 80 80 81 81 82 82 80 79 75 70 63 63 63 64 66 75
23 12 13 15 16 15 11 10 11 9 9 17 21 35 54 74 66 60 73 74 67 61 71 84 91 89 88 85 82 81 82 81 81 80 81 80 82 83 82 80 79 75 70 64 63 65 68 74 80
17 13 12 14 10 8 8 8 7 9 11 12 24 66 56 61 58 56 61 77 90 85 78 91 90 88 86 84 83 83 82 83 82 81 80 79 82 83 83 81 78 75 70 65 64 67 72 81 76
11 11 15 13 11 7 6 6 7 13 15 30 19 79 70 66 62 74 67 84 86 96 88 90 89 87 85 84 84 84 85 85 83 82 80 79 79 82 83 82 79 74 74 68 68 71 76 78 75
16 12 13 12 10 23 28 36 12 16 18 18 55 59 68 88 90 95 90 93 94 98 94 92 88 86 86 86 86 88 88 86 85 84 82 83 82 83 84 82 79 79 80 81 80 80 78 76 73
15 13 14 11 16 33 43 53 42 23 20 76 81 81 76 94 96 96 98 94 91 95 98 95 92 88 90 90 90 89 87 88 89 89 87 86 84 82 84 84 82 83 82 81 80 79 77 73 68
10 12 13 14 13 18 38 42 33 29 49 79 65 81 80 96 95 94 96 97 98 95 98 97 94 91 91 88 91 91 90 91 88 87 87 86 83 82 82 82 82 83 82 80 78 77 75 70 66
8 14 15 16 13 14 10 17 54 50 59 52 70 86 94 90 84 91 95 96 98 98 97 96 97 90 89 87 84 84 89 87 85 81 80 70 63 63 64 82 86 86 84 81 79 77 74 69 61
11 14 16 10 12 14 12 18 25 47 51 67 58 82 88 83 85 92 96 98 98 98 98 96 96 94 90 84 83 86 74 67 64 65 67 62 72 70 72 82 86 86 84 80 76 74 73 64 46
10 13 12 10 12 12 15 21 25 47 68 67 76 84 90 89 90 90 92 96 97 97 97 92 92 90 89 89 90 93 91 86 73 72 66 73 70 74 80 79 75 79 71 53 60 67 59 56 54
11 10 10 10 11 13 21 23 26 49 49 60 74 76 73 81 94 93 92 94 95 96 94 92 89 90 89 83 82 81 88 93 83 68 72 78 77 76 74 72 71 66 61 56 59 67 58 52 49
11 10 10 10 11 15 18 25 34 54 69 66 67 64 67 82 89 89 89 91 93 96 93 90 86 90 89 87 87 83 95 92 69 68 69 70 72 79 74 70 63 62 63 63 65 60 54 52 48
13 13 12 10 11 16 23 34 41 49 55 65 62 70 73 72 82 86 87 91 89 92 94 91 93 91 90 94 88 92 90 87 69 69 70 68 71 72 69 69 65 64 60 61 61 59 53 54 50
12 14 12 12 12 18 25 31 46 44 46 54 56 59 59 64 64 71 80 86 87 86 84 91 94 92 91 88 85 88 76 44 53 64 66 65 60 69 70 66 69 66 62 59 60 51 53 50 41
14 13 17 16 16 28 35 66 38 40 47 51 46 50 48 54 55 65 69 75 76 73 77 75 72 81 80 67 57 68 56 58 58 62 72 66 60 68 73 70 68 63 64 61 60 59 56 53 51
15 16 18 21 16 30 40 66 43 43 34 42 41 40 48 56 42 53 61 65 61 60 63 65 70 65 62 54 51 59 63 68 62 61 72 72 65 64 72 65 67 65 64 67 59 61 58 55 50
18 20 17 23 18 18 45 63 68 64 30 32 31 35 37 45 46 49 54 56 58 53 50 49 52 56 60 56 47 55 55 63 64 67 69 72 66 67 72 68 70 65 67 66 62 61 52 57 54
13 18 21 17 18 19 22 54 72 70 30 32 29 30 31 33 46 49 51 59 59 58 56 56 61 61 58 63 64 64 57 55 56 78 67 75 68 66 72 71 73 70 69 66 67 62 56 55 52
13 14 17 15 16 16 13 32 60 70 34 28 29 36 30 31 40 47 50 53 62 61 60 63 64 62 57 60 63 59 53 51 53 73 72 82 80 62 69 74 70 72 70 69 70 64 66 62 61
14 16 15 16 19 15 14 14 41 39 26 27 26 32 30 28 39 44 48 52 54 62 61 56 58 62 63 61 57 52 52 52 49 69 74 72 68 63 64 72 73 76 74 75 75 69 65 64 66
17 12 15 19 19 20 17 27 22 22 23 27 26 28 29 29 29 38 44 48 52 55 55 50 48 49 51 53 49 52 46 46 51 65 67 66 72 71 67 67 72 74 70 72 75 66 65 64 70
16 16 18 17 17 21 20 23 16 16 18 23 28 28 28 28 29 32 37 42 45 49 53 52 48 47 48 52 55 54 52 50 50 64 68 73 78 76 79 71 74 72 71 67 65 62 61 64 76
12 17 20 20 20 35 26 20 18 17 17 17 21 26 26 26 28 28 31 34 40 45 51 54 50 46 46 51 54 62 66 59 60 66 70 75 76 77 79 71 76 79 85 91 91 88 70 78 81
15 21 31 34 36 44 22 21 22 18 23 29 24 28 45 26 28 28 29 31 35 42 50 52 51 49 48 52 56 58 63 62 64 66 74 76 80 80 85 78 81 85 91 92 93 86 86 89 89
19 20 36 51 60 44 45 32 16 16 15 12 13 27 31 26 27 27 25 31 33 39 45 48 46 48 45 50 54 59 58 63 72 74 85 85 85 83 84 84 86 90 89 84 82 87 93 93 96
20 25 18 28 42 63 73 32 13 13 13 11 11 13 19 17 25 25 24 25 32 38 44 50 45 44 44 48 53 58 68 80 92 88 85 91 88 80 85 90 90 84 82 82 88 91 94 96 96
17 15 35 30 49 58 32 28 22 22 14 11 13 14 16 18 21 24 24 26 28 31 37 49 47 43 44 48 55 62 82 81 86 81 85 92 88 82 89 88 82 80 81 86 88 93 93 95 91
19 23 28 31 31 57 53 33 24 25 15 15 14 15 17 20 24 26 27 27 28 29 28 44 46 44 45 46 58 73 83 88 84 79 92 90 86 87 82 78 80 77 77 84 86 89 90 90 84
16 21 22 41 38 40 63 37 18 22 18 17 16 15 16 18 21 25 29 30 30 32 34 43 45 44 47 55 76 79 79 82 89 92 88 89 86 84 75 74 73 74 83 85 88 90 80 83 83

GFSSGP_sfc_rhum_039.txt.gz
RH
74 44 50 38 41 34 32 23 16 16 28 42 42 38 58 72 79 83 80 87 83 78 93 85 91 90 89 86 84 82 81 79 80 82 82 82 82 81 83 77 74 72 69 61 57 56 61 65 69
48 26 36 32 33 41 30 17 16 16 35 42 37 38 56 75 62 81 88 79 72 66 85 83 91 90 88 85 83 83 80 79 81 82 82 82 82 82 82 76 75 73 68 59 55 56 64 69 75
50 26 30 29 36 33 27 15 13 10 13 20 63 59 72 79 63 77 75 86 73 77 77 82 87 89 86 84 84 82 81 82 83 82 82 82 82 82 82 77 75 73 67 58 55 61 67 72 75
32 28 26 29 28 20 21 26 31 11 14 40 59 73 66 73 74 71 71 77 96 92 91 93 87 88 85 84 84 84 84 84 84 83 84 83 83 82 81 78 75 72 65 58 59 63 67 75 74
34 27 33 36 27 19 33 36 35 44 44 58 55 81 72 90 83 88 75 84 95 94 95 98 92 85 85 86 85 86 86 85 84 84 86 85 83 83 82 78 76 73 70 65 64 65 72 72 70
28 26 34 30 20 28 30 37 28 61 70 64 59 61 82 94 89 96 94 97 91 94 89 89 96 88 88 89 90 88 87 86 85 84 85 86 86 86 82 80 80 79 80 79 76 76 73 69 68
29 31 31 23 17 32 36 39 37 70 72 80 70 70 79 92 97 97 95 94 96 97 96 96 97 92 88 87 93 90 88 89 90 88 87 88 89 86 83 84 84 83 82 80 78 76 70 66 65
23 23 23 21 22 34 37 37 41 55 84 71 74 82 88 97 96 96 96 98 96 97 98 99 99 97 94 90 93 92 91 90 88 87 87 87 89 88 86 84 83 82 81 79 76 73 66 60 58
20 24 27 19 19 21 23 32 54 58 68 63 79 80 88 94 90 93 97 98 96 98 98 98 98 96 89 84 91 89 87 86 84 81 79 77 77 76 78 86 84 82 82 78 75 71 67 63 58
20 28 22 15 20 20 19 31 56 50 59 64 91 93 94 92 91 95 97 98 98 98 99 96 95 95 90 91 95 90 80 73 67 62 69 69 83 77 81 86 86 84 80 77 75 71 68 58 49
18 22 15 14 18 19 31 38 46 58 61 65 78 94 94 92 91 96 97 97 98 98 98 96 96 94 94 92 92 94 87 88 72 75 67 77 84 84 86 88 86 84 76 65 68 67 56 58 58
18 14 13 14 17 20 30 41 67 61 70 62 85 87 89 91 92 96 96 97 97 97 95 92 91 92 90 80 87 94 92 92 87 81 72 74 78 81 78 77 76 69 66 55 59 67 64 56 50
16 14 13 15 14 22 35 55 76 92 82 78 80 76 88 90 90 91 92 94 94 96 94 92 89 87 85 81 88 93 92 91 87 78 76 76 80 77 73 76 69 67 64 57 70 60 55 53 51
18 17 17 16 15 25 36 52 62 82 80 81 69 82 88 89 88 92 91 96 95 94 94 93 90 87 84 87 85 95 89 82 85 87 75 75 77 82 79 86 71 68 67 68 64 60 59 56 49
20 22 18 16 15 32 28 40 67 66 74 74 75 77 83 87 85 86 87 91 90 94 92 93 92 89 87 83 85 94 90 74 75 64 73 71 76 80 87 86 76 72 66 64 67 63 61 60 51
24 23 28 18 31 37 30 55 50 58 59 72 73 64 76 80 80 85 81 83 84 90 87 84 80 88 85 86 87 88 83 67 54 47 74 71 65 70 76 70 73 71 71 64 60 62 58 55 52
31 32 25 20 21 42 44 61 48 61 64 61 63 57 62 74 84 82 82 80 80 86 82 76 81 83 80 75 79 76 67 53 44 48 76 76 71 70 77 74 78 71 67 69 62 65 62 61 59
35 28 43 33 27 40 61 66 50 50 75 62 58 63 66 68 82 78 82 77 75 80 79 79 79 74 71 66 64 64 68 63 58 73 86 74 75 75 80 77 76 70 69 71 70 65 64 59 54
21 21 24 27 25 33 50 66 47 42 69 59 52 54 65 60 74 71 74 72 71 73 74 78 77 72 66 59 63 66 66 69 76 80 80 84 78 82 87 83 78 67 73 72 67 70 55 57 59
22 23 22 19 23 27 50 59 48 54 63 49 44 52 59 58 64 68 70 71 69 62 59 62 62 60 61 53 50 56 74 70 70 74 86 84 85 84 84 86 78 75 76 78 76 64 68 62 63
22 23 22 26 24 20 26 75 71 58 54 48 39 37 48 61 65 64 72 72 65 62 58 51 51 60 54 55 52 67 82 68 72 84 84 83 82 67 82 84 81 80 81 84 81 71 62 66 74
24 17 18 21 30 37 22 42 70 58 49 47 40 41 45 61 58 58 66 74 67 65 63 61 62 67 59 59 64 71 70 64 56 76 84 86 84 84 81 84 80 79 82 82 78 67 66 68 66
22 22 30 30 35 35 28 38 32 46 52 44 44 42 44 48 57 55 58 65 66 61 64 65 66 66 60 60 64 70 67 62 57 76 80 77 86 79 84 89 89 85 83 80 75 73 75 87 92
17 26 29 32 35 53 33 38 42 48 42 38 39 39 40 40 46 51 50 53 60 63 62 62 62 64 63 64 67 65 72 63 61 65 85 85 84 89 91 83 90 89 85 86 87 86 88 93 87
22 29 47 52 59 60 44 46 40 28 29 25 34 34 38 36 38 46 49 51 54 58 61 59 57 56 55 57 59 60 68 71 61 68 88 91 94 97 94 92 93 88 88 88 86 93 93 90 92
24 28 58 57 76 56 48 49 37 29 32 24 28 29 31 37 34 37 43 46 48 52 55 58 57 56 53 55 57 57 65 64 60 81 93 94 92 93 96 90 90 89 94 96 95 95 94 92 93
24 34 26 43 64 70 70 46 36 27 25 25 25 32 36 38 39 34 36 40 43 48 51 55 55 53 52 57 57 60 61 69 86 86 89 89 91 95 95 92 91 96 96 95 94 93 92 92 94
22 24 41 49 74 77 63 58 46 29 24 20 20 29 31 34 35 34 34 36 37 39 44 51 50 52 51 52 57 63 71 70 84 83 90 93 96 94 96 97 96 96 95 93 89 90 92 92 96
29 28 38 41 56 71 71 53 36 35 28 22 16 21 25 28 32 36 44 40 36 34 38 48 50 67 67 68 61 64 80 79 76 90 96 97 96 93 94 95 95 91 92 90 86 89 92 90 93
22 25 30 68 58 59 75 49 29 29 30 22 19 18 24 31 32 32 35 37 40 45 41 47 52 66 70 70 69 77 93 95 98 97 98 98 92 91 92 92 89 85 85 88 88 90 87 89 92

GFSSGP_sfc_rhum_042.txt.gz
RH
71 49 50 40 39 40 41 28 24 19 24 46 45 50 74 76 72 76 94 89 91 95 92 94 94 89 86 83 82 81 80 82 84 84 82 84 80 79 78 76 73 69 65 64 65 67 69 71 74
50 28 39 41 37 45 36 26 19 18 34 45 51 59 71 79 68 85 88 84 78 89 92 90 95 90 85 83 82 80 81 82 84 83 83 85 80 79 78 76 72 68 64 61 63 66 65 65 73
43 29 31 36 43 42 35 24 30 41 48 53 64 68 79 85 72 81 74 92 84 74 80 88 93 92 85 84 81 80 82 83 84 83 84 85 80 79 78 75 72 67 63 61 64 63 63 68 75
35 31 31 33 34 28 23 20 37 56 56 51 63 70 76 91 90 89 75 90 93 86 86 90 90 91 90 89 84 83 84 84 84 83 84 84 79 79 78 75 71 66 62 62 61 61 65 71 76
38 32 34 44 32 25 19 34 54 65 60 58 58 76 80 87 90 92 84 86 96 96 92 88 93 92 90 87 86 86 87 86 84 84 84 84 80 80 78 75 72 69 67 61 60 64 70 71 76
36 32 40 45 32 21 24 37 61 58 56 58 57 67 84 88 94 95 97 94 93 96 96 96 95 96 89 86 88 89 88 89 88 86 85 85 83 82 80 78 78 78 77 74 72 71 70 67 72
34 35 41 34 24 26 36 42 62 65 63 70 63 65 76 90 95 96 95 98 98 98 96 96 92 85 96 86 90 90 90 90 90 88 88 89 85 85 83 83 82 79 77 73 70 68 67 67 69
29 31 40 28 23 26 34 41 58 61 75 67 68 75 85 92 96 96 95 97 97 98 98 97 98 95 91 90 92 93 92 92 91 92 92 89 88 87 86 83 80 79 76 73 69 66 69 69 71
22 30 31 25 23 22 31 42 68 64 62 70 78 85 94 94 91 96 98 98 98 98 96 95 97 96 96 90 92 90 89 88 89 90 90 89 88 84 82 82 81 79 77 73 70 70 69 66 71
25 31 24 19 20 22 39 48 64 59 66 84 88 93 95 92 90 97 97 98 96 98 98 95 95 99 95 92 92 89 81 76 76 76 80 81 87 83 81 81 80 77 78 75 71 69 66 61 56
25 25 18 15 17 23 60 61 55 54 64 74 86 94 94 93 95 97 98 94 98 98 98 94 94 94 93 95 94 92 79 84 75 70 73 76 84 86 92 85 87 84 78 71 65 58 59 54 54
24 17 16 15 19 26 43 61 77 68 70 70 87 88 90 92 94 97 97 98 98 98 98 93 92 92 90 86 87 87 74 86 83 88 80 78 82 87 88 79 82 75 71 63 62 65 60 54 48
26 18 16 17 22 52 50 69 86 90 89 86 83 86 89 88 91 91 93 96 97 97 96 96 90 92 90 84 92 92 90 91 86 77 73 74 74 82 82 79 73 69 66 61 71 65 58 54 49
26 25 23 17 19 56 76 86 74 86 87 92 83 95 92 90 92 94 94 96 95 96 95 92 90 89 92 89 86 91 90 85 86 88 76 76 77 81 78 83 72 70 69 62 70 62 60 53 46
24 25 22 20 21 38 44 56 77 83 84 86 92 94 96 88 87 90 90 93 91 94 94 91 91 88 86 84 81 90 88 74 70 74 82 83 82 86 87 92 82 73 70 71 68 66 65 59 48
27 28 32 21 36 37 37 53 64 83 81 87 92 89 93 96 88 83 85 88 92 95 93 90 84 87 79 79 68 75 84 73 63 64 80 77 78 83 88 86 84 79 77 74 72 68 65 63 54
40 38 34 26 25 40 45 55 52 72 73 81 81 89 93 96 95 86 79 84 85 85 88 92 88 85 76 77 74 78 76 63 58 59 72 78 75 78 82 78 83 79 78 73 67 68 65 62 60
39 36 36 32 40 45 56 53 61 67 68 69 82 71 89 90 94 86 80 82 83 84 78 78 76 77 76 78 80 80 75 63 57 68 78 77 80 78 85 81 82 79 75 74 70 67 72 65 62
30 31 31 24 28 42 52 54 59 73 80 76 76 72 71 87 86 87 88 83 82 87 82 80 81 82 79 73 78 78 78 77 76 75 76 86 80 84 87 86 87 79 67 68 70 72 64 68 67
30 32 30 23 26 33 56 56 61 69 74 80 64 70 72 80 89 87 92 86 85 88 85 81 80 80 74 72 71 72 69 76 76 72 81 87 89 87 87 88 86 76 76 78 77 70 70 64 69
30 32 31 24 26 32 53 58 58 50 63 58 60 54 64 80 89 83 87 86 83 85 84 81 78 75 70 66 63 70 75 82 77 72 74 80 89 87 86 89 85 78 75 79 80 72 64 67 75
34 27 24 23 33 37 32 47 74 55 58 54 56 52 67 74 76 77 79 84 81 77 74 72 74 70 67 63 59 59 60 64 62 66 66 85 89 86 84 88 85 81 81 86 86 74 70 66 68
32 28 26 29 35 40 35 40 36 57 57 53 58 48 57 65 72 76 77 77 73 65 64 61 65 60 59 61 58 58 59 59 76 75 71 79 90 83 80 87 91 86 87 92 91 83 77 85 88
23 28 31 35 41 55 38 42 49 66 46 43 48 42 56 63 65 67 70 70 68 62 58 57 55 54 62 58 61 63 69 72 77 75 72 72 80 90 91 89 92 91 92 94 92 90 86 91 88
27 35 50 53 61 62 41 51 46 37 39 41 44 44 42 60 63 64 70 74 67 64 62 60 59 61 63 66 63 63 69 79 72 68 75 80 93 97 95 92 95 95 92 93 93 89 90 93 90
32 34 57 60 76 50 55 52 40 29 33 32 33 38 40 45 56 59 61 68 69 63 62 63 63 65 63 66 64 63 68 70 74 68 75 86 85 87 94 95 93 93 92 92 91 89 91 91 94
32 39 32 45 68 73 60 49 36 32 30 31 32 35 38 42 44 53 54 58 63 67 65 63 63 64 63 64 64 65 67 73 76 77 83 86 85 88 95 95 97 96 95 94 94 95 92 92 93
24 24 42 56 62 73 62 58 47 35 26 31 33 40 38 42 39 42 49 53 55 57 62 64 61 61 60 61 63 64 67 69 74 80 86 93 98 97 97 98 97 96 96 96 95 95 93 91 94
32 34 43 43 63 69 72 59 47 37 32 30 26 23 32 38 41 40 41 46 48 50 56 65 64 65 65 69 67 66 70 71 80 91 92 97 97 98 98 97 96 96 95 94 91 91 92 90 93
26 27 34 54 60 69 76 49 34 34 37 30 24 18 27 29 33 36 41 42 45 46 48 54 61 65 65 66 71 82 91 95 96 98 98 99 98 98 97 96 96 91 90 91 90 92 91 91 90

GFSSGP_sfc_rhum_045.txt.gz
RH
77 70 55 38 35 45 53 33 28 27 26 54 60 76 89 90 87 69 90 91 92 87 88 86 88 88 85 83 82 83 83 83 84 83 82 83 81 80 77 74 74 74 73 68 69 70 71 72 77
50 39 36 37 39 45 35 30 34 64 58 55 65 71 75 88 77 87 89 85 84 89 90 88 89 88 85 85 83 83 84 83 84 83 82 82 80 78 75 72 74 75 73 68 68 68 71 74 77
40 27 31 41 46 42 37 26 37 48 53 61 72 75 81 87 78 82 79 82 79 84 91 87 90 87 84 84 84 84 83 83 85 82 81 80 79 77 74 71 72 73 70 65 61 59 64 79 82
36 32 33 36 38 30 27 23 48 56 49 56 67 71 90 84 84 89 76 92 90 88 86 89 89 88 87 86 85 84 85 84 86 82 80 79 78 76 74 70 71 73 67 60 59 69 75 82 81
39 33 36 45 36 29 24 32 57 66 59 56 62 68 88 96 92 91 92 92 95 92 88 89 92 84 84 85 85 86 87 86 86 82 80 79 78 77 74 72 73 71 67 61 70 80 81 81 80
37 35 44 47 35 26 23 43 62 63 57 59 61 73 92 96 95 92 97 94 96 98 93 88 84 86 88 84 86 87 87 86 86 82 81 81 79 78 76 77 76 74 71 69 72 79 79 80 78
35 40 45 43 32 26 35 48 60 64 66 70 68 73 94 94 93 93 98 98 98 97 97 89 87 90 90 87 89 85 88 85 86 84 84 84 83 81 80 77 74 70 70 68 68 70 77 78 78
32 35 50 35 27 25 39 46 64 66 66 72 73 78 92 96 95 96 96 98 99 98 98 98 97 96 93 96 91 87 88 89 89 88 89 88 85 83 80 76 73 71 70 71 70 74 78 79 79
28 35 39 30 26 24 39 53 77 68 71 78 87 93 94 94 93 95 97 98 98 98 97 98 98 97 93 89 88 82 91 94 94 91 91 90 87 86 84 78 75 74 73 71 70 71 80 80 79
30 36 28 22 22 26 40 52 66 70 69 87 93 89 92 92 93 98 98 98 98 98 98 93 96 99 92 88 91 80 85 81 88 86 91 93 91 86 76 75 76 78 74 72 73 70 69 66 76
28 30 24 18 18 28 61 68 58 58 65 72 86 98 94 94 95 97 98 98 98 97 96 94 91 96 96 96 96 97 98 97 90 86 84 86 89 90 86 92 90 85 70 66 59 64 54 54 67
27 20 21 20 20 50 61 65 76 72 66 68 81 93 97 97 95 97 98 99 98 98 97 95 93 93 92 94 94 94 95 93 88 84 81 88 91 97 94 83 82 76 74 65 67 70 61 54 62
26 25 24 22 24 52 57 71 76 92 88 89 93 94 95 96 94 93 94 96 98 98 97 93 91 94 93 88 93 94 87 87 88 81 80 82 86 88 90 85 78 71 68 67 73 66 59 54 55
28 28 27 24 46 64 69 85 85 88 92 94 95 97 92 91 93 94 94 97 97 97 98 95 91 86 92 95 90 92 93 82 82 94 83 81 79 82 79 85 72 72 63 74 71 66 63 56 51
29 28 26 23 32 54 64 77 91 88 94 95 97 87 85 82 88 89 90 92 94 96 95 95 96 95 97 94 90 93 86 75 77 82 86 79 77 83 85 87 77 70 68 73 72 70 66 57 48
30 35 34 28 38 45 43 52 63 93 96 97 98 99 91 84 78 85 86 89 88 95 95 90 87 91 90 89 82 82 83 76 74 78 82 79 73 78 85 84 77 76 77 77 75 73 72 65 55
40 36 37 30 26 42 45 50 59 94 90 95 97 97 96 93 92 89 83 88 91 90 95 92 91 94 94 83 82 83 77 67 65 75 83 84 80 79 85 88 85 82 81 82 74 75 71 69 62
37 41 55 36 30 48 56 47 64 94 90 88 93 95 96 98 89 86 82 85 86 88 88 89 86 86 86 79 84 87 87 68 64 66 78 81 83 85 91 88 89 84 82 80 78 72 74 69 65
34 38 38 32 26 40 48 52 56 80 89 88 91 88 94 96 95 94 74 83 86 84 83 84 86 89 87 81 76 80 81 71 68 71 68 80 82 86 91 90 90 87 80 74 72 74 71 72 68
37 39 38 31 26 33 44 55 58 77 83 80 75 83 76 92 98 96 94 89 94 90 83 79 77 80 75 70 66 68 77 74 70 70 79 83 85 85 90 89 92 88 81 80 78 72 72 70 71
38 40 38 34 29 46 56 50 66 55 70 77 74 66 67 78 96 96 92 93 97 97 93 84 76 77 73 70 81 73 72 76 78 79 85 83 89 90 90 91 92 90 85 82 81 78 68 69 74
42 32 32 36 37 42 38 52 40 61 63 67 67 71 68 72 83 90 95 95 96 96 92 84 80 77 73 79 78 78 69 66 64 71 76 79 88 92 92 92 91 90 88 88 81 77 74 72 71
37 35 36 37 37 42 39 42 35 64 64 61 60 64 64 70 76 86 88 90 89 89 90 86 82 80 75 73 73 74 75 72 70 82 83 84 89 91 93 93 94 93 91 90 92 93 90 88 90
30 36 35 44 46 58 39 41 46 58 48 48 48 52 56 65 72 72 75 80 87 85 84 83 82 79 74 73 72 70 73 71 70 74 78 78 87 94 94 92 94 94 94 93 92 92 92 86 92
36 41 55 54 64 60 40 57 48 34 41 44 45 48 53 62 71 73 76 81 82 83 80 76 75 76 71 72 70 68 64 70 65 70 77 85 88 94 93 94 95 95 94 96 96 95 93 90 88
40 39 61 59 73 49 56 60 42 35 31 33 40 38 49 57 65 71 72 74 76 76 71 69 67 69 67 67 66 66 66 64 65 68 78 88 85 85 91 94 92 91 97 98 98 97 96 94 93
41 44 35 48 71 73 59 50 37 36 33 35 38 49 52 56 64 66 66 71 72 70 68 65 62 60 60 61 67 65 66 69 71 76 84 87 84 86 92 94 93 95 98 96 97 97 96 94 90
30 32 45 60 62 74 61 65 48 36 27 31 36 38 48 47 56 61 63 66 70 67 64 67 58 56 56 57 60 68 71 69 72 81 91 90 88 96 99 99 98 99 99 97 98 98 94 91 93
37 41 45 43 61 51 54 54 50 35 35 32 32 34 48 50 49 52 59 59 63 65 63 65 65 62 63 67 69 70 71 72 78 82 80 90 97 97 98 98 99 99 99 99 97 96 95 90 95
36 36 40 49 53 74 74 41 33 39 38 41 37 30 30 45 45 45 48 55 59 62 65 67 68 65 66 70 72 77 76 78 83 88 90 95 95 98 98 98 99 98 98 97 95 95 94 92 96

GFSSGP_sfc_rhum_048.txt.gz
RH
77 76 56 34 32 43 56 37 34 30 39 70 74 80 83 84 64 62 94 95 92 92 89 83 90 87 85 83 83 82 81 83 83 82 83 82 81 78 77 77 76 74 72 67 68 70 71 72 73
51 47 36 36 37 43 34 33 28 49 61 59 65 79 78 83 82 94 94 88 86 87 87 87 89 87 86 86 85 84 84 84 83 83 82 82 79 77 78 77 76 75 73 67 69 72 74 75 79
42 28 31 40 48 42 37 28 24 48 56 66 74 80 85 82 80 87 83 88 89 92 93 89 87 85 86 87 86 85 85 85 83 84 81 80 77 77 78 78 77 75 72 67 69 72 75 80 83
38 33 33 38 41 33 29 26 25 53 52 58 73 68 91 88 84 90 81 92 91 93 92 93 88 87 84 84 87 85 86 85 84 83 81 79 76 77 78 77 75 72 65 61 65 74 81 83 83
36 33 37 49 41 32 27 24 45 58 63 59 67 69 86 89 93 95 93 92 93 92 94 94 89 84 82 80 82 85 86 87 84 82 80 77 75 75 77 76 73 68 67 68 76 80 83 83 82
36 37 43 44 37 28 25 34 59 62 62 60 64 76 93 92 90 92 95 92 96 94 94 95 88 86 85 81 80 85 81 85 83 82 80 77 76 76 78 74 72 75 82 82 84 83 82 81 79
36 41 49 47 36 29 31 57 62 66 67 71 73 76 90 91 94 93 96 96 97 98 97 95 90 86 87 84 83 83 79 84 85 83 81 80 80 79 78 74 73 78 83 82 81 80 79 79 79
37 37 54 41 33 26 30 52 69 67 60 76 73 78 88 94 95 96 96 97 98 99 98 97 95 94 93 89 79 80 75 73 87 86 87 87 83 78 72 71 71 72 75 78 80 80 79 79 80
32 37 42 35 30 24 46 54 75 72 76 85 92 93 88 85 93 94 98 99 99 98 99 96 96 93 94 87 86 82 75 80 87 89 91 89 92 84 79 71 73 72 74 78 80 81 81 80 80
32 39 32 26 23 23 34 45 57 73 70 84 97 88 90 92 93 97 98 98 98 99 99 99 98 98 93 90 83 81 83 82 86 89 91 95 91 85 73 73 71 72 76 79 83 84 82 82 82
32 32 27 22 20 22 32 67 68 72 64 67 86 95 96 94 95 97 97 98 98 98 98 97 98 96 97 97 92 94 91 82 88 95 88 94 89 90 95 88 81 77 70 64 67 69 72 82 80
29 24 23 21 24 36 64 68 73 61 65 69 80 94 90 94 96 97 98 98 97 97 94 95 92 94 94 98 97 94 96 91 92 95 86 87 92 90 88 84 82 76 71 69 64 65 70 75 77
26 26 27 25 27 34 60 68 71 84 87 89 95 96 98 89 92 93 95 97 98 96 96 95 91 88 87 91 96 97 97 95 97 91 82 89 84 81 81 83 77 72 69 68 66 61 62 72 73
28 30 29 28 26 67 66 85 88 80 91 94 98 84 96 94 89 93 95 98 98 97 96 97 93 91 91 91 89 92 91 94 97 95 90 82 82 81 79 84 72 69 67 72 63 57 60 66 66
31 31 28 26 29 60 69 64 87 85 94 95 99 82 81 88 88 85 88 93 95 96 94 96 95 91 91 90 90 92 89 88 91 92 86 82 80 80 84 85 73 68 74 70 68 66 62 62 57
34 35 37 29 44 48 49 49 55 96 96 97 96 83 80 83 76 93 94 88 90 95 97 94 94 98 97 95 95 91 87 79 80 89 83 76 77 80 82 76 73 74 77 75 70 69 64 62 60
40 39 37 30 29 46 51 52 69 96 96 96 98 94 85 81 79 83 92 88 88 92 96 97 95 94 98 95 94 84 82 79 82 88 84 81 77 78 76 74 78 76 77 81 71 76 68 64 60
44 46 53 38 35 50 56 54 60 98 98 95 95 97 97 88 83 77 93 92 87 90 90 94 91 94 95 94 91 90 87 69 74 79 83 79 78 81 84 83 84 82 82 85 78 76 75 69 64
34 41 42 35 31 33 34 39 32 92 99 98 95 95 96 98 92 78 82 87 89 90 90 90 94 94 94 96 93 87 89 77 69 73 78 86 81 87 91 91 93 91 87 86 83 78 74 75 71
38 41 40 33 31 32 39 42 54 80 92 92 91 93 91 96 97 92 77 88 89 89 88 89 88 94 92 94 93 80 84 74 68 70 78 85 85 85 91 94 95 94 93 88 85 78 79 74 71
42 43 42 36 38 38 57 47 56 58 78 86 84 77 80 84 98 92 85 84 89 89 85 84 82 83 86 83 81 76 74 74 74 74 78 79 83 84 90 91 93 94 90 89 87 81 74 76 79
45 38 36 39 44 50 46 58 39 44 60 76 74 84 76 74 86 96 87 83 88 88 82 80 79 80 75 70 72 70 67 64 62 65 70 72 78 84 90 93 94 94 93 91 87 82 78 77 77
38 37 39 41 48 49 45 50 38 64 50 56 63 70 76 72 77 94 96 90 85 90 93 92 84 79 74 75 73 78 74 68 71 79 77 78 87 85 90 93 94 95 95 93 93 92 88 88 90
34 40 44 50 53 66 47 45 45 46 44 40 48 56 62 73 73 81 87 92 97 97 97 96 90 86 80 79 80 80 77 76 76 79 79 78 88 94 92 93 95 96 96 95 94 94 93 92 92
39 45 59 59 70 69 45 51 40 33 34 38 35 45 55 65 72 82 92 95 97 98 97 96 92 88 82 81 79 78 76 78 72 70 72 75 88 91 93 95 96 97 96 96 96 97 96 95 92
46 45 66 63 74 52 57 61 44 37 32 34 38 42 49 64 66 76 83 85 90 91 93 90 89 87 83 81 79 76 74 74 73 73 77 88 90 93 91 94 95 94 94 96 97 98 97 97 96
46 51 39 52 72 74 58 48 38 37 38 38 36 36 49 63 71 73 75 80 83 85 85 86 83 82 80 80 78 77 75 74 75 79 87 93 94 93 92 93 94 95 96 96 98 98 99 99 98
36 36 52 64 61 69 62 70 47 41 35 32 31 34 46 60 68 71 73 74 76 77 77 79 76 75 74 75 74 74 76 78 79 88 88 91 92 92 92 94 96 96 96 97 98 97 96 97 97
42 46 48 49 64 64 65 55 50 34 33 32 31 32 39 58 59 67 70 70 70 72 73 75 74 72 73 74 76 76 78 77 85 82 85 90 90 89 91 93 95 97 98 98 98 99 99 98 98
38 43 46 65 55 77 78 48 33 42 37 42 39 35 37 48 54 58 64 68 72 74 72 72 73 69 68 69 71 76 75 78 79 78 76 77 76 89 88 91 95 95 96 98 98 99 98 98 98

GFSSGP_sfc_rhum_054.txt.gz
RH
42 24 19 17 16 13 13 13 13 14 17 21 34 36 28 28 31 36 53 68 67 52 56 63 90 91 90 87 88 89 87 86 85 84 85 84 85 84 83 81 78 76 74 69 64 65 67 72 74
19 21 17 13 14 12 13 14 15 13 16 28 35 34 36 35 42 48 54 62 66 48 52 54 92 90 90 89 88 88 87 86 84 85 85 84 82 81 80 78 76 73 71 65 65 66 66 71 77
18 16 13 13 12 11 12 13 13 13 17 27 30 36 40 38 46 52 56 62 76 52 47 47 90 91 88 90 89 88 86 85 85 85 84 82 81 80 78 76 74 73 69 63 65 69 74 78 82
14 13 13 14 13 13 12 12 12 13 19 23 25 31 38 45 50 56 57 59 85 77 50 71 91 90 88 88 88 87 87 86 85 84 82 82 81 80 78 76 74 73 71 66 68 73 78 82 82
14 12 12 14 13 14 13 12 13 14 22 26 30 28 35 48 52 58 60 58 75 92 63 62 92 90 81 77 88 88 88 87 85 83 82 81 81 80 80 76 75 75 75 71 72 77 79 80 81
13 13 12 10 13 14 13 13 14 19 20 25 30 30 32 52 52 57 69 62 68 89 74 69 82 84 80 79 85 89 87 84 84 82 82 82 81 81 79 78 78 78 79 80 81 82 80 79 78
14 13 11 11 14 15 15 19 19 18 22 22 35 37 33 45 51 56 62 67 69 88 95 81 82 66 82 81 88 90 86 84 84 84 83 83 84 83 80 79 80 81 84 84 84 83 81 79 78
12 12 12 10 14 14 13 18 18 23 17 43 34 32 32 51 54 63 66 62 70 77 97 89 90 82 69 80 94 89 86 84 83 85 85 87 84 81 82 82 84 87 86 84 83 82 81 79 81
13 13 12 10 15 12 13 16 17 27 24 39 39 38 46 52 54 61 59 70 77 93 89 94 97 94 82 85 90 81 80 83 83 84 88 83 61 62 61 66 88 87 86 83 83 83 82 83 82
13 13 11 9 12 12 12 13 12 22 23 32 38 46 53 51 52 61 60 68 76 95 96 92 97 91 82 79 92 93 88 76 80 78 75 64 67 61 46 77 89 87 85 84 84 84 84 65 42
13 13 10 12 11 12 13 14 14 19 22 24 32 41 52 51 54 62 62 69 67 78 97 86 95 91 90 97 98 97 97 92 92 86 77 69 59 50 58 65 65 64 70 48 56 59 38 38 36
14 12 10 10 12 14 15 14 19 22 22 32 34 38 45 49 56 64 69 77 81 83 87 96 92 96 96 97 98 95 95 91 96 92 78 68 55 55 54 50 49 52 45 48 46 41 42 42 38
16 11 12 11 12 14 14 18 19 21 27 36 43 48 50 53 56 60 74 71 78 92 88 90 96 94 95 95 97 97 93 92 94 89 65 56 56 53 44 45 43 43 41 44 43 41 42 41 39
13 12 12 12 13 14 20 15 35 20 32 40 48 52 56 61 63 60 75 88 75 86 88 92 89 92 94 96 96 98 94 96 95 81 56 51 52 52 43 41 36 37 40 40 38 38 37 35 36
12 16 14 14 13 13 19 18 29 19 37 40 44 48 52 55 53 58 61 71 87 73 80 85 91 91 94 94 98 96 95 94 93 65 61 50 54 58 53 36 34 35 35 38 36 39 35 33 33
16 16 17 11 12 15 24 20 13 26 37 36 40 44 49 49 49 45 54 69 86 88 87 82 80 91 91 93 95 95 96 96 93 75 63 58 52 56 50 36 35 33 35 34 36 38 36 35 33
19 18 18 14 13 15 27 20 17 30 36 30 37 39 41 42 48 47 51 59 74 87 94 87 86 91 90 92 95 93 94 93 95 81 58 58 49 46 41 36 39 44 36 36 35 36 36 36 33
19 19 14 15 13 18 19 21 15 21 30 36 31 37 38 43 42 45 59 57 66 74 92 87 86 88 88 90 94 94 95 94 94 80 59 53 46 50 44 38 44 43 38 40 39 40 36 34 32
14 16 14 11 13 17 17 15 13 15 23 32 32 36 40 39 40 44 53 65 68 74 87 94 92 92 93 94 94 94 93 88 86 76 64 64 52 50 46 38 46 43 42 43 49 44 44 37 36
17 18 16 13 16 16 12 14 13 16 21 26 29 33 37 38 42 47 53 58 73 67 79 89 91 88 89 90 91 89 87 76 73 68 64 62 63 48 47 44 45 44 41 52 55 53 47 40 40
20 20 19 18 17 16 17 17 14 14 21 26 28 29 32 37 40 47 53 55 62 64 76 86 88 91 87 90 90 92 94 92 81 72 59 60 58 46 44 50 47 49 45 49 58 57 55 48 49
24 17 20 20 21 17 17 22 14 14 14 20 22 33 33 35 37 40 49 53 55 57 62 74 86 87 89 91 88 90 88 87 77 72 55 50 57 55 46 49 53 55 50 51 53 52 56 55 50
21 18 22 21 22 20 18 21 15 13 16 13 12 19 29 32 37 40 45 46 49 52 59 66 76 82 85 85 84 87 83 76 73 70 71 66 60 55 50 52 58 60 57 61 62 62 64 55 66
19 23 24 25 23 33 20 19 15 12 15 13 11 13 20 29 34 37 41 44 46 49 55 63 71 76 82 84 81 82 79 71 67 74 73 78 74 67 64 56 64 67 64 63 70 67 68 66 61
21 27 31 33 35 34 19 23 19 16 14 14 13 11 20 26 33 37 41 44 46 52 56 58 63 72 79 82 78 75 74 69 65 63 62 61 71 73 72 67 61 60 63 60 59 67 67 68 67
28 25 29 36 38 25 27 30 20 15 15 15 12 14 17 26 33 34 37 43 46 51 54 59 56 57 65 76 75 66 64 59 58 55 51 51 50 52 63 59 57 57 55 57 58 56 59 62 67
28 34 23 29 38 37 26 23 18 15 14 14 14 15 15 18 27 31 33 40 45 49 56 63 56 51 52 62 68 69 64 62 57 55 54 51 50 45 54 56 56 54 54 56 59 58 59 60 66
28 22 37 34 42 42 25 27 22 19 16 14 14 15 13 14 18 24 31 38 43 46 50 63 57 49 48 53 58 58 62 61 58 58 59 57 56 57 57 62 63 59 58 59 60 60 59 59 63
32 32 30 26 30 37 35 26 20 20 24 25 18 15 15 17 18 24 30 35 40 43 48 56 57 51 49 53 56 59 60 60 60 61 60 59 59 58 58 57 59 58 58 57 58 61 60 63 67
23 27 28 37 37 36 44 28 19 23 22 20 20 18 17 17 18 20 30 36 40 44 45 48 52 50 50 50 56 63 61 60 62 64 62 64 63 60 59 57 56 54 52 52 56 60 60 61 66

GFSSGP_sfc_rhum_057.txt.gz
RH
39 20 17 14 16 11 10 10 8 9 10 12 16 17 19 18 18 30 40 52 54 47 50 61 89 91 88 88 88 89 88 88 86 84 84 86 84 83 83 82 79 78 74 68 68 73 74 76 78
15 13 14 14 12 11 8 9 10 9 10 15 16 18 17 22 23 26 36 48 46 40 50 49 91 90 88 89 88 88 86 86 86 85 85 85 83 84 83 81 80 78 73 65 66 71 74 74 78
24 11 13 11 11 10 9 10 9 10 11 13 16 19 24 22 28 34 45 52 52 48 48 48 88 91 88 90 90 89 87 85 86 85 86 84 84 82 80 78 78 75 71 64 64 69 74 79 82
12 10 11 12 10 9 9 8 9 9 10 13 15 19 22 29 36 40 46 48 57 57 42 76 91 92 90 90 90 89 88 86 84 84 85 84 82 80 79 77 74 72 70 67 70 74 78 83 81
11 11 13 12 10 8 9 8 10 10 11 15 17 22 21 30 36 43 48 48 54 63 52 74 91 92 90 86 88 87 86 86 84 85 84 82 81 79 78 76 74 73 73 73 74 78 78 81 79
12 9 12 10 8 8 9 9 9 11 12 14 19 19 19 37 36 43 55 54 53 67 70 73 82 90 84 83 83 90 84 83 85 85 84 83 81 79 79 78 78 77 78 80 82 81 80 80 78
13 11 12 9 8 9 11 11 11 12 13 14 21 22 19 30 36 41 48 56 55 65 76 78 76 72 90 86 92 95 89 87 86 86 85 83 82 80 80 81 82 81 83 84 83 83 82 79 78
11 10 12 9 8 10 9 12 10 12 12 23 18 19 20 38 42 47 48 46 47 70 86 80 78 79 70 81 91 95 94 81 87 86 87 87 83 81 81 82 84 85 85 86 84 84 82 80 80
10 13 12 9 8 9 9 11 8 11 13 17 21 24 28 39 38 44 44 53 53 66 82 94 83 78 73 70 89 95 95 76 84 86 89 87 62 64 69 75 88 87 87 86 85 84 84 83 80
12 12 10 7 6 9 9 10 9 10 13 16 17 22 35 40 38 41 44 62 65 67 82 87 93 81 76 80 94 92 95 90 78 65 69 78 79 65 53 81 89 88 87 86 85 85 84 64 40
11 12 9 8 8 8 9 10 9 10 14 15 19 20 32 39 38 46 44 51 58 64 74 94 92 88 79 93 95 99 92 90 90 80 77 84 86 65 73 81 80 67 71 60 59 61 41 38 36
12 10 9 7 8 9 11 10 11 11 13 18 20 24 30 33 40 45 45 54 62 62 75 87 92 85 87 90 88 97 98 98 97 90 84 90 80 71 77 68 62 61 51 52 46 42 41 39 37
10 10 8 7 7 9 11 12 12 11 11 19 23 31 30 31 35 40 46 58 65 68 72 96 95 86 85 87 93 94 97 97 95 94 88 92 66 73 64 66 61 50 45 45 43 38 37 38 38
9 11 10 8 9 9 12 12 11 13 12 20 26 32 32 34 36 37 47 55 66 79 90 92 98 96 95 94 94 96 97 94 95 92 88 82 60 70 62 61 49 43 40 39 37 37 37 34 36
10 12 11 10 9 10 11 12 13 10 12 20 26 30 32 35 34 37 39 52 66 66 76 90 94 93 95 94 96 97 98 95 94 92 88 72 60 62 53 48 44 40 39 40 36 38 34 32 33
14 14 15 10 10 10 10 17 10 11 17 19 23 26 32 33 32 32 37 42 59 78 73 80 88 95 95 94 96 98 97 96 93 92 82 61 53 57 52 41 40 36 38 36 34 35 33 32 33
18 18 16 14 9 10 12 17 10 14 19 17 19 24 29 32 32 31 34 40 56 73 83 77 84 89 92 94 97 97 95 96 94 90 59 58 52 47 49 41 45 44 37 36 34 36 35 34 33
20 18 16 15 11 11 11 14 12 13 15 19 18 21 26 29 30 32 37 38 47 66 80 78 80 91 90 92 96 96 97 97 95 77 60 56 48 51 54 50 57 48 36 35 35 43 36 35 33
15 15 15 13 9 12 13 11 11 11 11 14 20 20 25 27 27 30 41 42 49 60 80 83 87 89 89 93 95 97 96 96 94 86 58 61 51 50 58 52 61 58 44 42 46 40 41 35 34
15 17 16 13 10 14 12 10 9 9 11 12 16 20 22 26 28 33 42 47 52 60 76 86 82 89 84 85 82 81 89 92 88 82 76 57 56 48 52 54 54 58 46 50 53 52 43 35 34
18 19 18 16 12 14 13 12 11 9 10 11 14 14 16 23 28 34 40 48 54 58 71 86 84 83 80 82 80 84 83 88 90 82 74 68 63 50 52 56 54 57 50 51 58 56 53 44 42
24 15 16 16 17 20 11 17 12 10 11 13 14 14 16 19 25 29 37 44 52 53 60 76 84 79 77 83 87 87 86 83 75 73 65 48 60 60 55 48 51 54 49 52 59 52 56 53 50
21 16 16 18 20 20 17 17 14 11 11 11 11 13 16 18 23 27 33 38 42 46 60 65 85 83 79 77 83 86 78 71 69 73 71 60 64 78 62 50 54 55 52 56 57 62 65 57 56
15 18 18 20 21 32 22 18 15 12 11 12 10 9 12 18 21 25 29 34 39 43 52 67 76 86 85 80 81 83 83 81 77 76 79 61 61 67 69 50 56 61 64 66 62 67 66 66 60
17 23 31 33 34 36 18 19 17 12 12 12 11 10 11 14 19 25 29 33 37 44 49 58 66 75 85 86 83 80 73 80 74 71 70 71 74 74 69 63 61 62 67 70 73 76 74 72 72
22 23 31 42 43 27 18 23 15 12 12 12 11 10 11 15 20 24 27 33 35 43 47 50 55 58 76 83 82 74 69 69 62 67 61 62 68 69 71 63 60 62 63 64 66 67 68 72 73
24 28 19 28 30 37 21 19 14 14 12 12 11 11 12 14 19 22 24 30 35 40 47 49 47 48 57 78 81 79 75 71 63 62 60 58 59 53 63 66 65 63 63 64 65 65 66 65 68
22 18 28 29 46 48 26 27 26 17 15 14 13 12 12 12 14 18 22 26 32 36 40 49 44 42 46 55 70 74 74 71 63 61 60 60 58 56 57 63 62 62 62 62 63 63 62 63 64
27 30 30 25 29 40 42 27 16 21 22 21 18 14 16 16 16 16 18 21 28 33 37 46 47 41 41 49 58 66 68 71 68 66 61 58 58 55 52 51 55 55 55 57 59 60 60 61 61
22 27 32 38 43 32 41 33 18 20 19 19 18 16 15 14 14 15 18 23 27 32 35 41 47 44 41 42 51 60 63 63 67 67 63 63 60 56 53 50 49 50 51 53 56 59 55 60 62

GFSSGP_sfc_rhum_060.txt.gz
RH
43 24 19 20 21 18 15 11 8 8 9 10 14 16 18 15 18 42 42 52 51 49 72 75 93 92 91 91 91 90 90 88 86 88 88 87 85 83 83 83 81 79 78 75 75 74 74 78 81
17 13 16 16 23 20 12 9 10 8 11 13 13 14 15 20 25 27 46 47 44 41 63 66 91 92 92 91 90 90 88 87 86 87 88 86 84 85 84 82 80 77 76 73 74 75 75 78 82
27 18 15 18 18 18 13 9 9 9 10 11 12 12 21 21 29 31 46 51 49 49 52 58 86 89 91 91 90 89 86 86 85 86 86 85 86 83 83 82 78 76 73 70 73 74 77 79 80
19 16 13 17 16 11 9 8 8 9 8 11 13 17 19 24 28 37 44 45 57 56 50 86 89 89 90 90 89 87 87 87 86 86 85 86 84 83 82 80 76 73 71 69 73 77 79 83 81
15 12 16 16 14 10 8 8 8 10 9 10 14 19 20 33 36 39 46 46 58 63 66 78 90 90 91 86 84 87 88 87 86 86 85 84 83 82 81 79 76 75 74 74 76 79 80 81 80
15 13 18 16 11 8 7 8 8 10 10 10 13 18 21 34 35 46 54 56 62 69 72 79 84 88 83 88 85 84 83 83 84 87 85 84 82 81 80 78 77 79 81 82 82 83 81 81 78
17 15 16 13 11 10 8 9 10 10 11 12 19 22 18 33 38 41 50 59 65 71 74 82 85 80 90 91 94 96 97 95 88 87 85 84 83 82 80 82 81 84 85 85 84 84 82 79 74
12 14 16 13 12 11 6 10 10 10 11 17 17 16 21 46 43 50 50 51 54 71 80 86 85 86 85 89 95 94 94 88 98 87 86 84 83 82 84 84 85 86 86 86 85 84 82 80 76
10 16 17 14 12 9 9 11 9 8 12 11 16 20 31 37 36 44 47 53 61 75 85 88 87 85 86 95 93 94 92 91 97 88 87 84 74 78 81 82 87 88 88 87 86 86 84 80 73
13 17 15 11 9 8 8 10 10 9 12 14 13 18 33 37 37 40 43 62 66 70 84 88 90 88 92 95 96 95 95 96 97 84 85 78 81 79 73 84 90 90 89 87 87 86 81 67 65
13 16 12 9 8 7 8 8 8 10 12 13 23 18 36 38 38 47 44 54 61 66 82 86 89 87 92 96 97 99 98 99 100 90 88 92 92 82 86 91 91 89 87 80 82 77 57 53 56
14 11 12 10 8 8 9 8 10 10 12 10 17 19 22 33 40 45 45 57 58 66 68 86 88 88 90 89 95 95 97 97 98 93 89 90 94 90 85 86 79 74 69 70 70 64 60 56 54
13 11 10 9 8 8 8 10 11 11 10 10 18 23 26 29 28 38 42 55 63 66 76 88 90 85 86 90 94 96 96 96 95 92 88 94 94 92 88 79 69 62 63 64 61 59 53 57 54
12 10 9 8 9 8 8 9 10 11 9 11 18 24 28 31 28 33 45 55 67 74 86 94 95 91 88 89 92 94 95 95 94 91 88 90 93 92 84 82 70 61 59 58 55 55 58 57 56
11 12 10 10 11 10 9 11 12 10 9 11 17 23 27 33 28 31 41 51 73 75 86 92 98 96 93 88 90 96 94 94 93 91 88 87 93 80 77 72 67 60 55 56 56 56 58 58 52
15 15 18 12 11 10 10 17 11 9 10 12 16 22 28 29 32 30 36 45 62 82 87 89 89 96 94 95 95 96 95 95 92 91 88 85 81 70 75 71 67 56 52 54 60 59 58 60 60
21 22 20 15 10 10 11 16 11 9 14 16 15 19 26 31 31 30 35 44 60 70 85 86 94 97 96 96 97 98 98 97 92 91 88 85 79 68 77 86 83 63 63 64 58 62 58 61 60
26 22 20 18 12 12 12 13 12 12 14 19 16 16 23 29 31 31 34 40 62 72 73 82 87 91 93 96 98 98 99 96 93 91 85 84 67 65 75 64 69 65 61 62 62 61 61 60 59
22 19 19 15 12 13 15 13 10 10 11 16 17 19 20 28 27 33 39 44 69 76 78 81 87 92 94 97 98 98 98 97 94 92 78 70 64 64 65 66 65 63 59 57 61 62 62 64 60
23 24 21 16 12 13 12 13 10 9 10 11 13 19 21 23 28 34 44 46 57 79 82 81 83 89 89 91 87 91 93 96 92 92 68 65 65 60 62 66 66 66 68 65 65 59 64 61 62
22 24 21 19 15 13 14 17 15 9 9 9 12 13 17 21 29 36 45 51 57 70 82 87 82 84 84 86 87 92 92 94 94 94 78 62 63 55 56 68 69 71 73 71 70 68 67 65 66
25 16 16 17 19 23 14 24 15 11 11 10 11 16 17 17 25 34 42 52 56 64 78 86 82 83 82 82 85 90 90 91 74 84 82 63 70 61 55 60 66 72 71 73 75 69 74 74 68
25 19 20 20 21 24 20 22 17 12 12 11 12 15 17 18 23 32 40 46 52 57 71 83 83 82 80 80 80 82 83 76 68 78 82 72 72 76 62 65 72 70 66 67 76 79 77 77 85
19 21 23 23 25 37 25 23 21 15 12 11 10 12 15 17 21 27 36 41 49 54 70 81 85 81 80 80 80 82 81 79 70 75 74 71 68 78 79 64 70 73 76 72 78 82 82 78 83
25 28 37 43 44 46 23 24 24 16 11 12 12 12 15 20 23 27 35 39 46 54 66 70 83 86 82 83 81 81 79 77 73 73 71 67 66 68 84 78 76 73 71 76 81 85 85 86 85
30 30 39 58 60 36 21 27 20 14 11 12 12 13 16 18 24 24 30 38 43 52 64 67 71 78 84 82 82 80 76 76 73 70 68 68 63 64 68 77 72 73 70 71 80 85 83 80 86
34 48 24 36 35 49 37 20 15 13 14 11 12 12 16 17 20 24 28 36 41 49 56 66 64 68 78 77 80 80 79 77 77 74 68 67 65 63 75 74 75 70 69 73 79 82 82 85 80
31 27 44 36 55 64 36 28 24 20 17 14 14 16 16 17 19 24 26 35 38 45 50 60 58 58 71 80 82 80 79 76 75 74 75 71 68 67 67 76 76 72 69 73 77 82 78 78 78
31 35 40 41 34 55 60 45 33 28 25 23 21 20 22 21 20 20 24 27 36 40 45 55 54 53 57 77 80 80 77 73 76 74 73 72 70 67 67 66 69 71 74 74 74 75 73 76 76
25 30 33 55 58 41 56 42 27 29 23 25 23 19 19 19 18 20 21 27 31 39 42 51 53 50 51 60 76 81 80 76 78 77 72 70 69 67 65 63 63 66 67 68 70 73 67 72 74

GFSSGP_sfc_rhum_063.txt.gz
RH
73 52 40 36 48 42 39 26 18 16 24 23 19 22 23 25 37 67 67 63 65 78 88 87 94 91 89 88 92 92 89 88 88 89 87 84 84 84 84 85 84 82 79 74 72 76 74 79 84
40 25 30 37 43 50 35 20 19 18 18 16 17 20 22 40 49 64 67 59 57 76 84 91 95 93 91 90 92 91 88 87 88 88 86 85 86 86 85 84 84 82 79 73 75 74 78 82 84
39 26 38 40 42 39 36 22 16 14 14 14 18 17 29 45 38 59 62 60 63 71 73 84 95 95 93 92 92 91 89 88 89 88 85 85 86 86 85 83 82 80 77 74 74 74 78 84 86
30 36 32 33 34 25 21 15 12 14 14 14 19 25 32 40 40 58 58 61 66 69 63 90 93 94 93 92 91 90 90 88 89 87 85 86 85 84 83 82 79 79 77 74 73 77 81 83 82
29 34 34 37 28 18 14 12 12 13 13 18 19 25 45 50 52 56 60 56 73 73 88 89 91 94 92 91 89 88 89 85 87 86 87 85 84 83 82 80 78 78 78 77 76 80 81 80 80
32 29 39 36 24 17 14 12 11 14 13 14 18 23 51 50 52 69 66 67 72 76 90 89 87 90 91 86 88 88 89 82 80 86 87 86 84 83 81 79 78 79 81 82 83 81 81 80 77
39 38 34 29 22 17 13 13 14 14 14 24 25 28 55 54 61 64 69 69 72 77 86 92 91 86 89 93 95 94 94 96 96 92 87 85 83 83 81 82 83 85 85 86 83 82 81 78 78
30 33 33 25 23 20 12 15 13 13 21 24 20 25 64 62 59 61 69 71 75 83 94 93 90 92 93 98 95 93 93 92 94 94 95 90 82 83 85 86 87 87 87 86 83 83 79 78 72
30 31 28 24 21 17 12 17 17 13 15 20 24 19 52 54 57 60 69 72 72 93 95 93 93 93 97 97 93 91 89 89 93 94 96 90 81 84 82 88 89 89 89 87 85 83 78 74 71
25 30 24 17 16 15 12 14 13 14 19 20 22 49 51 49 54 56 57 75 77 90 97 96 94 97 96 96 96 96 94 96 93 94 95 92 86 82 85 90 90 90 89 88 86 82 77 68 66
27 27 19 16 14 16 14 12 13 15 22 21 32 55 53 51 53 54 60 72 75 87 97 96 96 97 98 98 98 98 98 97 97 96 96 93 92 91 94 93 93 89 90 84 78 76 70 62 64
28 20 17 15 13 13 14 12 14 16 20 24 24 48 51 51 57 58 62 77 82 86 92 96 96 96 97 96 96 97 97 99 98 98 96 96 96 96 94 91 89 87 88 91 86 77 68 59 59
24 20 15 13 13 13 12 12 14 16 14 22 29 29 36 48 50 57 70 78 82 92 90 96 95 94 97 97 98 97 97 97 96 97 93 94 94 94 94 86 82 79 84 83 75 73 65 58 57
21 19 16 14 13 11 12 13 15 14 14 13 29 36 36 39 48 59 75 86 84 96 94 96 95 94 95 98 95 97 97 95 96 93 92 86 93 93 90 76 71 76 74 70 63 64 67 61 61
20 22 17 15 12 12 14 17 14 13 14 14 29 34 40 40 40 59 64 84 92 94 87 98 97 95 94 96 96 97 97 96 95 91 86 82 87 86 88 69 67 69 68 59 66 68 64 68 64
30 28 28 16 14 14 16 21 15 12 14 16 17 32 40 43 38 41 62 83 94 96 98 94 95 96 96 97 98 97 96 96 93 90 84 84 79 82 88 78 65 68 63 61 62 63 62 69 69
37 40 30 20 15 15 17 19 15 13 14 17 21 35 39 45 45 45 60 87 95 95 93 96 95 98 97 97 98 97 96 95 92 91 87 85 78 76 85 85 79 67 66 68 62 64 61 68 72
47 34 28 25 18 17 17 17 15 14 19 24 25 25 41 43 44 43 61 83 88 95 93 91 96 97 97 97 98 98 98 97 94 90 82 84 74 78 85 82 86 80 77 72 61 59 66 64 65
31 31 33 28 19 20 19 16 16 17 20 28 28 26 39 42 40 43 59 80 89 93 93 91 95 98 97 98 98 99 98 98 97 91 79 81 74 73 73 70 74 77 81 62 56 65 63 69 69
31 33 34 26 20 22 21 18 18 16 16 20 25 27 27 39 42 45 75 81 90 92 94 89 91 95 94 92 93 93 96 96 93 92 88 76 74 66 70 69 74 71 77 76 66 64 68 65 70
30 36 34 30 23 18 19 22 20 16 16 14 18 20 24 38 45 50 63 91 95 94 94 88 89 92 91 91 93 93 94 96 96 93 86 73 71 61 62 64 70 70 70 71 67 64 60 63 66
24 20 22 23 25 31 23 38 24 19 17 14 14 23 25 39 43 50 54 74 96 95 94 84 86 89 88 89 91 92 91 93 84 82 72 66 70 67 64 64 66 69 78 79 72 61 68 68 66
42 26 28 28 30 32 29 38 28 22 21 15 16 20 23 36 44 53 57 59 79 92 96 92 86 86 85 84 86 84 83 78 80 86 86 75 74 71 65 73 72 77 79 83 80 76 62 79 83
37 45 36 34 35 50 37 36 38 26 20 19 14 18 22 31 43 49 56 57 71 90 96 95 90 87 85 85 84 86 83 83 79 94 95 85 76 72 73 69 76 75 76 79 88 85 73 74 85
40 59 63 59 61 64 32 36 30 25 18 19 18 19 22 29 42 49 59 64 64 89 96 94 91 89 85 85 85 86 83 80 76 84 84 80 81 83 85 76 83 87 76 76 82 88 85 83 86
43 48 72 70 74 50 30 41 30 20 16 16 16 21 25 32 42 48 53 60 63 79 91 88 91 84 85 85 88 84 81 82 73 72 76 75 73 73 74 79 72 83 83 85 86 87 82 82 89
51 52 35 57 66 70 56 41 21 20 18 16 16 22 29 32 40 46 48 54 61 69 86 89 88 81 80 85 85 85 78 76 78 70 68 69 64 63 77 79 78 75 73 81 82 85 87 91 91
41 33 64 84 91 94 50 52 54 36 22 24 21 25 27 28 32 44 46 50 56 65 74 82 83 80 79 80 82 81 80 77 76 78 74 68 66 62 61 79 83 78 75 79 82 81 83 90 89
43 55 83 76 65 76 75 61 47 37 34 31 29 28 28 26 30 31 43 46 51 58 74 74 76 78 82 81 79 82 82 80 77 80 77 74 70 65 64 73 80 81 80 72 76 78 77 83 79
35 43 71 98 83 72 69 73 43 35 27 28 28 24 26 30 33 37 37 40 53 56 63 70 69 72 79 81 81 84 81 80 82 80 76 76 75 71 67 64 72 76 75 75 73 75 75 84 84

GFSSGP_sfc_rhum_069.txt.gz
RH
84 57 41 42 45 54 61 40 33 26 22 26 25 26 26 40 31 37 68 82 87 96 95 94 95 94 92 90 92 92 90 90 89 88 88 87 86 86 85 85 84 82 80 76 76 76 78 82 87
57 34 37 46 57 58 44 38 29 26 21 23 32 43 44 60 68 73 78 83 87 95 93 94 95 94 94 93 92 91 90 88 88 87 86 86 85 85 85 85 84 81 79 76 77 78 80 84 88
39 32 39 48 64 53 39 32 23 20 17 23 24 31 48 56 67 73 72 84 88 96 91 93 94 94 94 94 93 92 90 90 88 87 86 85 84 84 85 85 83 80 78 75 75 79 82 88 88
34 38 43 52 55 45 35 27 27 19 16 19 25 41 50 60 67 69 74 83 93 95 96 95 95 93 94 94 94 92 92 90 88 87 85 85 86 85 86 85 81 77 74 76 77 80 85 87 87
38 46 60 63 49 36 30 24 22 20 18 17 27 43 53 64 67 73 77 83 93 95 97 96 96 94 94 94 93 92 92 91 89 88 86 88 87 88 88 85 82 80 78 80 83 85 86 88 87
36 42 57 62 42 28 24 22 22 20 18 18 27 55 64 71 75 78 82 84 89 94 96 98 96 95 94 94 91 93 93 93 90 89 88 87 88 89 87 85 83 81 82 84 86 84 85 84 85
35 45 54 47 37 30 25 21 21 20 20 21 34 65 75 79 76 77 85 91 94 94 98 99 96 93 96 96 92 93 89 88 93 91 88 87 88 88 87 85 84 85 85 87 87 86 81 83 85
40 46 62 43 36 32 24 22 19 19 18 32 50 71 77 69 77 79 85 94 96 96 96 98 97 97 97 98 96 94 96 97 98 96 94 93 94 90 90 88 86 87 88 87 84 80 81 83 85
40 54 60 44 36 28 22 22 19 18 24 27 33 61 56 66 78 85 89 92 96 98 98 97 97 98 98 98 96 93 91 90 92 96 98 96 95 95 86 89 87 89 89 86 82 81 83 84 83
55 66 45 35 27 27 25 22 20 19 20 20 54 68 75 73 80 85 88 91 97 98 97 97 99 99 99 97 98 96 92 94 96 95 95 98 98 98 89 92 90 89 89 86 83 85 84 80 77
52 47 38 32 28 30 25 22 22 22 22 24 43 71 79 76 79 83 85 88 92 96 98 98 99 97 97 99 99 99 99 98 97 94 94 92 97 98 95 98 93 92 86 80 78 78 72 72 73
50 39 34 35 29 28 26 23 21 21 19 17 20 65 73 72 75 75 82 86 95 98 98 99 95 96 97 97 98 99 99 99 98 98 97 97 97 97 97 97 92 95 90 86 78 72 70 68 67
49 44 37 34 31 28 24 25 22 20 16 17 46 65 67 68 67 70 75 87 95 98 99 98 95 94 98 98 98 98 98 98 97 98 95 96 95 95 97 93 93 98 97 84 77 71 67 68 70
36 36 35 34 33 30 28 24 24 18 18 27 63 65 64 63 66 76 88 94 96 96 99 98 98 98 98 98 98 98 99 98 98 97 94 94 92 95 92 86 92 95 91 90 75 65 68 70 70
34 39 34 31 31 26 24 25 24 16 17 29 62 59 61 61 70 68 78 89 93 96 98 97 98 96 98 98 97 98 97 98 97 97 93 93 91 93 90 89 94 91 89 88 81 76 74 72 68
40 42 48 33 26 24 20 30 21 16 16 19 46 55 59 62 60 71 81 89 95 96 98 99 96 95 98 99 97 99 99 99 98 98 95 88 91 88 89 85 83 80 79 76 76 81 75 73 73
53 62 49 37 24 24 21 28 21 18 20 19 18 45 52 57 63 76 84 95 96 95 97 99 98 96 98 98 98 99 98 99 98 99 99 96 91 86 82 78 79 76 71 70 71 86 70 76 82
61 56 56 42 30 33 38 34 26 22 22 22 19 32 48 52 53 67 90 96 96 97 97 96 91 97 98 98 98 99 99 99 98 98 96 97 90 83 82 76 81 72 66 69 74 71 80 80 79
44 47 48 44 30 38 37 34 29 25 29 23 21 27 48 48 47 76 94 96 98 98 99 96 90 98 98 98 98 98 99 99 98 98 90 94 92 83 77 76 75 70 68 62 74 83 78 88 82
35 40 46 38 29 34 37 36 28 25 24 22 20 28 32 47 64 92 95 91 91 91 95 98 90 94 96 97 94 96 97 97 96 97 95 90 87 88 80 78 76 70 70 77 74 78 84 82 79
44 38 43 44 35 36 38 37 36 27 22 20 21 24 37 52 59 94 92 91 93 91 94 97 96 89 89 94 96 97 98 99 99 99 97 94 90 90 88 78 78 77 74 78 75 78 72 77 84
58 35 39 30 35 58 42 64 43 33 28 26 22 32 41 54 52 81 95 90 90 89 96 96 87 89 93 94 95 94 94 97 96 95 96 96 90 90 91 89 80 81 82 82 76 70 67 68 71
54 58 58 57 61 61 51 59 46 34 31 27 25 23 32 45 51 73 93 93 86 85 91 91 89 96 94 92 91 94 90 88 92 94 95 97 97 92 83 84 89 80 86 83 82 80 72 64 72
51 62 57 58 62 77 50 53 54 40 31 27 23 22 26 43 48 58 81 91 89 88 89 91 91 96 94 92 93 97 89 89 94 94 95 96 96 94 93 87 87 84 84 88 90 87 79 74 66
64 86 85 78 81 72 48 52 42 34 30 29 28 23 26 41 50 69 94 96 91 96 93 88 90 92 95 91 95 95 96 90 91 91 93 96 94 95 94 87 89 90 90 89 94 94 95 85 79
63 89 95 89 90 80 51 60 39 36 32 31 23 22 22 33 48 68 88 93 93 87 90 85 89 86 92 91 90 88 92 86 88 88 88 88 86 83 79 85 90 88 89 91 92 93 94 92 88
86 92 84 93 87 93 72 49 39 41 43 45 32 24 29 47 50 64 84 89 94 88 87 87 88 83 85 91 89 88 86 93 92 91 88 83 79 75 78 80 85 87 87 87 88 91 90 89 78
85 76 99 98 97 95 68 68 85 62 54 55 63 64 58 64 65 68 78 87 91 91 86 92 88 85 82 85 92 90 89 84 92 94 95 93 93 87 81 77 77 79 82 83 84 82 76 84 78
91 96 96 92 90 95 90 94 76 75 70 62 63 64 66 70 75 78 78 83 94 92 88 91 90 89 85 85 82 87 89 92 93 88 89 92 92 90 89 84 79 78 79 78 77 75 75 81 77
63 78 93 99 97 93 99 93 74 75 64 60 61 62 63 70 75 78 80 84 95 97 95 90 87 89 89 88 87 90 94 89 88 88 84 85 86 89 83 88 88 79 73 72 78 81 80 88 88

GFSSGP_sfc_rhum_072.txt.gz
RH
86 61 43 44 42 56 62 38 40 30 24 27 28 30 29 29 31 34 63 88 89 95 96 96 90 84 91 91 91 93 92 91 90 89 89 89 88 87 87 87 85 83 80 74 77 77 78 82 87
69 36 40 51 49 51 29 44 35 28 22 22 42 48 49 46 72 77 77 81 92 94 93 97 92 87 91 92 91 92 90 86 90 89 89 89 88 86 87 87 85 82 76 75 76 77 80 85 88
44 34 40 53 70 41 32 33 28 25 20 24 25 36 46 50 71 76 74 85 96 97 90 96 95 93 92 92 92 91 90 88 89 90 88 88 86 86 88 87 85 80 78 79 76 79 84 89 89
38 39 45 55 63 46 30 27 28 24 19 21 26 36 46 61 70 72 79 92 95 97 89 97 96 95 93 93 91 91 91 91 90 89 88 87 86 86 88 87 83 80 79 78 77 82 88 89 89
41 49 57 75 61 43 37 29 29 23 23 20 26 34 51 65 77 81 92 90 95 99 92 88 97 96 94 93 92 91 92 92 90 89 88 86 86 86 88 86 82 81 80 80 84 88 89 89 88
42 48 68 62 55 34 28 28 26 22 23 20 23 29 52 80 82 88 91 94 94 96 99 94 92 96 96 94 93 92 93 92 91 89 87 86 85 85 86 85 81 80 82 85 89 89 89 88 88
35 52 63 55 44 37 26 23 23 24 23 21 31 42 63 84 82 84 88 92 94 95 98 99 91 91 97 97 96 95 94 90 92 88 90 86 87 87 82 82 82 83 86 89 89 89 88 87 87
39 44 62 46 38 35 24 26 23 22 22 31 53 58 57 78 82 89 93 94 95 96 97 99 96 96 98 99 98 93 93 92 87 97 96 91 88 84 87 82 84 88 88 88 88 87 87 88 87
44 50 61 43 38 29 27 28 22 22 22 22 34 55 65 73 84 93 96 97 98 98 97 99 99 99 98 97 98 94 93 93 93 94 95 99 98 90 88 85 89 90 90 88 84 85 88 88 86
52 66 40 37 32 30 29 30 26 22 25 25 30 59 79 80 84 90 95 98 98 99 99 98 99 99 99 98 98 95 94 94 94 95 93 95 98 98 89 91 86 90 89 86 82 87 89 85 83
67 52 42 37 31 34 34 28 26 26 27 26 23 27 80 85 90 91 91 93 92 96 98 98 98 97 98 99 99 98 97 96 97 96 96 93 95 96 97 97 94 95 88 80 84 89 83 85 83
59 48 40 38 35 37 34 32 30 25 24 21 21 22 75 87 89 87 85 90 95 97 97 98 96 98 97 96 99 97 98 98 99 97 95 96 97 98 97 98 99 96 88 86 89 84 85 81 80
53 51 43 38 36 34 32 34 30 28 22 22 19 28 72 78 79 79 84 89 94 97 98 96 95 97 98 98 99 99 99 98 97 98 95 95 97 96 93 96 98 94 92 86 83 80 80 80 79
36 37 37 37 37 36 36 34 33 28 24 19 24 43 72 76 74 79 83 91 94 96 98 94 95 95 96 96 98 99 98 99 98 98 95 92 94 94 89 95 96 96 84 82 78 74 76 77 78
39 46 40 38 39 41 38 36 31 24 22 20 25 56 72 70 72 69 68 83 90 94 98 95 96 95 93 95 98 98 97 98 99 97 95 94 92 92 90 92 96 94 90 89 79 78 82 81 77
44 50 55 39 34 31 27 39 28 23 23 21 22 54 65 64 64 66 78 88 95 98 97 93 92 95 93 95 98 98 97 98 96 98 96 93 91 90 92 94 95 92 87 80 73 76 80 83 83
56 59 55 46 31 29 29 36 27 23 24 23 22 38 66 60 66 71 84 93 95 96 96 93 95 95 92 98 98 99 99 98 98 96 97 92 90 92 92 94 93 85 84 81 74 81 76 82 88
60 61 63 55 40 38 38 37 34 30 29 30 29 23 54 53 56 62 92 96 96 98 99 91 94 95 96 98 99 99 99 99 99 98 99 93 96 94 95 91 90 78 77 78 71 73 81 82 82
45 52 56 51 37 42 42 41 34 31 32 32 32 28 27 42 44 82 96 97 98 98 99 92 96 98 98 98 97 99 99 99 99 98 99 95 96 94 87 84 82 75 74 72 72 70 72 90 84
41 42 42 40 37 39 44 42 36 31 31 28 28 27 27 29 68 95 96 98 97 97 98 89 87 98 98 97 92 97 97 99 97 98 98 98 96 92 89 84 76 73 70 78 72 71 82 85 81
55 55 52 43 37 36 44 40 35 29 32 26 25 23 24 32 63 96 98 96 93 96 93 90 87 94 96 94 97 98 99 99 99 99 99 96 96 93 91 89 76 73 66 74 77 82 79 88 90
72 49 44 41 47 56 43 60 42 38 34 31 27 26 33 32 54 91 94 93 87 90 88 90 88 85 94 95 94 94 93 97 97 98 96 97 93 92 90 89 86 73 71 78 73 75 79 80 81
70 57 64 61 71 68 62 58 44 41 39 34 30 26 25 50 64 92 92 89 82 84 88 98 91 88 92 94 93 96 96 92 95 97 97 97 97 95 92 90 91 81 80 85 82 82 78 79 81
57 70 62 66 75 90 60 57 54 48 38 33 28 25 24 28 65 82 90 89 84 82 89 95 85 84 90 91 93 94 93 93 98 99 98 98 98 97 95 96 92 90 90 89 89 86 76 78 80
73 80 91 89 89 87 52 60 44 32 30 39 43 36 27 23 60 85 97 89 83 86 89 87 88 90 90 95 94 93 92 90 94 94 95 97 98 98 96 94 96 94 87 90 91 89 87 84 85
84 71 94 90 90 81 58 67 50 46 45 53 57 58 34 29 55 76 93 92 83 86 85 90 88 86 97 98 98 94 96 96 89 92 93 94 92 91 91 93 94 94 91 91 92 91 94 94 94
81 95 82 99 99 97 72 58 53 64 66 59 65 67 71 37 48 67 92 92 85 86 85 85 86 82 83 97 97 98 97 96 91 92 92 93 90 86 90 92 96 94 94 94 94 95 93 94 93
81 82 99 99 98 89 70 81 96 88 77 70 75 79 80 70 70 84 95 89 84 81 81 84 83 82 80 84 97 96 96 96 96 93 91 92 90 86 86 86 89 93 94 96 95 94 92 94 95
83 88 98 95 86 98 94 95 81 82 72 77 78 83 90 83 82 90 94 82 84 81 88 89 85 82 83 85 85 96 97 96 96 96 96 90 90 87 85 83 86 88 90 91 94 89 88 92 90
79 92 89 99 99 97 99 97 76 68 65 66 75 77 81 81 85 90 91 92 92 91 92 89 87 86 82 88 87 86 92 96 97 96 94 95 91 92 91 86 85 83 83 84 87 87 82 86 87

GFSSGP_sfc_rhum_075.txt.gz
RH
66 47 28 28 24 29 21 19 25 21 18 18 20 20 19 20 34 26 49 65 74 76 82 78 82 87 91 92 93 94 91 89 89 90 89 90 90 88 87 88 85 82 81 80 78 78 77 79 88
46 28 28 33 23 17 10 25 22 19 16 16 26 31 30 25 46 45 52 67 65 76 81 76 85 87 91 92 94 90 89 90 90 90 90 90 89 88 88 88 86 83 81 79 76 77 79 86 89
28 25 24 31 32 15 10 18 20 19 17 17 18 24 26 31 51 47 51 67 69 72 80 76 85 82 88 92 94 90 85 89 91 90 89 89 88 88 88 88 86 82 76 79 75 77 85 89 90
28 27 29 31 31 25 14 16 21 19 14 15 16 18 28 43 49 50 55 68 74 75 78 87 92 90 87 93 93 92 83 90 91 90 89 88 88 88 88 87 84 79 80 79 77 83 89 91 90
29 29 28 37 34 29 26 19 20 18 17 14 15 18 30 44 58 60 68 70 77 86 83 84 97 92 90 92 91 93 92 92 93 91 89 88 87 88 85 87 83 80 81 80 84 89 90 90 90
27 31 29 23 34 26 21 21 18 16 16 15 18 18 20 55 60 69 74 75 78 87 87 85 93 96 93 91 92 93 95 93 94 91 90 88 88 86 84 83 78 83 83 84 89 90 90 90 88
24 33 23 29 28 24 19 19 17 15 16 17 19 24 32 59 59 68 71 74 78 82 89 91 90 90 96 95 94 95 93 92 93 94 86 85 86 87 82 81 80 83 86 90 90 90 90 88 88
23 28 31 31 24 19 18 18 16 17 15 18 36 31 31 50 67 71 72 73 76 82 86 92 89 92 91 86 97 95 93 89 87 90 96 96 93 88 83 84 82 85 90 90 90 89 89 89 88
29 26 28 26 26 20 19 18 16 16 16 17 16 25 43 55 69 72 75 79 81 87 85 93 89 88 93 88 92 92 89 90 92 93 95 94 83 87 86 88 87 88 93 90 90 89 90 89 87
33 34 26 25 21 20 17 21 18 19 20 18 18 31 63 67 71 71 70 74 83 83 88 89 92 95 93 86 90 83 80 79 86 91 91 88 87 90 90 89 91 85 93 91 89 90 90 76 59
41 34 32 28 23 22 22 21 20 18 22 20 22 19 38 63 70 72 69 69 74 75 84 88 94 94 92 93 95 91 87 87 94 91 90 87 89 93 94 97 95 94 91 78 78 76 60 63 58
39 42 34 27 24 26 27 24 24 24 24 19 19 18 18 29 63 69 65 69 73 75 75 87 94 94 90 89 94 93 92 94 96 94 92 93 91 94 94 95 97 96 97 74 69 65 66 67 62
38 32 31 30 30 29 26 28 27 24 21 19 19 20 19 22 33 53 56 59 67 72 78 88 92 93 94 92 94 95 90 89 94 96 93 91 90 94 93 92 93 96 95 74 68 65 65 66 63
28 31 28 28 28 28 30 28 31 26 22 22 20 18 17 28 36 47 64 63 65 71 78 88 88 90 92 93 94 97 95 95 96 96 93 85 87 93 94 92 94 95 92 73 64 62 63 60 59
30 34 31 32 30 29 31 38 36 27 23 23 19 17 16 26 45 55 58 62 63 69 75 88 91 90 92 90 92 95 98 97 98 97 94 90 89 93 89 83 96 96 83 69 63 64 60 59 56
31 36 37 33 32 29 29 27 22 22 21 20 18 18 18 23 43 50 55 56 62 70 85 84 87 92 92 92 92 92 97 98 98 97 94 92 86 87 89 90 95 95 85 68 61 61 62 61 58
39 39 43 37 26 27 29 32 22 20 22 20 19 19 19 23 42 50 56 57 62 67 81 90 87 92 92 92 92 90 95 97 97 98 98 97 92 89 92 93 95 94 75 67 61 62 62 63 59
39 44 46 44 31 30 31 31 25 23 23 26 22 22 22 22 28 38 56 60 64 70 79 87 88 89 90 92 93 96 98 97 96 95 97 93 98 92 95 94 93 94 80 63 59 66 63 61 60
32 36 36 30 28 31 31 33 30 27 26 25 23 22 22 23 22 31 60 68 70 78 89 85 90 91 93 90 97 99 98 98 98 97 91 94 94 95 96 94 92 89 78 65 69 64 69 66 62
38 41 42 35 28 28 27 29 29 28 26 25 23 22 22 22 21 42 70 71 73 80 88 84 85 89 89 78 89 93 95 96 94 92 98 93 94 97 94 94 91 83 73 72 68 68 67 64 66
56 59 56 54 42 35 34 33 27 23 24 24 23 22 21 22 22 38 72 73 72 82 87 83 81 85 83 86 85 95 95 95 98 98 99 96 96 96 93 94 87 80 72 73 70 68 68 69 70
70 51 51 52 51 53 32 44 32 27 26 25 23 24 25 22 23 28 63 74 74 75 80 80 78 80 84 88 90 95 88 96 95 94 97 98 93 95 94 89 84 76 70 73 71 63 68 72 77
59 53 57 56 58 58 51 52 37 31 31 26 25 25 25 25 27 40 64 64 68 75 80 82 78 80 86 85 84 86 83 74 88 93 96 96 98 93 91 91 87 79 69 74 76 73 68 65 68
52 60 57 55 59 75 52 50 42 34 28 29 30 33 33 27 31 42 61 66 69 74 81 86 84 83 88 85 84 90 90 88 89 95 90 97 98 98 95 92 92 86 80 82 81 78 70 68 69
53 62 70 73 78 62 42 53 44 35 33 50 52 48 48 42 38 57 68 70 72 77 86 88 81 85 88 88 90 91 89 89 90 93 93 97 97 98 98 96 95 92 88 82 82 84 81 75 73
66 60 72 77 72 62 50 53 42 59 53 54 56 58 56 53 33 57 66 70 73 76 84 82 83 84 86 88 90 88 87 88 87 90 90 89 93 91 95 96 94 92 92 91 88 88 85 85 85
71 78 63 98 74 89 51 44 59 55 58 61 67 71 73 64 51 45 67 72 73 75 85 81 82 83 85 86 83 84 87 87 86 87 82 89 89 88 90 93 97 94 92 92 92 92 88 87 88
65 72 99 97 88 77 52 56 76 74 72 68 77 84 84 72 69 65 73 78 71 77 82 84 78 74 78 82 82 79 78 82 83 84 89 91 92 90 88 86 91 96 96 95 95 92 89 90 92
75 75 96 97 79 77 84 90 76 81 74 81 84 84 86 87 85 78 74 78 78 82 86 84 79 74 74 76 81 83 83 80 79 83 86 87 90 90 90 88 92 92 91 91 95 95 93 92 85
58 65 85 95 90 92 89 79 86 77 70 76 82 80 83 85 89 88 86 88 90 91 88 85 82 77 75 76 78 78 84 84 83 82 79 79 81 85 85 86 87 86 83 80 85 87 92 94 94

GFSSGP_sfc_rhum_078.txt.gz
RH
50 24 15 15 14 11 8 6 6 10 14 12 14 11 12 13 19 19 31 41 42 47 55 69 86 88 92 92 93 93 92 90 90 90 90 90 90 90 89 88 88 85 82 81 78 78 79 82 88
20 19 14 13 11 8 7 6 9 7 10 11 12 15 16 17 17 25 36 42 37 40 50 58 89 89 92 94 95 94 91 90 90 90 89 90 90 89 88 87 88 85 83 82 79 77 80 86 90
20 14 12 12 12 9 7 5 7 12 11 12 15 17 19 18 26 24 28 43 40 43 46 51 89 89 93 94 94 91 92 91 90 90 90 90 90 88 87 87 87 84 83 82 78 79 86 91 91
17 14 13 14 10 10 7 5 8 13 11 9 10 13 13 21 28 25 32 42 43 46 48 79 88 85 93 94 94 90 82 91 92 91 90 90 89 88 87 88 86 83 83 82 80 85 90 92 92
15 11 12 12 10 8 9 8 11 14 13 10 8 11 14 20 27 33 37 42 47 53 54 68 89 88 88 93 94 93 89 94 94 92 91 90 88 88 85 88 84 82 82 80 84 90 92 92 91
16 13 12 11 10 10 10 6 10 10 9 9 10 14 12 24 28 34 41 46 52 60 62 66 88 91 91 92 94 95 92 93 94 93 90 89 86 88 86 83 84 83 82 81 90 92 92 91 90
17 14 13 10 10 10 11 7 11 9 8 7 14 18 14 22 31 38 42 47 57 63 67 72 81 77 94 93 94 94 96 94 95 94 85 87 92 91 79 80 79 80 84 90 92 92 91 90 88
16 14 16 12 13 13 9 9 8 9 8 13 14 17 18 22 37 48 44 43 48 62 70 83 82 79 75 78 94 94 93 93 94 92 89 86 93 96 96 88 84 83 86 92 92 92 90 89 88
15 19 18 14 15 13 10 11 8 8 9 9 10 12 17 25 35 48 49 46 48 59 62 80 84 78 81 73 75 92 93 91 93 90 95 93 81 91 92 92 86 88 95 93 92 92 90 89 88
17 17 16 12 14 14 11 11 10 12 13 13 11 11 24 28 33 45 47 47 53 58 61 70 85 81 83 79 78 70 64 62 64 68 77 71 79 80 68 78 87 89 95 95 94 93 92 78 55
21 19 14 16 15 13 13 12 10 12 15 13 14 12 13 14 28 38 40 36 45 48 52 58 76 69 75 87 83 62 55 59 72 72 76 82 74 68 65 82 85 90 89 95 87 79 58 58 56
27 21 19 15 15 16 16 13 14 12 14 12 11 11 11 13 17 27 34 37 39 47 48 57 72 73 85 82 82 74 64 59 72 67 75 79 76 78 70 77 77 95 94 95 87 71 68 64 52
22 17 14 15 16 15 14 15 15 14 12 11 10 11 14 14 14 14 20 26 37 43 49 55 78 83 82 87 84 87 71 77 82 77 70 64 72 69 84 86 88 94 96 92 86 66 68 59 50
18 20 18 18 18 18 20 17 15 15 13 13 14 13 12 13 12 12 15 24 34 42 47 55 70 77 73 76 87 89 80 76 88 87 79 68 77 83 85 89 92 94 96 91 74 61 67 53 47
21 24 20 19 18 20 17 19 18 15 14 15 14 13 11 11 10 13 16 25 33 41 44 63 77 80 75 70 82 91 92 88 85 82 83 82 80 88 89 85 94 94 95 93 76 65 59 50 45
24 22 25 16 22 21 22 25 12 12 15 15 15 13 11 11 11 11 18 25 32 40 50 62 72 80 74 80 82 87 91 91 87 89 88 83 77 86 84 86 94 94 96 95 77 60 56 52 46
25 23 23 22 18 19 22 24 18 16 16 17 15 13 12 11 11 13 20 27 32 40 52 62 71 75 78 81 85 86 88 90 94 94 95 89 80 78 86 91 90 90 96 95 72 57 53 54 47
21 23 21 26 23 24 23 22 19 17 16 19 16 15 14 13 12 12 19 29 36 41 52 61 76 78 77 77 86 88 91 93 94 96 95 94 96 92 90 90 93 88 94 93 72 64 58 50 46
24 30 28 22 19 23 24 21 17 16 18 20 18 17 15 14 12 12 18 33 41 46 52 60 81 78 81 86 92 94 94 94 95 91 88 90 92 99 95 95 94 90 91 89 78 58 58 56 52
28 28 30 28 26 28 26 23 18 16 15 16 18 18 16 14 12 12 19 36 46 49 53 59 70 74 74 72 76 84 91 93 89 90 90 87 82 92 97 96 94 93 91 89 76 67 58 55 53
34 39 37 39 35 31 31 26 20 18 18 16 17 16 16 15 13 12 21 38 45 50 57 56 61 64 68 66 67 71 86 88 92 92 90 88 80 91 96 94 95 94 90 88 72 64 61 59 55
41 36 40 41 41 31 27 30 22 20 19 17 16 18 16 15 13 13 16 34 44 48 55 54 58 63 62 59 65 71 77 90 77 77 96 86 89 96 96 93 94 94 89 84 73 57 62 57 61
37 40 40 40 44 43 36 38 23 22 24 20 17 17 16 16 13 15 16 24 36 45 56 58 59 65 58 58 62 63 80 79 70 82 93 94 93 94 97 95 96 94 88 79 69 67 66 58 54
36 40 33 35 43 55 34 35 24 22 26 22 23 20 22 21 21 18 18 29 37 47 58 62 63 67 61 60 65 74 77 78 73 85 87 98 98 98 96 94 94 91 84 75 73 71 66 61 59
40 38 33 44 60 44 30 35 30 24 35 36 34 33 32 32 29 22 30 36 42 54 72 72 62 70 68 62 62 67 64 74 75 72 81 94 97 98 98 95 92 91 86 79 72 76 72 67 63
39 37 42 50 43 32 32 39 28 40 38 39 38 41 40 37 34 24 33 39 44 54 78 76 67 73 72 64 59 71 71 78 77 76 70 78 86 87 88 96 94 88 86 85 84 84 82 78 76
52 58 40 61 52 61 32 27 36 36 39 40 46 50 55 52 46 31 36 43 48 55 80 81 72 71 72 70 62 71 74 74 78 80 80 80 79 78 89 96 97 95 90 87 87 88 86 86 84
49 45 79 72 78 55 29 34 42 56 54 50 57 63 71 71 61 43 45 52 50 64 76 79 68 70 71 70 74 63 67 70 74 78 76 66 72 78 82 92 95 96 92 87 88 87 84 87 87
57 60 69 92 68 58 52 85 86 81 72 75 68 74 83 84 88 61 56 56 63 72 80 81 68 71 76 78 78 66 63 69 74 73 74 75 80 82 85 79 86 91 95 93 93 90 86 88 85
33 43 54 69 70 85 94 65 77 69 70 74 74 76 81 83 86 90 82 79 80 82 84 84 67 66 67 77 74 72 70 67 71 73 76 79 79 81 80 81 83 87 92 94 95 94 93 93 87

GFSSGP_sfc_rhum_081.txt.gz
RH
51 24 14 10 12 10 8 6 4 5 7 7 10 9 7 7 12 20 21 32 29 34 45 65 91 92 92 92 92 92 92 90 90 91 91 91 91 91 91 90 89 86 85 82 79 78 78 80 88
19 15 12 10 13 10 7 5 4 6 4 9 10 11 11 13 10 16 24 30 30 31 43 49 90 92 93 93 93 92 92 90 90 91 91 88 91 91 89 90 89 86 84 82 78 78 82 88 91
29 12 12 11 11 13 7 4 4 4 7 8 8 10 14 13 12 14 24 30 25 27 35 47 89 92 94 94 95 94 93 91 91 90 91 91 91 90 86 88 90 86 84 80 78 81 87 92 92
17 13 11 12 11 8 7 6 4 4 8 7 7 11 11 12 19 18 25 28 28 29 31 84 91 93 93 94 94 94 94 94 94 92 91 90 90 89 84 85 88 84 83 81 80 85 91 93 93
12 10 14 12 10 8 6 5 5 7 8 8 7 9 9 12 14 20 25 28 33 35 37 65 90 89 93 93 94 91 90 94 94 92 92 90 89 88 83 86 87 84 82 81 85 92 93 93 92
16 13 15 13 10 7 6 5 5 6 8 9 9 9 10 11 14 20 26 33 36 43 46 59 83 88 91 94 95 94 91 93 95 94 90 89 84 85 82 83 83 79 79 82 91 93 93 92 91
18 14 15 12 10 8 6 6 7 6 7 6 6 10 10 10 18 20 27 33 41 48 54 63 70 75 93 94 94 95 94 93 96 95 90 83 89 95 91 83 80 80 80 88 93 93 92 91 90
15 15 16 12 12 10 6 7 6 6 7 6 6 11 11 19 20 30 31 32 40 51 57 64 69 70 68 70 95 94 94 95 93 90 91 91 94 95 94 97 90 88 86 84 92 95 92 91 89
14 19 19 14 12 10 8 8 6 6 6 6 8 10 9 18 17 30 34 35 37 48 55 76 76 68 64 68 69 92 93 91 92 86 89 91 74 79 87 94 95 92 91 82 95 94 92 91 89
16 19 16 11 9 10 9 9 8 8 10 10 8 7 9 18 16 26 34 38 38 45 51 66 78 69 64 50 77 66 65 63 64 58 67 66 78 76 80 87 91 95 95 95 96 94 93 86 68
15 18 13 9 9 10 11 10 9 9 11 10 12 11 10 12 13 22 26 30 35 38 43 49 73 69 70 58 75 59 59 58 67 64 68 72 84 81 84 90 85 88 92 91 95 92 76 67 61
16 14 13 11 10 11 13 11 10 10 11 9 9 9 9 10 13 15 19 26 29 34 38 45 56 58 60 52 67 54 56 69 58 64 72 82 80 81 90 69 77 82 86 94 95 91 76 66 60
12 11 11 12 10 10 12 13 12 11 9 9 9 10 10 10 10 10 11 18 25 28 37 44 50 54 60 80 84 74 53 52 68 63 71 76 69 77 78 69 77 69 80 94 95 91 74 63 56
11 11 12 11 10 11 13 13 12 11 9 10 10 10 10 10 10 9 11 13 21 27 35 42 56 60 68 78 81 78 72 68 66 67 66 69 74 72 75 79 74 83 88 91 92 90 78 64 58
16 18 14 12 12 14 13 16 15 12 11 11 11 11 11 11 9 9 11 12 15 21 30 45 60 63 64 64 72 72 82 83 82 77 74 70 68 73 73 72 84 88 95 93 93 93 78 52 51
17 17 18 12 11 13 16 21 12 10 10 12 12 12 12 11 9 7 10 11 12 20 33 42 52 64 61 59 68 74 78 77 86 84 87 70 66 78 85 86 90 91 96 96 95 94 75 67 45
20 21 16 13 12 15 16 21 13 12 13 12 12 12 12 11 8 8 9 10 14 21 35 45 58 64 65 61 78 78 83 89 93 87 88 77 77 80 90 84 93 93 95 97 95 93 68 55 57
16 16 16 16 14 18 20 18 15 13 13 15 14 13 13 11 9 8 10 12 17 24 35 47 58 61 61 64 74 68 84 86 90 85 83 78 83 87 87 90 95 91 96 97 96 91 66 51 52
19 19 18 16 13 16 18 16 14 12 12 14 16 16 14 13 10 9 11 14 22 28 38 48 59 60 59 61 69 72 76 73 83 84 85 91 86 84 87 95 95 93 92 95 94 91 70 66 57
21 24 24 18 15 22 23 21 16 14 13 12 12 14 15 14 12 10 11 16 29 33 40 48 56 59 58 54 58 61 71 69 68 75 81 84 86 87 98 95 95 90 93 95 96 92 80 62 57
23 24 24 24 21 19 22 22 19 15 17 15 13 11 11 14 13 11 11 17 32 35 44 47 54 57 58 54 57 63 81 73 78 78 81 77 76 76 85 96 95 94 93 93 89 92 78 70 66
28 20 25 31 29 27 17 28 19 14 14 14 14 15 13 14 13 12 10 16 30 35 42 45 51 54 56 56 61 72 73 73 65 66 71 73 74 80 89 96 94 94 94 92 89 88 85 69 63
30 25 34 32 31 28 24 24 18 15 17 16 15 14 14 14 14 12 11 11 23 34 43 47 49 51 53 54 52 56 56 59 59 62 77 88 84 92 97 96 96 96 95 93 91 89 82 69 63
24 33 34 28 28 39 28 23 18 16 22 21 19 18 15 14 14 12 10 10 20 31 44 50 50 50 51 52 52 56 56 60 62 69 81 94 93 95 98 98 97 95 94 94 91 87 76 69 63
33 39 36 27 40 42 21 26 21 18 27 28 29 26 27 26 24 18 14 13 19 33 47 50 49 54 51 53 54 54 56 65 74 70 78 94 98 97 98 98 98 98 96 92 89 87 77 73 68
30 34 37 45 40 43 33 32 32 29 27 29 29 34 36 40 39 26 18 18 25 35 48 50 49 58 52 53 54 53 53 57 57 61 64 78 88 92 96 96 96 95 95 93 90 79 73 75 74
35 41 27 42 37 40 27 19 25 33 34 33 38 40 47 50 51 41 22 28 31 42 65 64 50 67 58 53 52 53 59 61 63 66 72 79 76 82 88 95 96 95 94 94 93 92 82 78 80
32 36 65 53 65 50 27 27 72 58 50 52 56 58 61 66 69 63 30 34 36 56 70 76 63 71 62 54 51 60 60 61 66 69 71 71 74 72 81 90 93 95 93 89 91 90 89 88 90
39 47 49 57 57 60 57 78 70 68 64 66 60 61 73 80 83 77 73 46 54 68 74 81 73 72 71 69 58 65 69 63 66 69 67 67 72 75 81 84 92 96 95 93 90 85 88 88 86
24 36 44 70 52 53 61 67 69 62 66 66 60 66 74 79 82 84 88 86 76 81 82 80 74 72 74 67 67 70 68 68 67 68 63 65 69 74 81 82 81 91 94 94 95 94 88 85 82

GFSSGP_sfc_rhum_084.txt.gz
RH
53 33 22 18 16 15 14 9 6 6 4 5 6 9 9 8 17 28 30 32 48 53 72 77 93 92 92 92 93 92 92 91 92 93 93 92 93 93 93 92 91 89 85 82 79 79 76 81 91
24 20 18 15 17 16 12 7 7 5 4 8 9 10 10 11 9 23 31 30 34 43 60 70 94 93 93 93 93 94 92 91 92 92 92 92 93 92 92 92 91 89 85 82 79 76 80 88 92
30 15 17 17 16 16 14 8 7 4 6 7 8 6 10 12 9 19 31 34 33 42 48 66 93 94 94 94 94 94 94 93 92 92 92 90 92 88 88 90 91 87 84 82 77 79 88 93 93
20 22 16 19 16 11 10 8 7 5 6 7 7 8 10 13 18 20 29 29 34 40 43 89 92 94 94 94 94 94 95 95 94 94 92 90 90 86 87 87 87 85 84 83 81 86 92 93 93
14 17 22 19 16 11 9 7 6 6 6 7 8 9 10 11 13 24 32 30 42 51 74 76 93 94 94 94 94 94 95 96 95 94 94 92 91 86 86 88 86 86 83 83 86 93 94 93 92
23 18 21 19 15 10 8 6 6 6 6 6 8 9 10 9 14 24 34 42 52 58 73 80 89 93 94 95 94 93 93 95 96 94 92 92 91 88 85 83 83 80 81 81 85 93 93 92 91
25 21 22 18 15 12 9 7 6 6 6 6 6 12 11 9 21 24 34 46 56 63 72 82 81 83 94 96 96 95 92 93 92 94 93 91 93 93 89 90 93 91 85 83 92 94 93 92 91
23 22 22 17 16 14 9 7 6 6 7 7 5 9 9 17 24 36 38 37 48 66 73 81 82 83 85 89 96 95 94 93 92 94 94 94 91 91 93 94 90 96 97 89 93 95 92 93 93
18 27 27 21 17 14 10 9 7 6 6 6 6 7 10 19 18 36 41 41 50 62 68 81 81 81 82 80 86 93 94 95 94 92 93 96 86 92 94 93 94 94 97 97 92 96 96 95 94
19 28 25 17 14 13 10 9 9 9 9 8 8 9 10 15 20 26 40 44 52 61 66 77 83 82 80 62 84 82 80 83 85 79 85 85 88 90 91 94 95 95 97 95 96 96 95 93 93
15 22 18 15 12 10 10 11 9 11 12 11 12 12 12 14 20 30 27 34 42 50 58 75 83 81 81 72 82 79 77 77 80 80 81 86 92 91 94 93 92 94 97 96 96 96 91 86 85
16 13 12 12 12 12 12 11 12 12 13 9 9 10 10 11 20 25 26 29 36 41 49 68 75 76 81 73 78 78 76 78 78 82 81 92 96 88 90 86 90 93 92 96 96 96 91 84 80
13 11 10 11 11 11 11 12 12 12 10 9 9 10 11 12 12 14 14 17 24 35 45 55 70 72 75 77 78 81 76 77 82 84 83 85 94 89 88 86 88 86 89 94 97 96 91 84 79
12 11 10 9 10 10 11 11 10 10 9 9 9 10 10 12 12 11 13 14 23 29 42 54 62 67 70 80 86 88 85 80 81 88 82 82 88 90 82 83 84 86 90 94 96 96 93 93 84
16 18 16 15 13 13 11 14 13 11 10 11 11 11 10 11 11 12 12 14 18 26 32 57 68 70 79 79 85 88 86 84 81 82 81 82 84 86 82 83 85 87 90 94 94 96 96 96 89
19 18 20 13 10 10 11 19 12 10 10 12 12 12 13 12 12 12 14 12 13 22 32 53 62 74 78 79 82 80 85 90 90 88 88 82 79 83 85 90 91 92 96 96 95 95 96 96 91
21 26 21 16 10 10 12 19 13 11 12 13 14 13 13 14 12 13 14 11 11 16 34 56 69 74 76 76 79 82 84 89 92 93 91 85 79 79 89 86 90 94 96 96 95 97 97 97 92
23 20 17 16 12 13 14 16 15 13 12 15 15 15 15 14 14 14 14 11 11 15 38 59 67 74 74 77 83 85 92 90 92 95 95 88 87 85 91 92 95 94 96 97 98 98 98 94 80
20 23 23 18 13 15 17 15 14 13 12 13 13 14 16 17 15 13 15 14 19 34 44 62 71 75 72 82 84 87 92 89 94 92 90 88 89 91 93 95 95 93 93 95 95 98 97 97 75
19 21 21 17 15 18 17 17 17 18 17 15 13 13 15 18 16 16 17 21 33 40 46 62 67 69 68 72 74 71 75 82 84 84 87 88 90 90 92 96 94 93 96 96 95 96 97 96 79
21 22 22 21 17 18 24 23 18 15 14 16 15 14 13 15 18 17 17 22 38 44 51 56 64 65 66 66 67 71 76 80 77 87 90 88 88 88 91 95 95 96 96 97 95 96 94 92 88
29 18 19 25 26 38 22 38 21 14 15 15 17 18 18 14 13 16 16 17 38 43 52 54 60 61 64 65 67 75 79 82 76 80 87 84 83 87 91 95 94 94 94 96 95 95 94 94 79
21 20 24 27 36 38 34 29 20 15 15 14 16 18 20 17 16 18 17 16 34 42 53 55 61 61 63 63 69 74 78 74 74 80 84 86 90 89 92 94 96 96 96 95 94 97 94 95 84
23 28 26 31 36 52 37 25 24 21 30 29 24 25 30 22 18 17 17 16 28 38 52 58 62 62 62 65 71 75 74 71 75 84 88 96 94 92 95 96 96 94 94 96 95 95 94 94 89
30 38 43 41 38 47 47 58 28 36 35 29 29 39 41 46 51 50 34 15 18 42 54 58 59 61 63 66 67 69 71 72 72 80 87 94 97 98 98 99 99 97 96 94 92 95 96 94 92
30 36 49 48 54 42 35 81 45 34 41 49 48 50 50 54 60 60 58 71 26 46 56 58 57 57 62 65 64 66 69 72 74 78 85 91 95 95 94 98 98 99 96 95 95 92 94 92 91
30 36 27 45 39 47 34 43 64 63 48 49 54 55 60 63 66 68 68 73 31 45 59 62 56 56 59 63 66 68 70 73 80 81 81 86 90 91 94 96 98 98 98 96 95 93 94 90 87
28 26 63 82 72 54 30 39 86 81 71 57 57 61 66 69 72 74 78 83 58 56 70 73 67 59 65 69 66 64 72 73 77 80 84 87 90 91 94 96 96 97 98 99 98 98 96 95 95
31 41 41 50 55 71 84 95 91 79 70 63 58 61 72 76 79 78 83 83 85 74 82 82 76 79 71 80 71 74 74 77 79 79 80 80 84 86 91 93 95 96 97 97 98 98 98 97 96
25 29 40 71 58 56 63 68 71 57 56 57 60 63 72 76 80 80 82 84 90 95 87 85 84 85 82 74 77 83 80 80 82 80 79 83 84 86 89 92 94 94 95 96 96 94 92 93 96

GFSSGP_sfc_rhum_087.txt.gz
RH
76 65 54 40 39 34 34 22 14 12 10 12 13 14 14 14 29 51 56 67 74 82 86 86 93 93 93 92 92 93 93 93 93 94 94 93 93 93 93 92 92 89 87 83 82 80 82 86 90
50 35 40 38 35 39 29 17 15 11 9 15 13 12 13 18 27 44 56 60 68 80 87 90 94 93 94 95 94 93 92 92 94 93 94 94 93 94 93 93 92 90 87 84 78 77 83 89 92
42 30 40 38 39 31 29 16 13 10 8 12 14 11 15 19 32 40 45 56 62 71 78 87 94 94 94 94 96 95 94 94 94 94 94 93 92 91 92 92 92 90 87 84 78 80 88 94 93
33 39 35 40 36 25 18 14 12 10 10 12 12 14 17 24 29 39 44 50 59 60 74 95 95 95 95 95 94 95 96 95 95 95 93 92 90 90 90 91 90 88 86 83 82 88 93 93 93
28 35 46 43 32 24 17 13 11 11 10 11 10 15 16 28 35 37 42 47 67 80 86 91 95 95 95 95 94 94 96 96 96 95 93 93 90 89 89 91 87 88 87 82 85 94 93 93 92
33 38 51 42 32 21 16 13 11 10 9 8 12 12 14 18 38 41 47 64 79 86 88 89 93 95 96 95 95 95 96 97 96 96 94 93 92 90 87 88 87 82 84 86 85 94 93 92 91
48 47 46 38 28 22 17 13 13 11 10 8 9 16 14 34 40 43 54 63 84 88 92 96 96 94 96 96 95 95 96 97 97 96 94 93 94 94 90 89 90 95 95 96 91 94 93 92 90
39 48 51 38 30 26 16 14 12 11 9 13 10 15 14 39 38 48 58 63 76 90 94 95 96 97 98 100 96 95 94 93 92 92 94 94 94 91 94 92 93 92 91 94 96 95 92 92 94
33 49 50 43 32 25 16 16 12 11 9 10 11 9 27 33 35 41 48 69 78 84 93 95 96 96 97 97 95 95 95 94 94 93 96 97 97 96 96 94 93 90 91 94 97 98 98 97 95
29 42 41 29 25 24 19 16 14 13 16 15 14 14 24 26 36 45 49 54 83 83 95 92 95 96 96 85 96 98 96 99 97 96 96 97 98 99 97 96 93 92 94 95 96 99 97 96 98
28 27 22 24 22 20 18 15 15 16 18 20 20 16 16 26 28 33 47 49 72 71 85 89 89 94 94 88 98 99 98 98 97 93 96 97 98 99 95 99 96 97 95 97 97 99 96 95 95
28 20 18 16 15 16 15 16 16 16 17 16 14 15 14 17 30 33 33 35 43 69 78 86 82 93 94 97 97 96 94 95 96 94 94 98 99 98 98 99 100 96 97 97 95 97 97 95 91
18 16 15 14 14 15 15 15 15 16 13 12 10 11 14 17 18 28 30 30 30 59 73 85 84 88 87 95 97 97 96 93 93 96 94 97 98 95 98 97 98 97 96 94 97 96 97 94 88
15 17 17 18 19 18 17 17 16 14 12 11 11 11 11 13 17 16 22 24 24 28 66 84 82 83 82 94 94 97 96 96 96 96 94 96 97 97 94 96 95 98 96 95 95 96 97 95 93
23 26 21 20 19 18 16 19 17 13 13 13 12 12 12 11 11 17 14 18 17 26 48 83 82 84 85 92 95 97 96 96 97 95 94 94 94 94 97 97 95 96 97 97 98 98 98 97 92
32 31 34 23 17 14 17 22 14 12 12 12 11 11 11 12 14 11 16 14 14 18 49 76 72 84 87 95 97 98 97 97 97 97 96 94 94 90 91 95 97 98 98 98 98 97 97 96 96
39 44 34 26 18 16 17 20 16 13 15 17 18 20 18 14 14 14 14 16 12 18 51 70 77 85 88 94 95 96 94 98 98 97 97 93 94 94 95 94 97 97 97 98 97 97 93 95 97
44 35 33 32 24 20 21 21 17 15 14 14 14 12 13 15 18 13 14 16 14 14 56 71 76 86 91 93 96 97 89 98 98 98 97 90 93 92 96 97 98 99 98 98 98 97 97 97 97
28 27 29 26 22 21 21 20 18 15 14 14 14 13 13 13 15 18 19 15 17 16 66 74 81 89 90 92 96 97 92 96 100 99 96 94 94 95 98 98 97 97 98 96 96 97 97 98 97
27 29 30 24 20 21 22 23 22 21 19 18 17 16 15 12 12 18 19 21 19 41 72 77 80 84 89 88 88 97 97 92 98 98 96 91 95 97 98 97 96 97 96 97 96 96 99 98 97
30 33 31 27 23 22 25 26 29 23 20 17 14 15 16 14 16 14 19 23 29 56 72 79 81 80 87 86 87 91 95 98 98 98 97 94 94 97 96 96 96 96 94 96 97 95 93 96 97
35 27 26 25 31 50 39 58 36 28 22 16 28 20 16 15 13 18 20 23 51 68 72 76 78 78 82 82 84 86 90 96 96 93 92 98 96 95 96 96 96 94 94 96 96 94 95 95 93
31 26 30 33 38 48 40 51 39 29 26 18 63 50 27 22 30 23 20 19 45 58 72 75 80 78 75 79 81 87 94 94 94 96 96 97 97 96 96 97 96 96 96 95 95 97 96 94 92
27 37 41 42 45 60 43 57 57 41 33 51 66 64 64 64 67 65 62 65 56 59 67 72 78 76 74 77 81 84 92 91 94 96 98 99 98 98 98 97 96 95 96 96 96 94 93 96 92
35 50 75 65 66 62 38 50 62 78 73 64 67 67 71 70 70 72 78 80 79 81 68 74 77 78 75 82 78 82 85 87 92 94 97 98 98 98 97 98 98 98 95 95 95 96 94 96 94
42 48 77 77 74 60 37 55 70 85 65 56 60 63 71 74 76 78 80 84 86 78 73 73 79 79 78 81 78 79 84 81 89 90 94 96 94 91 94 98 98 97 95 98 96 97 95 94 97
45 50 39 57 53 64 44 34 67 70 73 71 60 63 73 77 80 80 78 80 90 76 74 80 77 75 78 78 80 79 80 83 92 95 94 93 92 93 97 98 99 98 98 97 96 96 95 95 95
35 39 74 87 92 82 47 76 97 83 69 71 71 72 78 78 80 78 80 85 89 94 94 95 80 79 77 78 76 79 80 86 90 89 93 97 96 91 97 98 98 99 99 98 96 95 96 94 96
45 50 54 64 76 89 89 90 88 86 75 76 74 73 81 80 82 81 82 84 87 90 93 96 94 89 80 83 81 81 80 83 85 89 92 93 95 94 96 96 97 98 99 99 98 96 93 96 97
44 52 57 74 72 76 83 92 78 77 75 65 72 72 78 79 81 81 81 82 86 90 90 92 96 93 87 84 85 90 84 86 89 88 87 91 94 95 96 96 95 96 98 99 99 98 95 95 97

GFSSGP_sfc_rhum_090.txt.gz
RH
76 66 53 41 39 38 40 29 21 15 16 12 14 16 15 15 28 35 71 76 80 89 91 93 94 92 92 93 93 94 94 93 93 93 92 92 93 92 93 93 93 90 87 82 81 81 82 85 90
54 43 42 44 44 42 34 27 19 15 14 12 11 13 14 18 44 70 72 76 74 84 91 93 95 94 93 93 94 94 93 92 94 94 93 92 93 93 93 94 93 90 88 83 81 81 85 89 93
43 34 43 47 48 37 31 22 16 14 12 11 13 12 17 27 51 60 65 75 81 86 88 89 96 96 95 94 94 94 94 95 95 95 94 93 93 93 92 93 91 90 88 84 80 81 87 93 93
37 42 45 50 45 34 25 17 19 15 13 11 11 11 19 30 43 54 67 74 81 85 87 96 96 96 96 95 94 95 96 96 95 95 95 94 93 92 92 92 90 90 87 84 82 88 91 93 92
31 46 56 60 47 34 25 20 18 17 15 12 12 13 17 38 45 58 65 64 76 86 94 96 96 96 95 95 96 96 96 96 96 95 95 95 93 92 92 92 90 90 87 83 82 84 90 93 91
34 42 62 52 36 30 25 21 19 16 14 13 13 14 15 42 50 58 62 67 72 91 95 96 95 96 96 96 95 96 97 97 97 96 95 94 93 93 91 90 90 89 88 89 88 94 89 92 91
38 56 62 56 42 33 24 21 20 17 17 13 12 16 22 41 48 54 66 81 85 91 96 98 98 97 97 97 97 97 98 98 97 97 96 95 94 93 91 88 89 90 91 92 90 93 91 85 91
49 58 70 55 41 41 25 21 19 19 15 14 11 14 17 43 53 70 80 87 92 90 94 98 99 99 99 98 97 98 98 98 98 97 97 96 96 94 92 92 92 92 94 93 93 94 96 83 90
40 64 71 61 49 40 27 26 21 16 16 16 15 13 25 42 55 68 87 96 98 95 97 97 98 99 99 99 97 96 95 95 96 96 95 97 98 97 94 92 93 94 93 94 92 92 94 96 94
36 55 54 43 38 34 28 26 24 18 18 19 17 19 28 39 50 61 77 92 96 98 98 97 97 98 99 92 98 99 97 98 98 98 97 98 98 99 95 94 95 95 93 92 95 96 97 98 98
35 37 31 26 23 24 27 26 22 20 20 20 22 20 21 28 40 55 62 75 82 90 96 97 96 96 97 96 99 100 100 100 99 98 98 99 99 99 99 99 99 98 95 98 98 98 98 98 99
33 25 23 21 19 20 20 17 19 19 19 16 18 16 18 18 30 40 55 61 76 90 92 95 94 96 96 98 99 99 99 99 99 98 98 99 98 95 98 93 91 97 99 99 98 98 98 99 97
29 27 24 22 21 19 18 19 19 18 16 15 14 13 14 17 21 25 32 42 70 82 88 91 93 92 94 97 98 98 98 98 97 98 98 96 95 95 93 94 91 94 93 92 99 96 96 97 97
19 18 20 20 21 22 22 22 22 18 16 15 15 14 14 16 16 20 24 31 40 74 83 90 87 89 89 96 95 97 98 97 98 98 98 97 98 99 98 99 94 91 88 93 96 96 96 97 96
29 34 31 26 23 23 20 19 19 16 17 16 14 13 13 12 15 16 17 23 27 39 73 88 88 90 89 94 92 96 98 98 98 97 97 97 97 98 97 98 99 94 90 95 95 98 98 99 97
34 39 45 31 23 21 21 28 18 14 15 14 13 13 12 12 12 11 16 19 21 23 70 86 81 90 92 90 91 95 98 98 97 98 97 97 96 96 97 96 96 98 96 94 94 96 98 99 98
46 54 43 34 24 24 25 28 20 18 17 18 18 19 19 18 17 15 12 15 16 16 52 84 85 90 91 93 92 96 97 98 98 98 98 97 97 95 97 98 97 97 95 95 95 98 95 97 99
51 50 46 40 30 26 27 26 21 18 18 18 18 18 17 16 16 14 16 14 14 14 54 82 84 88 91 95 96 98 98 98 96 97 97 96 96 96 97 98 98 96 97 97 97 97 98 96 96
35 38 38 30 24 29 26 25 21 19 21 21 21 19 17 14 13 14 17 20 17 17 68 77 88 92 93 97 97 97 98 98 99 99 96 96 95 95 95 98 98 97 98 96 96 98 96 98 97
33 36 36 28 24 25 24 24 20 21 21 19 20 22 19 17 15 14 15 24 25 27 58 79 85 92 88 91 85 90 92 98 95 99 98 97 97 97 96 96 98 97 97 96 96 96 96 98 98
35 38 39 35 31 29 32 32 30 28 28 25 23 30 57 57 25 15 14 20 26 40 79 81 85 88 85 89 95 97 98 99 99 99 99 98 96 97 97 96 95 96 95 95 96 96 94 96 99
37 31 33 35 40 44 41 57 37 33 28 26 26 72 70 70 69 38 46 51 51 48 68 77 83 83 89 90 91 92 86 93 90 88 98 98 97 99 98 95 95 95 96 96 94 96 94 92 96
34 32 37 38 47 54 41 57 42 45 83 80 72 72 74 72 70 76 81 81 80 81 74 76 84 88 89 88 90 89 92 94 96 98 97 98 98 99 98 96 95 96 95 95 94 96 96 94 92
32 42 46 50 57 67 43 52 60 86 87 71 73 74 78 76 75 75 78 79 81 89 89 82 85 88 88 86 89 89 95 95 96 96 98 98 98 98 99 98 98 96 95 95 95 95 95 95 92
34 53 75 78 74 74 41 54 56 80 73 70 72 82 82 81 79 79 78 83 87 93 93 88 87 90 88 87 88 88 90 90 90 94 97 98 96 98 99 98 99 98 96 96 95 96 96 96 95
43 50 75 83 74 49 43 63 79 73 66 64 78 77 80 85 78 79 80 82 86 89 90 90 90 93 89 89 88 86 88 88 91 95 96 95 96 96 98 99 98 98 97 97 96 96 96 97 94
48 59 42 66 58 76 59 76 73 65 66 74 84 80 80 78 80 78 80 83 86 90 97 95 87 86 88 87 88 88 88 90 94 96 96 97 93 92 95 98 98 98 98 98 98 98 98 97 96
42 49 65 86 85 85 62 56 81 75 72 68 80 86 81 78 78 77 80 85 88 91 94 97 97 90 88 87 87 88 86 87 91 96 96 94 96 94 95 96 98 98 98 98 98 98 97 96 97
50 60 74 72 82 86 89 85 86 81 77 79 77 80 86 82 81 80 82 84 88 90 92 95 96 98 96 94 91 89 88 87 90 94 96 94 95 95 95 94 98 99 99 99 99 99 98 95 97
38 68 87 99 91 84 84 72 74 76 72 75 81 78 82 84 81 80 81 81 87 89 91 94 95 96 99 97 90 89 90 92 94 96 95 96 95 94 95 97 97 98 99 99 99 98 98 96 98

GFSSGP_sfc_rhum_093.txt.gz
RH
78 64 53 40 38 40 39 29 26 22 17 14 16 19 17 16 25 23 76 76 86 89 92 93 96 95 94 93 92 92 91 90 90 92 92 92 92 92 92 92 90 89 87 82 81 79 79 82 88
53 47 42 42 38 47 31 31 21 17 15 15 13 14 17 17 51 72 75 81 81 87 92 92 95 95 95 94 94 93 91 90 90 91 93 93 92 93 93 94 93 90 87 80 80 80 84 88 90
45 37 43 49 53 41 25 22 20 18 15 16 14 14 16 18 56 66 71 80 83 89 91 93 95 95 95 95 95 94 93 93 92 92 92 93 93 92 93 93 92 90 87 83 74 77 82 90 92
40 44 47 53 48 41 26 23 22 21 18 16 15 16 14 32 59 57 78 81 87 92 92 97 96 95 95 95 95 96 96 95 94 94 93 93 93 92 93 94 90 89 87 84 81 85 88 91 94
35 51 60 68 58 42 28 24 25 24 21 18 16 18 16 28 54 72 81 79 89 96 97 96 97 96 95 94 95 96 96 95 95 95 95 94 93 93 93 92 92 90 88 85 83 83 88 92 93
38 48 66 58 42 33 29 28 25 24 21 18 16 16 16 48 71 71 76 81 84 94 97 96 96 97 97 96 96 96 96 96 96 96 96 95 94 94 92 91 92 91 86 87 85 87 88 91 92
34 55 58 65 48 40 30 25 26 23 24 17 17 20 19 55 67 72 76 81 90 93 96 98 98 97 97 98 98 98 97 97 97 96 96 96 96 95 93 92 90 90 89 88 88 88 89 88 88
54 55 74 55 45 43 32 30 25 26 20 18 18 20 23 34 64 88 94 97 98 98 97 98 98 98 98 98 98 98 98 98 98 97 97 97 96 95 93 92 93 90 90 89 89 90 92 88 89
48 70 84 58 49 45 33 36 31 25 20 19 19 20 25 57 78 93 96 99 98 96 98 96 94 94 93 94 98 98 98 99 99 98 98 99 98 97 96 95 92 92 94 92 94 96 94 91 94
41 70 55 47 42 44 38 36 31 28 28 25 21 20 16 36 52 87 95 97 97 98 99 99 98 96 96 96 99 99 99 99 99 98 98 99 99 99 97 95 93 94 95 95 96 95 91 92 95
39 48 39 34 32 31 29 27 23 26 26 25 23 22 19 15 40 67 81 92 89 90 96 98 98 98 98 98 97 98 98 100 99 98 98 99 100 99 99 100 99 99 96 99 97 96 96 96 97
40 30 27 29 24 26 25 23 23 21 21 20 18 21 19 17 19 27 53 67 92 96 94 96 96 97 97 98 98 94 93 98 100 100 99 99 99 96 98 98 97 99 97 98 98 98 98 95 97
33 28 27 27 28 28 24 25 22 22 18 18 17 16 18 20 19 18 25 38 67 88 93 96 95 96 96 98 98 99 95 96 99 99 98 94 96 93 95 92 93 95 94 98 99 99 97 97 98
23 22 23 24 23 23 24 25 27 21 17 18 19 19 18 18 20 19 19 22 40 54 86 95 96 94 96 97 97 98 98 98 99 99 94 94 93 94 91 92 93 85 86 95 99 98 98 98 96
32 37 35 33 31 24 23 24 24 18 18 18 18 16 15 17 18 20 17 18 20 39 68 95 96 95 96 96 97 98 98 98 98 98 95 92 93 93 91 92 91 87 88 92 99 98 99 98 95
34 41 47 36 29 25 27 30 24 20 20 20 19 16 16 16 16 15 18 18 16 30 66 86 87 94 96 95 96 97 98 98 98 98 97 95 98 98 98 95 97 93 94 95 97 98 98 97 97
44 52 47 38 30 29 29 32 26 21 20 20 19 19 18 16 17 17 17 17 17 18 42 79 91 91 94 95 96 95 97 98 98 98 98 96 97 97 98 97 95 95 95 94 96 97 94 98 99
49 49 64 51 32 33 31 29 23 22 22 23 22 21 20 19 17 15 14 17 18 17 24 62 87 89 92 96 97 98 98 99 98 98 98 97 97 97 96 96 95 95 94 96 96 97 97 97 97
38 44 44 38 30 34 31 29 24 22 25 24 21 21 21 24 34 39 20 16 18 24 24 52 87 91 94 98 97 98 98 98 99 98 96 97 97 98 98 95 97 92 94 93 95 98 97 99 98
38 41 40 35 29 34 34 31 26 25 26 25 25 38 75 70 66 65 66 40 20 20 35 52 78 92 92 92 93 94 93 96 96 97 97 95 97 98 97 96 96 94 96 96 97 96 97 98 97
40 42 40 40 36 35 35 34 30 29 38 65 72 74 73 76 74 71 71 80 80 59 47 71 77 90 88 89 96 99 98 99 100 99 98 98 97 98 96 97 96 96 96 98 97 96 93 95 98
47 34 35 39 43 50 37 54 34 35 80 75 71 78 80 78 74 72 77 79 82 83 82 68 78 86 88 92 94 95 89 92 90 95 93 98 98 98 97 97 97 97 97 97 96 95 94 94 97
40 36 37 43 48 57 49 61 40 65 80 76 65 67 81 79 76 78 73 70 79 83 93 79 82 86 88 93 88 90 88 90 98 97 96 98 99 98 96 96 97 97 96 95 96 98 97 96 94
31 42 47 54 59 70 41 55 60 94 88 77 65 75 81 80 78 73 70 70 75 86 90 92 91 91 89 90 90 85 89 95 98 98 94 99 99 98 97 94 97 96 96 97 96 96 95 95 93
34 44 63 64 75 71 47 58 55 86 75 72 71 85 81 82 81 75 75 80 80 84 90 91 92 90 93 89 93 92 93 92 94 96 97 97 96 96 97 98 98 97 97 96 96 96 96 95 96
43 45 65 69 78 53 47 66 58 76 71 72 80 81 78 81 79 76 78 82 83 83 90 96 92 93 92 93 93 94 92 91 93 94 95 92 87 89 92 95 94 98 97 98 97 97 96 96 96
49 57 43 55 64 73 62 61 76 75 68 72 82 82 85 82 82 77 78 82 86 86 92 95 96 94 92 94 94 96 94 94 94 96 95 91 89 95 92 98 99 99 99 98 98 98 98 98 97
42 51 77 92 92 86 67 65 74 76 70 72 88 89 86 80 77 75 78 83 86 88 91 93 95 94 93 93 95 94 94 94 96 97 98 98 98 97 97 99 99 99 99 99 99 98 97 97 97
46 52 73 83 84 92 88 84 82 76 78 85 85 87 90 83 80 78 79 81 86 88 90 93 95 97 96 97 98 97 95 96 96 97 98 98 97 96 97 96 96 94 98 96 98 98 97 98 98
46 82 83 97 93 86 96 88 84 88 80 79 82 80 82 81 82 80 78 80 86 89 90 92 93 96 98 98 98 97 96 96 95 98 98 97 98 98 97 96 98 99 99 99 99 99 99 98 98

GFSSGP_sfc_rhum_096.txt.gz
RH
76 60 52 36 28 39 40 20 33 21 16 19 17 17 17 17 19 29 69 81 85 93 95 93 92 94 94 93 92 92 91 89 90 93 94 94 93 91 91 92 91 90 87 82 80 79 79 82 86
54 48 42 44 26 32 21 31 25 20 16 17 17 17 19 18 28 57 77 79 86 90 95 94 94 90 95 94 93 92 91 90 90 91 93 94 93 92 92 92 91 90 87 83 79 78 80 88 88
46 39 38 47 46 28 22 23 24 19 19 20 17 16 18 19 38 62 72 86 91 93 94 95 96 96 95 95 94 94 92 91 92 91 91 92 92 91 91 92 92 90 87 81 78 81 88 89 90
44 46 46 45 46 43 26 26 29 26 23 21 20 21 17 15 48 62 84 86 93 97 96 97 97 97 96 95 95 95 94 93 93 94 92 92 92 92 93 93 91 90 86 84 82 77 90 90 92
41 52 54 66 58 44 34 28 31 28 26 23 23 21 21 16 58 82 88 84 92 97 97 97 97 96 95 95 95 96 95 94 94 94 94 93 92 93 93 93 92 90 87 85 84 84 90 92 94
41 52 59 49 44 38 30 31 27 28 26 22 20 22 20 29 67 80 88 91 91 95 97 96 96 96 95 95 96 96 95 95 95 95 95 94 94 94 94 93 93 92 88 88 87 89 91 93 94
36 50 55 63 49 44 30 27 27 28 30 22 22 24 20 22 54 82 86 93 95 96 98 97 95 95 96 97 96 97 96 95 96 96 96 96 96 95 93 92 94 91 89 90 90 91 92 92 93
42 44 70 56 46 42 32 31 29 35 30 20 22 25 24 26 82 94 96 98 98 98 94 93 91 95 98 97 97 97 97 97 96 96 97 97 96 95 94 93 92 92 90 90 89 88 91 90 95
61 73 81 56 49 41 38 42 37 32 27 27 23 22 21 49 86 91 93 95 97 98 98 93 90 88 90 92 98 97 97 98 98 97 97 99 98 97 95 95 94 92 92 91 90 91 92 93 97
57 82 57 49 40 43 42 45 36 33 32 31 27 25 22 32 74 90 94 96 97 97 99 89 90 90 86 86 96 98 93 94 96 96 99 99 99 99 98 97 95 94 94 94 95 92 92 91 98
44 55 46 39 38 42 37 31 29 34 34 29 26 23 24 21 26 76 82 89 93 93 97 94 90 89 90 88 92 95 91 93 96 99 99 99 100 99 99 100 99 99 97 99 98 97 98 97 98
43 36 33 34 33 32 31 31 27 28 25 22 23 22 23 20 22 29 63 72 82 87 95 95 98 92 91 91 91 86 86 92 96 99 99 99 99 98 98 98 99 99 99 99 98 98 97 98 98
42 38 33 30 29 32 31 33 30 25 20 21 21 20 21 22 22 22 22 32 60 90 94 94 97 98 98 94 91 88 86 90 93 98 99 95 98 96 95 97 96 99 99 97 95 93 95 97 96
28 26 23 26 25 26 25 28 26 23 21 20 20 20 20 22 22 20 21 20 27 56 78 92 96 95 98 95 95 91 89 89 92 96 95 95 94 95 94 94 96 93 94 94 94 93 94 96 95
33 40 34 33 34 32 28 31 28 22 24 21 20 19 20 20 19 20 19 20 20 28 43 85 95 94 96 96 97 98 96 92 93 92 92 90 93 93 92 94 95 94 93 98 99 99 99 99 98
37 44 48 36 33 28 27 35 22 22 24 23 21 20 19 20 20 19 20 22 20 23 35 48 86 95 94 94 94 98 98 98 97 95 92 92 91 91 94 95 96 95 95 95 97 96 95 97 98
48 56 50 38 31 32 31 40 28 22 24 24 23 23 22 20 20 25 29 26 20 20 27 48 85 95 94 94 94 96 97 98 98 96 93 93 92 94 95 94 94 96 97 96 96 97 94 95 97
56 54 64 47 34 35 34 33 29 26 25 26 26 26 26 40 48 61 63 63 66 41 22 27 69 92 95 94 95 97 98 98 96 97 93 92 95 94 97 96 96 96 97 98 98 96 96 96 95
42 45 48 42 33 36 35 32 30 27 29 29 32 55 83 79 69 66 64 68 73 78 50 27 56 91 94 94 95 96 95 95 97 94 92 91 93 95 96 97 96 96 96 96 95 96 97 99 97
38 43 43 38 33 37 38 35 31 30 30 62 84 86 86 81 71 66 66 73 79 83 83 69 37 79 94 85 88 94 94 92 94 94 94 95 94 95 96 97 97 95 96 96 96 96 99 97 96
44 45 44 42 39 38 42 44 38 30 64 77 78 82 81 83 79 74 71 74 74 80 85 82 88 64 88 87 88 99 98 99 99 98 99 97 97 96 95 94 95 96 94 96 96 97 98 98 98
53 40 39 43 49 55 40 57 37 56 68 80 69 71 86 82 79 75 75 73 72 75 80 82 84 83 87 88 89 91 88 89 88 97 98 99 98 98 96 93 95 90 95 98 96 96 96 95 97
47 40 44 46 51 62 55 58 54 71 75 76 69 77 91 85 85 81 73 70 68 70 78 80 83 89 84 90 89 93 92 90 95 90 75 91 98 98 98 97 93 94 95 95 97 98 97 96 94
34 42 48 57 62 66 48 53 58 56 78 77 74 81 74 79 74 73 67 67 72 78 81 80 85 93 91 85 90 94 90 96 98 96 96 96 97 98 98 97 97 94 95 96 97 96 96 96 95
37 44 57 60 73 63 50 59 52 57 73 78 84 90 86 80 78 75 73 75 76 81 86 87 88 92 93 86 89 93 92 93 93 95 96 95 98 98 98 97 97 96 94 94 96 97 97 97 97
46 44 60 66 73 63 47 64 55 68 72 80 86 86 83 84 76 77 79 79 79 82 87 90 91 95 95 94 91 92 95 96 96 94 92 92 95 96 96 96 94 91 97 97 95 97 96 96 97
51 56 53 59 66 69 58 54 53 78 79 91 87 84 87 85 81 78 80 83 82 85 89 93 92 92 94 94 94 95 96 97 97 98 97 94 89 89 92 93 94 96 96 96 98 98 98 97 96
39 49 79 88 89 76 68 68 72 78 81 90 89 91 88 82 80 79 76 80 82 86 88 91 92 94 95 96 95 96 95 96 97 98 97 93 90 90 89 93 95 98 98 98 98 98 97 98 97
40 60 81 84 89 97 95 86 93 97 96 92 86 85 87 86 84 80 82 80 83 86 88 90 93 95 96 98 97 98 98 98 97 97 97 95 93 95 95 94 98 99 99 99 99 99 99 98 98
49 83 77 94 94 88 94 88 90 93 90 85 86 82 81 82 81 80 79 80 86 88 88 88 91 96 94 96 98 98 98 97 98 98 98 98 98 98 97 96 96 95 97 97 99 98 98 98 98

GFSSGP_sfc_rhum_099.txt.gz
RH
56 39 32 22 14 18 14 11 18 13 12 12 14 13 13 11 12 15 44 62 69 67 77 79 95 94 93 92 92 91 91 94 94 91 89 88 90 90 90 91 90 90 87 86 82 80 82 85 88
35 33 27 25 13 13 11 16 15 14 12 15 15 13 14 14 14 17 40 62 63 66 72 73 96 94 94 93 93 92 90 92 94 94 93 90 90 90 91 92 92 90 88 84 80 79 82 87 89
32 29 21 22 16 14 12 14 14 14 17 16 15 13 15 15 17 22 52 63 64 67 69 71 93 94 95 94 94 93 92 92 94 95 94 93 92 91 91 93 92 90 87 84 79 81 88 88 90
31 27 28 21 19 22 15 14 16 18 17 15 15 16 13 14 30 42 56 68 69 69 68 89 94 93 95 94 94 94 92 92 92 94 94 92 92 91 92 93 92 90 87 84 82 86 91 90 91
28 27 22 26 26 25 23 19 18 20 19 18 16 18 18 14 29 52 71 74 76 74 72 81 96 96 95 94 94 94 93 93 93 93 94 93 92 92 93 93 91 91 87 84 86 89 90 91 92
25 30 25 22 20 26 23 21 18 19 19 19 17 19 18 16 33 56 72 74 77 80 80 80 94 96 95 95 95 95 93 93 93 93 93 93 94 94 93 93 93 93 90 89 88 89 91 93 94
24 27 27 29 28 27 23 20 20 20 24 21 18 22 18 16 43 69 73 77 81 84 86 84 85 87 98 98 97 97 95 94 94 94 95 94 95 95 93 93 93 93 92 90 89 91 91 93 95
25 23 32 30 23 22 21 23 22 23 21 19 16 21 23 18 43 72 73 73 78 86 85 84 85 89 87 87 98 97 96 96 95 95 96 96 96 95 94 94 94 92 91 90 92 92 91 94 94
36 29 27 24 29 21 27 29 26 24 24 23 20 20 17 18 34 60 69 73 75 85 86 86 85 85 86 86 86 96 96 96 96 94 96 95 75 77 78 86 93 95 93 92 93 92 92 95 96
36 38 26 32 26 26 24 32 27 25 25 24 20 19 20 18 17 36 56 66 74 77 90 85 88 89 87 79 87 86 83 81 83 83 82 80 80 77 77 85 95 96 92 93 94 92 93 94 76
31 27 38 34 31 30 30 28 25 26 27 23 22 18 19 18 21 27 30 63 66 64 72 84 86 87 89 86 83 85 82 82 90 90 89 89 88 80 78 84 76 79 89 79 84 81 74 74 74
25 29 26 26 24 24 27 23 22 22 22 19 17 17 19 17 20 21 18 25 52 67 60 71 77 86 89 86 84 81 83 84 89 92 92 92 94 88 84 82 79 80 78 89 79 85 81 77 74
34 30 28 25 24 25 24 25 24 22 17 16 17 18 17 18 17 16 16 16 19 33 53 71 77 83 83 90 86 86 81 81 84 92 89 87 91 87 89 88 85 76 77 82 86 85 78 76 75
24 27 25 22 21 21 22 22 23 20 17 17 16 16 16 17 16 16 16 18 21 21 24 62 75 79 82 84 88 85 81 77 85 92 87 88 86 90 89 93 90 85 83 86 91 91 85 79 77
26 30 28 27 25 26 25 25 25 19 18 17 16 17 16 16 15 16 19 22 21 21 20 28 65 78 83 81 83 86 82 79 81 86 90 89 88 90 90 90 90 85 85 88 95 91 92 89 81
27 32 33 28 26 24 22 30 17 17 18 18 18 17 18 17 18 24 41 43 42 40 40 33 26 69 85 84 88 86 88 86 86 85 88 87 87 90 92 90 90 84 91 94 97 95 94 92 93
36 30 38 31 25 26 23 28 19 16 19 20 20 18 20 28 44 48 49 49 49 51 59 48 38 44 74 83 82 84 86 90 89 87 85 90 88 89 91 86 86 85 91 94 95 94 90 93 95
33 37 38 33 24 27 25 25 22 20 21 24 21 24 46 54 49 50 50 51 53 58 62 63 54 41 60 78 86 88 91 88 84 86 85 85 90 90 92 90 91 88 89 94 94 92 91 91 94
34 35 35 31 26 26 28 26 24 23 24 23 27 58 57 55 54 50 52 53 56 59 61 64 67 64 44 78 83 86 89 86 88 84 86 87 90 92 92 93 91 90 92 92 92 93 91 98 94
30 33 30 28 27 30 28 29 25 24 24 27 55 55 59 61 55 53 53 56 61 61 62 65 66 66 59 55 68 73 82 87 84 88 91 89 90 92 94 92 92 93 94 93 94 93 97 96 94
33 33 38 35 31 30 32 29 27 24 48 62 57 56 65 63 60 58 58 60 60 62 64 63 67 68 69 68 66 77 84 92 96 96 97 92 90 91 92 88 92 94 93 96 94 92 95 95 96
40 34 34 36 38 37 31 34 29 32 40 57 54 65 63 59 58 57 61 60 61 62 64 67 69 70 69 72 70 73 78 78 80 84 92 96 96 97 98 94 92 93 93 93 92 91 94 95 97
38 35 37 38 41 42 38 37 32 40 49 48 58 64 64 61 60 61 60 60 59 64 67 72 73 73 74 78 73 74 80 76 75 82 93 96 92 93 88 90 96 94 93 90 88 96 96 95 95
31 37 41 46 46 49 36 34 30 30 44 52 59 69 67 64 62 60 59 63 66 67 72 75 77 79 76 80 76 80 79 79 86 84 94 89 88 88 83 90 95 92 92 90 90 92 94 95 93
32 37 39 45 54 40 39 42 28 30 51 60 74 69 69 67 66 64 63 70 75 73 80 82 82 84 79 88 75 83 83 79 83 82 80 80 79 84 86 94 93 94 90 90 84 95 93 95 96
37 34 36 46 49 42 44 46 37 50 68 74 69 70 70 69 66 64 66 71 79 78 82 87 88 87 85 90 85 87 91 91 85 82 76 75 76 84 89 90 94 93 87 91 92 94 92 94 96
44 44 44 47 52 47 35 38 46 63 83 74 74 72 76 71 70 69 67 70 81 83 86 90 89 86 87 92 90 91 93 93 93 85 84 86 89 92 95 92 94 93 93 92 90 95 96 96 96
41 45 69 71 58 45 43 48 52 81 88 76 75 79 75 69 67 66 66 72 79 86 86 88 88 90 90 95 93 93 91 90 92 92 95 91 92 96 94 94 94 93 94 88 92 94 93 95 96
24 37 72 66 71 69 57 60 77 80 81 78 78 76 74 70 68 67 69 71 79 82 87 87 88 91 93 93 96 96 94 95 95 94 90 92 94 96 91 90 88 88 94 92 98 98 97 98 97
50 69 68 60 69 78 81 68 71 78 76 74 76 72 72 69 69 68 71 74 82 84 87 87 89 92 93 91 94 98 96 94 93 94 90 93 94 92 88 86 89 89 97 98 98 98 98 96 98

GFSSGP_sfc_rhum_102.txt.gz
RH
39 17 16 15 13 9 9 7 7 8 8 8 9 10 10 8 10 12 8 40 45 42 52 73 94 91 91 91 91 93 93 90 90 89 90 90 90 90 90 92 91 90 86 84 82 80 79 85 90
16 16 14 11 11 10 8 7 8 6 9 11 11 11 11 12 11 15 18 35 44 39 49 58 95 92 92 92 91 92 93 93 92 90 90 91 91 90 91 92 92 90 88 86 80 78 84 88 90
17 17 12 12 11 11 9 8 8 8 11 10 11 10 12 14 14 17 21 36 42 42 45 48 94 93 92 92 91 91 93 94 94 92 91 91 91 91 91 92 93 91 88 86 79 81 88 89 91
13 12 12 13 13 11 11 9 9 10 10 10 10 11 11 13 18 18 27 44 46 44 43 75 95 94 92 92 91 91 92 94 95 95 93 92 91 90 92 93 92 90 88 85 84 85 89 89 92
13 12 13 15 13 11 12 11 10 10 11 11 11 11 13 11 12 20 32 47 55 50 48 56 96 95 93 92 91 92 92 93 95 95 95 93 92 92 93 93 93 91 89 87 86 90 89 89 91
14 14 15 15 12 11 12 12 11 12 11 11 13 13 13 12 12 22 33 49 59 58 58 60 88 95 94 93 94 93 93 93 93 95 94 94 94 94 93 93 92 92 92 90 90 92 90 90 91
15 16 16 14 14 14 14 14 13 13 14 14 14 18 13 12 13 21 34 49 61 64 65 66 70 79 98 97 96 95 94 93 93 94 94 95 95 95 93 92 92 92 92 91 90 91 90 91 92
13 14 15 15 15 14 11 13 12 14 12 16 14 15 17 15 12 17 28 43 55 65 70 70 74 78 70 72 98 96 94 94 94 94 94 95 95 94 94 93 93 93 93 91 92 94 92 92 94
14 15 15 13 14 14 12 14 12 16 17 15 15 15 15 12 11 12 18 30 51 62 65 74 77 80 80 68 69 93 96 94 95 91 96 91 60 67 70 77 90 94 93 92 94 94 93 94 95
17 16 14 11 12 12 11 15 12 15 13 14 14 12 12 12 13 15 14 19 48 55 62 63 74 81 80 74 78 70 64 63 64 62 66 64 60 57 53 68 94 95 93 92 93 95 94 94 64
16 19 14 15 15 12 12 13 12 13 16 14 16 14 13 13 14 16 14 12 23 42 50 56 67 71 74 75 70 77 73 68 68 64 61 63 57 58 58 57 64 67 86 59 68 70 64 60 62
16 14 13 12 12 15 14 12 12 12 13 11 11 12 12 12 14 13 12 12 13 17 31 47 54 65 72 65 66 70 78 75 78 79 83 75 72 58 58 54 57 64 57 58 56 55 59 60 60
19 12 11 12 12 12 11 13 14 13 12 10 11 13 12 12 12 11 10 11 12 14 16 27 49 60 62 69 62 63 71 67 67 73 78 79 73 71 58 56 57 63 56 61 61 63 64 64 66
13 15 14 16 16 15 18 14 14 14 12 12 13 13 12 12 12 12 12 15 18 18 18 20 30 48 56 62 64 62 62 57 67 73 79 84 74 68 73 74 72 53 60 68 64 70 64 68 69
16 19 15 15 15 14 15 17 16 14 13 14 13 12 12 13 12 14 21 27 27 27 28 33 30 36 52 60 59 60 54 57 53 67 81 83 80 73 73 73 71 70 63 73 76 79 74 74 70
20 19 21 16 16 15 18 20 15 12 13 12 12 13 13 13 17 26 33 32 30 32 37 39 36 38 39 52 54 54 53 56 51 56 73 76 80 75 80 75 75 78 79 81 85 86 89 87 76
21 22 21 18 17 17 19 19 14 13 14 14 14 13 14 17 26 32 34 33 34 35 43 45 46 47 43 40 49 54 61 62 56 53 60 70 82 76 80 76 74 81 86 83 87 91 87 87 75
24 22 19 20 16 18 18 18 14 11 12 17 15 15 19 26 30 34 34 35 36 38 42 44 45 52 52 45 42 50 51 70 60 59 58 66 80 82 82 78 82 84 86 84 87 88 87 85 81
22 20 20 18 16 21 18 14 12 14 15 17 15 21 28 33 32 31 35 37 40 42 44 45 49 51 50 46 35 45 53 66 62 55 60 66 73 83 82 82 86 85 85 83 86 87 92 90 87
24 24 22 18 15 16 17 18 16 16 15 15 17 30 35 36 34 36 37 40 44 45 47 49 49 50 50 48 44 38 45 48 56 57 66 67 74 82 82 86 88 87 86 86 86 81 92 90 90
26 24 22 18 19 21 23 22 17 16 17 26 29 35 39 40 41 39 41 44 46 48 51 51 52 53 56 57 51 47 48 50 65 71 77 73 76 82 84 86 88 88 86 87 82 86 90 96 96
27 18 19 22 28 25 21 19 18 16 23 30 35 40 40 42 41 40 42 44 48 50 53 56 58 57 56 61 58 56 47 49 52 58 77 84 84 88 87 91 90 91 90 90 86 85 84 87 96
25 22 28 26 28 28 24 25 14 16 22 30 36 44 45 45 44 43 43 43 44 52 56 62 65 64 65 68 72 67 57 52 46 55 78 89 90 90 87 91 92 94 92 91 88 85 80 86 91
27 32 30 30 29 38 24 22 15 19 20 27 40 48 50 47 44 42 42 43 45 50 58 66 71 72 71 73 75 78 73 57 50 55 81 91 95 92 90 88 88 90 92 91 92 87 79 82 88
38 36 47 48 45 35 19 21 16 20 30 35 49 52 51 49 47 44 44 45 50 57 63 70 76 78 75 78 80 78 74 64 65 59 76 92 92 93 92 84 85 88 89 88 89 88 83 83 90
39 32 45 50 35 25 28 28 37 48 50 52 52 53 52 49 47 45 46 49 53 61 65 76 83 83 81 84 85 84 68 63 65 71 79 80 83 76 78 81 73 72 79 86 89 89 81 79 89
30 36 23 34 32 34 23 28 51 63 62 58 54 53 53 49 48 48 47 53 58 64 71 84 84 82 82 88 90 88 73 68 81 82 85 81 69 61 67 73 84 92 92 88 90 87 80 87 93
33 26 51 46 48 39 21 23 31 61 57 46 48 53 53 49 48 49 49 56 60 67 71 85 84 85 85 88 91 90 83 80 79 84 84 82 70 70 75 80 86 94 93 90 91 84 86 93 94
28 38 49 46 45 46 39 39 56 54 49 48 46 52 56 54 53 52 52 56 60 63 70 84 84 87 89 89 91 94 91 86 85 88 88 91 88 82 87 86 96 95 95 92 92 90 81 84 92
25 36 35 47 41 44 58 42 50 52 51 49 46 54 56 55 54 52 52 56 61 63 69 79 86 89 89 87 89 94 94 96 96 95 94 91 93 89 86 88 94 95 90 88 87 86 87 91 97

GFSSGP_sfc_rhum_105.txt.gz
RH
42 18 11 11 13 10 9 6 5 6 7 6 6 7 8 7 8 12 10 23 34 35 51 67 92 91 91 91 93 93 91 88 88 90 91 92 92 92 92 94 92 90 86 83 81 81 80 82 88
15 11 11 12 13 10 8 5 6 6 7 7 8 7 8 9 8 12 15 20 25 32 37 53 94 91 92 92 93 93 90 88 89 90 91 92 92 91 92 94 93 91 86 83 82 80 81 87 91
16 11 13 12 12 11 8 7 7 6 8 7 8 8 10 11 10 13 18 26 29 31 34 48 93 92 92 92 93 94 92 91 91 90 91 92 92 91 92 93 92 90 86 84 80 79 85 90 91
11 11 12 14 13 9 9 8 8 7 7 7 7 9 8 11 14 14 19 26 37 34 35 76 94 93 92 91 92 94 95 95 94 92 92 92 91 91 92 93 92 88 89 86 83 85 89 89 91
12 12 15 14 12 10 8 8 8 9 8 8 8 10 9 10 10 12 19 28 42 41 38 67 96 94 93 92 91 92 94 95 95 94 93 92 92 91 92 93 92 90 89 88 86 89 88 88 90
13 11 16 14 11 8 8 9 9 10 9 8 9 10 10 9 10 12 19 32 47 50 45 61 90 95 94 92 91 92 94 95 96 95 94 94 93 93 93 92 93 91 90 90 90 91 89 89 90
15 14 16 14 13 11 10 9 11 10 10 10 9 15 12 10 12 11 15 27 43 54 55 54 70 79 96 96 95 94 94 94 94 96 96 96 95 95 93 92 92 92 92 92 91 94 91 90 91
12 12 15 13 13 12 9 9 10 10 10 12 12 15 13 11 12 11 12 18 35 51 62 59 64 69 70 73 96 95 94 93 94 95 96 97 97 95 94 94 93 92 92 92 92 93 91 91 92
12 14 16 14 12 11 8 11 9 9 13 11 12 12 12 12 10 10 12 14 29 48 59 73 70 72 67 62 71 93 94 93 94 90 95 93 67 71 71 78 87 94 94 93 93 95 94 92 94
15 17 15 11 10 10 9 10 10 11 12 13 10 11 11 11 11 12 13 14 19 40 53 66 82 80 78 59 63 65 63 62 63 60 64 67 60 56 53 67 92 93 94 94 95 95 94 93 58
15 19 14 11 10 10 11 10 8 10 13 12 13 12 12 11 12 14 12 11 12 22 43 47 63 71 73 68 69 67 54 57 58 62 60 62 56 55 53 50 62 68 87 63 73 73 65 61 54
17 14 11 11 10 10 12 11 11 11 11 9 9 9 9 11 12 13 12 11 12 12 21 40 45 59 70 56 60 58 54 60 52 53 63 58 58 55 52 45 54 66 59 60 59 60 65 64 61
15 13 12 9 9 10 9 10 9 9 8 8 9 10 11 11 11 10 9 10 11 13 14 18 32 47 54 63 53 55 56 56 59 64 68 52 49 55 48 47 44 54 57 57 54 68 64 64 64
13 11 11 11 10 11 11 11 10 11 9 9 9 10 11 11 11 10 11 11 15 18 18 22 23 30 42 52 60 56 55 52 56 52 71 77 66 66 51 48 45 44 51 65 56 56 67 69 67
15 16 14 12 12 14 12 14 14 10 9 11 10 11 10 10 10 11 14 19 19 21 22 30 34 29 35 45 49 53 51 51 46 48 60 77 76 70 59 61 67 50 47 68 74 70 66 66 64
19 19 22 16 13 12 13 21 12 10 10 12 11 11 11 11 11 14 22 22 22 24 31 33 32 40 43 41 43 44 44 52 49 45 52 65 67 67 66 55 73 65 53 64 72 67 74 70 71
27 28 24 19 13 14 14 19 13 11 12 12 11 11 11 12 14 23 24 24 26 26 33 36 39 41 46 48 42 43 53 49 48 47 47 61 64 61 68 59 72 67 61 73 78 70 73 75 66
37 32 23 22 16 15 16 18 14 11 11 12 11 11 11 13 17 25 25 28 29 30 35 36 38 43 46 45 46 40 38 47 47 45 48 56 64 67 72 67 75 75 78 82 85 87 79 80 72
28 30 30 18 14 17 18 15 12 12 11 11 12 13 13 17 22 24 29 31 34 35 37 40 44 46 43 42 42 38 34 38 42 45 49 56 59 72 75 71 75 74 79 74 86 86 85 90 82
33 30 31 26 19 16 17 16 11 10 10 11 12 13 17 23 23 28 30 32 38 40 43 44 44 46 45 43 44 44 43 36 37 42 51 54 65 76 80 77 73 76 81 75 85 84 89 89 88
55 45 32 41 34 18 17 16 14 12 12 12 12 15 23 26 29 30 32 35 38 41 47 47 48 50 51 52 49 47 47 47 48 49 50 51 60 70 81 80 77 82 81 84 88 82 85 87 93
73 41 31 36 30 28 16 27 17 13 14 15 20 26 27 31 31 31 33 36 38 40 45 48 51 52 51 54 57 63 56 47 33 40 44 54 59 71 80 81 80 85 82 86 83 79 82 76 90
59 40 44 38 29 25 24 25 18 13 16 20 24 27 33 35 35 35 35 35 34 40 46 51 54 54 55 58 65 71 72 58 47 42 44 54 66 74 76 82 84 89 87 88 86 84 80 74 82
57 60 41 36 31 46 41 29 21 18 15 19 27 33 38 38 36 35 34 35 36 41 49 54 57 57 60 67 71 77 80 75 63 47 47 51 68 82 84 87 87 86 86 91 92 91 81 75 75
63 82 79 76 67 58 24 27 28 19 15 22 35 38 41 39 38 36 36 38 41 47 53 59 62 64 66 74 76 80 83 82 77 64 55 56 77 88 91 91 92 85 85 78 73 82 86 81 79
56 68 62 73 64 48 29 38 49 36 36 40 39 41 41 38 38 38 38 42 44 49 55 65 68 69 71 79 82 82 84 83 75 68 58 59 67 76 87 91 91 87 82 74 82 84 84 83 85
61 55 35 46 41 42 49 48 54 49 48 43 43 41 40 38 39 41 40 44 47 52 60 71 68 67 75 83 86 87 87 89 80 71 63 67 70 70 89 91 90 91 88 86 87 89 87 85 84
33 35 50 54 68 45 32 40 52 63 49 40 39 40 37 35 38 41 41 45 48 54 58 69 69 74 79 83 86 87 88 89 83 67 67 66 70 72 74 84 89 84 79 77 81 90 84 87 82
30 60 54 58 54 56 48 62 64 58 43 41 39 38 37 38 41 41 42 44 48 52 57 67 72 76 83 86 86 88 90 90 91 77 68 66 67 67 70 76 82 82 81 85 84 79 90 86 83
26 27 41 76 55 64 46 53 50 42 40 34 33 35 36 40 42 42 43 45 50 55 58 62 74 78 81 84 86 88 88 89 92 94 90 74 73 75 70 77 73 74 81 83 92 92 91 88 82

GFSSGP_sfc_rhum_111.txt.gz
RH
64 36 38 30 33 36 34 22 17 13 12 12 11 11 10 12 19 41 35 37 62 73 83 85 93 94 94 92 91 91 92 93 93 93 94 93 92 92 92 92 92 91 88 84 84 82 82 85 89
48 30 32 30 36 42 31 18 14 14 12 10 10 10 11 15 16 29 36 34 52 66 80 84 92 93 94 94 93 91 91 92 93 93 94 93 92 93 93 93 92 91 90 86 82 81 83 88 90
44 34 34 34 37 38 30 17 14 11 10 10 11 10 15 23 19 28 35 43 45 66 68 76 93 93 92 93 94 94 92 93 94 94 94 93 92 92 93 93 92 91 91 87 81 83 88 90 93
28 27 25 36 36 26 21 15 12 10 11 10 12 14 14 20 19 24 37 46 54 63 62 88 94 94 92 93 93 94 94 94 95 95 94 93 92 92 93 94 92 90 89 86 88 88 88 93 94
34 30 37 43 31 23 16 13 15 13 11 11 10 15 17 19 19 24 40 51 57 76 82 86 94 94 93 92 93 94 95 95 95 95 95 94 92 92 94 94 93 91 90 88 88 88 92 94 92
30 30 42 42 29 19 16 14 12 13 15 13 14 17 16 18 18 21 31 58 63 81 87 89 92 93 94 93 94 96 96 96 95 95 96 95 94 94 94 93 94 93 93 91 90 92 92 91 90
33 36 40 33 26 21 17 13 16 16 17 16 18 21 19 21 20 17 19 34 70 82 90 95 94 92 94 94 95 97 96 96 95 95 96 96 96 95 94 93 93 93 93 92 92 94 93 90 90
27 31 33 29 26 24 15 13 14 14 17 16 16 20 22 23 19 17 18 20 75 77 94 95 96 97 98 97 96 96 96 97 96 96 96 97 96 96 95 94 94 93 94 94 92 94 94 92 92
24 36 31 29 25 20 15 18 14 13 15 16 16 19 16 19 16 16 21 21 59 77 82 96 96 94 97 97 93 95 96 97 97 97 97 99 98 97 96 95 94 94 94 94 93 95 96 94 93
28 38 30 22 19 21 18 18 16 15 16 17 18 17 17 17 18 18 22 23 28 80 87 88 96 96 92 82 96 97 93 97 98 98 98 98 98 98 91 95 94 94 95 95 95 95 96 96 98
27 28 22 20 18 18 19 18 15 15 18 19 21 20 18 19 23 21 20 22 20 70 84 92 95 94 91 88 98 95 94 97 97 96 98 98 95 97 94 96 91 97 95 97 98 98 99 98 97
30 24 21 19 17 18 18 17 17 15 16 15 14 15 16 18 18 23 20 20 21 24 79 92 94 94 92 92 95 95 91 91 92 90 95 96 96 94 94 91 93 96 94 96 97 98 98 97 94
30 27 24 22 20 19 17 17 17 16 13 12 11 10 13 15 16 19 19 19 24 33 40 50 81 85 89 92 95 94 96 93 87 90 84 84 85 88 88 82 88 90 93 94 93 94 93 92 91
31 29 28 24 21 20 21 20 17 16 14 13 12 12 13 16 16 16 18 22 32 36 48 52 57 61 58 76 88 96 98 96 96 96 90 81 83 82 84 87 85 88 87 90 87 87 90 91 88
30 36 30 28 26 25 21 24 23 17 15 15 15 13 14 15 16 16 26 31 36 47 48 51 58 62 67 62 73 84 94 93 96 96 92 87 87 88 78 84 83 83 81 86 86 89 93 91 90
38 38 45 32 28 26 28 37 23 18 17 17 16 15 14 16 16 25 33 37 47 50 53 54 52 65 68 70 74 72 80 85 91 91 94 90 86 93 95 96 93 85 79 81 85 84 94 89 92
49 57 48 39 29 29 31 36 25 28 23 17 16 16 16 18 32 36 35 44 50 51 55 59 63 66 67 70 71 73 72 76 81 85 90 92 85 83 87 94 95 89 93 87 81 91 84 91 95
58 56 45 41 31 39 43 37 27 26 28 24 17 20 19 20 36 38 44 48 51 56 56 57 61 66 67 69 71 71 75 74 72 68 68 84 93 89 91 85 84 94 91 95 96 88 93 86 91
41 42 40 34 32 40 44 43 46 37 36 34 20 19 19 34 41 45 48 49 54 57 58 61 67 71 69 73 74 71 74 71 68 64 63 66 86 89 88 83 85 86 86 80 90 93 92 98 95
34 39 45 38 32 39 44 51 41 36 38 35 30 18 20 39 42 46 50 54 60 64 64 65 66 69 68 70 72 78 78 79 73 69 66 64 65 79 87 89 88 87 91 90 89 92 98 98 94
32 44 44 43 36 42 50 53 45 35 32 31 26 16 18 39 42 47 48 58 63 67 70 68 68 66 67 69 70 72 73 73 78 75 74 70 68 69 73 84 88 90 93 89 96 98 96 99 99
45 38 59 64 75 88 65 85 53 43 38 33 34 24 41 46 43 45 48 56 62 69 68 69 68 68 62 70 76 81 84 86 80 78 74 74 71 74 74 75 78 88 93 94 96 95 92 92 93
57 64 69 73 81 76 69 86 56 42 39 34 42 39 48 47 45 48 52 54 58 66 74 72 68 68 68 71 76 80 83 80 77 78 79 78 77 76 75 78 79 79 95 94 94 93 89 86 91
60 71 66 74 83 96 61 65 61 48 48 57 53 47 46 45 47 48 48 51 61 68 76 74 70 68 68 71 73 80 82 79 81 80 82 80 81 84 82 78 84 80 79 92 93 89 89 92 86
78 81 95 93 96 86 39 64 66 48 54 63 68 71 50 48 52 53 54 57 61 71 74 65 71 73 70 72 71 76 82 79 83 83 84 85 88 89 88 84 87 89 80 81 91 92 92 93 93
75 76 89 94 94 87 64 92 76 77 87 85 78 75 60 49 48 54 56 61 64 65 71 75 75 77 77 76 77 74 79 82 82 84 83 85 87 86 84 87 85 91 95 90 90 91 92 95 93
75 91 61 86 78 92 75 69 69 83 91 89 75 69 59 48 50 53 58 61 63 64 71 75 76 80 80 80 82 79 80 84 87 86 86 87 88 86 89 89 85 82 87 87 88 82 94 91 91
62 58 95 96 93 90 60 77 97 97 98 94 78 56 55 58 52 54 58 61 63 65 70 76 76 77 80 81 81 81 83 84 86 88 89 88 88 90 93 91 88 85 79 80 83 87 94 94 94
60 70 80 88 96 96 86 98 99 100 98 93 80 58 53 53 56 57 60 62 65 66 68 74 78 80 83 82 82 84 85 85 85 88 88 89 90 89 91 93 90 84 82 79 87 93 92 93 92
39 54 63 98 94 98 98 98 91 84 87 78 52 53 55 56 58 59 61 63 68 70 70 71 77 81 82 81 82 85 84 84 86 88 87 88 89 88 89 92 96 85 76 75 94 94 90 89 94

GFSSGP_sfc_rhum_114.txt.gz
RH
69 39 40 32 33 40 43 28 21 16 15 13 12 12 12 18 23 35 38 58 76 83 89 91 95 94 94 93 94 93 93 92 91 92 90 89 89 90 92 93 93 92 89 84 83 83 82 86 90
53 32 33 35 39 46 38 26 18 15 12 12 13 15 16 26 30 38 42 55 67 78 86 90 95 94 93 92 92 94 93 92 93 93 92 90 90 90 91 92 93 92 90 85 82 81 83 90 91
42 37 34 37 46 45 38 20 16 12 10 12 14 14 19 24 28 34 39 62 69 76 80 82 94 95 94 93 92 93 94 94 94 94 93 91 90 91 90 91 92 92 91 85 80 81 90 91 93
34 30 30 38 41 33 27 22 18 12 11 11 13 16 18 24 24 35 50 58 74 76 73 90 94 94 94 95 94 93 94 95 96 95 94 92 91 92 92 92 92 90 91 89 85 88 91 93 94
36 35 40 49 38 30 24 20 18 16 12 14 13 18 22 24 34 47 56 52 78 83 77 90 95 94 93 94 94 95 95 95 96 96 95 94 92 93 93 93 92 92 92 90 92 91 92 94 94
29 36 46 49 38 27 23 20 18 16 14 15 15 18 26 26 26 44 61 62 82 88 89 89 94 95 94 94 94 96 96 96 96 96 96 95 94 94 94 93 93 92 92 92 92 92 94 94 93
34 39 46 45 35 28 22 18 18 17 16 16 18 22 29 25 24 21 43 73 86 91 93 95 96 94 95 95 96 96 97 97 96 96 97 96 96 95 94 93 93 93 93 94 93 94 94 94 93
31 35 44 38 32 30 22 20 18 18 16 15 18 21 28 23 21 18 19 70 86 94 95 97 97 96 97 97 97 98 98 97 97 96 97 98 96 96 95 94 94 94 94 95 94 94 95 94 93
28 38 46 37 32 26 18 21 22 16 17 16 16 20 20 21 19 19 22 35 88 92 96 97 98 98 98 97 95 97 97 98 98 97 97 99 97 97 96 95 95 94 95 95 95 94 96 95 94
32 42 35 27 26 23 20 20 21 20 20 19 19 18 22 24 20 19 21 21 69 89 94 97 97 98 98 90 97 98 96 98 98 97 95 94 95 98 95 97 96 95 95 95 95 95 97 97 98
34 32 27 23 22 22 22 21 18 21 23 20 21 20 18 19 23 24 21 20 20 37 90 96 98 98 98 97 99 99 99 99 100 99 93 94 91 99 99 99 98 98 96 98 98 98 98 98 99
39 30 28 27 26 26 26 23 23 21 21 16 17 16 16 14 20 23 20 18 26 59 89 94 96 97 96 98 99 99 99 99 99 99 99 96 97 99 99 99 98 98 97 98 98 98 98 98 98
41 37 32 31 30 29 25 25 24 23 19 16 14 14 14 17 17 20 20 21 44 59 81 92 85 82 87 92 96 98 96 96 95 97 96 97 99 98 98 96 98 96 97 97 98 98 98 98 98
39 39 38 33 32 29 28 26 26 23 21 18 17 16 15 16 17 18 21 32 43 53 60 66 68 69 65 84 85 93 97 98 98 98 95 95 91 90 90 93 94 95 94 97 96 97 97 97 97
37 44 38 38 35 32 27 31 32 24 22 20 18 17 16 16 18 18 25 47 51 55 59 65 70 72 71 73 77 88 92 93 95 98 98 96 93 92 84 85 89 90 91 96 96 96 96 97 96
45 48 61 39 36 31 38 42 32 26 28 29 25 23 19 18 17 31 45 54 59 60 63 65 60 70 73 74 75 70 83 91 92 94 96 97 93 92 96 94 89 90 91 94 95 95 97 97 97
60 73 59 48 32 36 43 44 36 29 32 32 34 32 29 20 39 49 57 61 63 62 64 67 67 69 72 74 77 79 80 81 87 88 90 91 94 94 96 96 96 96 95 95 93 94 93 97 97
69 68 62 60 43 45 45 41 32 34 37 35 34 33 31 25 47 56 60 60 61 63 64 64 65 68 70 72 74 76 81 76 77 77 75 76 85 82 96 93 92 97 98 97 95 91 92 91 90
54 56 56 47 36 42 41 40 40 36 37 35 33 32 32 53 55 58 59 60 62 65 67 67 70 73 71 76 78 77 80 77 78 73 72 75 83 82 77 88 95 95 96 87 96 96 97 98 96
57 60 55 38 35 40 44 48 41 37 35 32 32 32 49 53 54 60 65 67 70 71 70 70 70 71 72 74 80 87 80 88 77 79 75 75 78 82 80 86 87 92 95 96 97 93 92 95 98
50 51 45 44 58 51 54 61 44 35 37 33 31 31 43 57 58 62 68 75 74 75 74 73 72 72 72 76 75 77 79 81 83 79 79 77 75 78 83 84 86 87 91 94 94 96 91 84 99
56 58 61 66 73 77 67 81 47 40 39 38 35 57 65 64 57 61 68 75 75 77 73 72 68 70 69 74 79 85 88 89 81 82 79 78 77 80 83 86 87 88 89 91 93 97 96 95 94
64 66 69 75 88 92 70 95 48 38 42 41 66 78 81 77 71 64 67 72 72 73 76 70 71 70 70 74 78 84 86 84 81 78 78 77 78 80 84 87 89 89 86 86 91 98 98 92 94
66 70 71 82 92 99 63 74 73 56 60 64 73 75 76 71 64 61 62 66 72 72 71 70 72 74 72 74 79 76 78 81 83 80 82 81 80 80 80 81 90 90 89 89 90 96 94 94 90
73 78 90 90 86 88 59 70 67 93 93 80 83 86 79 67 69 66 68 71 73 74 71 68 76 77 78 80 81 75 75 78 83 82 84 84 87 88 88 87 89 91 90 88 88 97 96 94 93
80 75 91 92 94 92 61 92 98 94 92 92 82 83 85 76 70 67 68 68 69 72 73 75 76 81 78 80 80 76 76 81 81 82 83 84 86 85 85 88 88 90 90 89 88 92 96 95 95
78 90 66 87 90 97 75 81 76 94 99 98 98 95 95 87 74 74 73 70 68 72 78 78 79 80 81 84 84 81 81 84 86 84 84 84 84 79 84 88 90 90 92 91 88 94 95 95 92
64 65 94 97 96 96 74 92 94 100 100 100 100 100 100 91 82 76 73 70 70 71 73 77 78 82 80 82 81 80 81 83 84 85 87 86 86 87 88 88 88 90 91 93 90 89 89 91 90
75 74 84 84 95 98 96 97 98 100 94 96 98 95 79 67 66 69 73 72 72 70 73 78 80 84 83 80 81 81 81 81 83 85 85 86 87 86 87 86 89 90 92 94 92 86 88 92 92
53 62 75 96 91 98 95 96 94 86 82 73 73 73 72 72 69 69 70 71 72 72 72 76 84 86 86 81 80 81 79 79 82 84 84 85 86 84 85 85 86 87 88 91 94 90 84 94 95

GFSSGP_sfc_rhum_117.txt.gz
RH
69 42 42 31 31 41 48 31 27 16 14 14 13 15 14 23 23 26 43 58 80 85 94 94 95 95 95 94 94 94 92 91 92 90 90 90 91 91 92 93 94 93 90 85 84 83 83 86 87
56 36 32 35 38 43 33 32 28 19 14 13 12 16 20 36 40 45 46 68 76 86 92 94 95 95 95 95 95 95 93 91 92 90 90 90 91 92 92 94 94 92 90 86 84 83 84 91 90
40 36 31 38 50 42 35 30 24 19 15 14 12 15 24 29 39 40 41 70 78 85 89 90 95 95 94 94 94 95 95 94 93 92 90 90 90 91 92 94 94 93 91 85 80 81 91 93 93
35 29 31 38 42 36 32 27 22 20 17 13 13 19 23 27 33 37 54 73 80 85 85 94 97 95 93 92 93 94 95 95 95 94 91 90 90 90 92 93 94 92 90 86 84 89 92 94 94
36 35 38 44 41 34 30 23 22 21 20 13 14 18 28 32 44 52 68 75 81 86 87 94 97 96 95 93 92 94 95 95 95 95 94 92 91 91 91 92 93 93 92 90 90 92 94 94 94
32 37 46 50 40 31 28 23 22 22 20 17 16 18 28 24 40 58 62 71 87 89 91 93 94 95 96 96 95 95 95 96 95 96 95 94 93 94 93 92 92 94 95 95 94 94 94 95 95
35 40 51 50 37 32 28 22 23 21 22 19 19 26 28 24 24 40 65 80 90 91 94 96 96 95 95 96 97 97 97 96 96 96 97 96 95 95 93 93 92 93 95 94 95 94 94 95 94
34 37 60 41 36 33 26 22 23 20 20 18 20 25 29 23 23 25 64 83 92 94 95 97 98 98 98 97 97 97 98 97 97 97 98 98 97 95 94 94 94 93 94 95 94 94 95 96 96
31 40 50 41 35 28 22 26 25 20 19 21 19 23 20 27 22 23 31 78 94 95 96 97 98 98 98 97 96 97 97 98 98 98 98 100 98 97 96 95 95 94 95 96 96 95 96 96 94
35 45 39 30 30 28 24 26 25 24 24 24 21 20 24 21 22 22 24 39 91 95 97 98 98 98 98 95 97 98 98 99 98 97 99 98 91 97 96 97 96 96 96 96 97 96 96 97 98
40 38 32 27 25 31 31 29 24 26 27 23 24 21 20 23 25 27 25 24 60 91 96 98 98 98 98 98 99 100 100 100 97 93 88 92 87 92 94 96 99 99 97 99 98 99 99 99 99
44 34 35 34 33 36 36 31 30 27 26 21 20 20 19 18 20 27 26 24 25 55 79 98 98 99 99 99 100 99 99 100 100 96 95 95 95 95 89 90 90 96 99 98 98 99 98 98 98
46 42 38 37 35 35 32 34 31 31 25 24 21 19 20 20 19 19 24 32 48 79 99 95 81 90 97 96 97 99 99 99 98 99 98 92 94 93 87 87 88 93 99 98 99 97 98 99 99
45 47 44 40 38 38 36 34 35 29 25 25 24 25 24 23 20 19 19 33 68 70 71 73 72 72 70 86 89 94 96 96 98 98 98 98 98 98 98 91 90 92 99 98 98 96 95 96 98
42 49 45 42 42 38 34 39 36 26 32 32 31 30 30 30 25 21 19 51 68 68 68 72 75 73 73 75 80 92 94 94 95 95 92 97 98 97 96 97 98 98 98 98 98 99 99 98 97
51 55 65 43 39 34 46 48 36 36 28 30 36 35 32 30 30 24 49 69 74 72 73 72 66 77 78 81 82 78 88 95 94 95 93 91 91 91 98 96 95 94 98 98 98 98 98 96 95
70 79 67 50 38 40 43 44 42 28 31 34 39 37 37 34 40 72 72 76 76 78 73 75 76 80 82 81 82 84 86 86 92 91 92 86 88 88 92 93 97 96 97 98 97 98 97 97 95
74 78 76 68 43 42 47 44 32 32 40 40 38 36 39 50 74 68 69 70 74 77 74 74 74 78 79 83 84 85 81 80 85 82 81 81 91 87 93 94 95 98 99 96 95 95 96 94 96
62 66 69 59 46 49 46 42 36 37 41 39 34 35 44 75 70 69 70 74 75 74 72 74 76 78 77 82 90 94 89 88 80 82 77 78 86 86 83 86 90 91 96 97 98 95 90 94 98
62 68 69 57 47 46 50 48 40 41 41 37 36 41 69 71 73 72 75 78 78 79 76 75 77 78 79 80 88 88 91 92 84 82 78 80 79 85 83 91 90 92 93 89 98 98 97 98 98
63 68 65 61 63 58 61 61 44 34 36 34 35 37 60 71 75 76 72 75 77 78 76 74 76 76 78 79 80 84 83 84 85 81 82 79 78 81 86 89 93 95 95 94 93 97 97 96 99
73 51 58 67 71 86 70 80 45 44 54 62 75 84 78 75 72 72 77 78 78 73 70 71 72 75 72 74 82 93 97 91 89 86 81 78 78 82 85 88 92 95 94 95 94 93 97 97 98
58 64 65 75 87 91 86 90 74 66 81 91 85 84 89 86 82 78 83 77 72 76 74 76 73 75 78 80 81 82 82 79 77 77 80 80 78 78 81 84 83 85 89 92 95 92 89 96 94
66 67 71 88 90 99 69 70 82 92 95 87 81 78 78 81 76 75 78 79 80 72 69 76 75 75 75 77 79 82 79 81 82 81 84 81 80 82 84 83 87 89 91 92 92 92 94 92 97
74 72 96 94 96 90 63 78 94 94 93 93 94 95 95 92 93 89 75 75 79 79 76 71 78 81 80 82 81 76 78 79 82 84 84 86 86 86 86 86 89 89 90 90 92 94 93 90 96
80 76 89 92 93 90 70 85 96 95 88 89 92 95 96 98 97 96 93 77 72 73 76 78 77 82 83 83 80 77 78 81 81 81 82 84 84 84 84 86 87 88 88 90 92 96 93 90 96
80 88 70 87 91 98 81 95 97 95 94 92 96 94 98 98 99 100 99 90 77 74 76 79 80 81 81 82 83 81 81 84 85 82 82 82 82 79 83 85 87 86 88 90 92 96 95 88 93
66 64 89 94 91 91 79 88 96 99 100 100 100 100 100 97 98 94 97 93 86 80 78 78 81 85 81 81 82 82 82 82 82 84 85 84 83 84 85 85 86 87 86 88 91 94 94 92 92
75 84 84 83 92 93 96 91 91 99 96 97 98 98 97 96 92 89 89 83 80 82 84 85 86 83 81 82 81 84 85 82 78 83 84 85 85 84 84 83 85 84 85 86 90 93 94 94 90
60 66 86 93 96 92 96 92 77 89 86 85 78 83 86 86 89 88 85 78 74 76 79 84 86 83 82 81 82 84 82 82 82 81 82 83 83 82 82 82 83 84 85 86 88 91 93 91 93

GFSSGP_sfc_rhum_120.txt.gz
RH
72 46 42 30 28 36 46 34 30 22 22 17 14 15 15 25 36 33 39 51 79 91 96 94 96 95 94 93 93 92 92 90 91 92 93 93 93 92 92 94 93 91 89 86 83 83 83 82 86
55 40 30 34 34 34 29 34 26 25 20 18 15 20 28 36 44 50 52 70 79 90 97 96 95 95 95 94 94 93 91 91 91 91 92 92 92 93 93 94 94 92 89 86 82 81 84 88 87
44 33 29 39 47 35 33 32 26 23 20 19 16 20 26 32 40 48 44 78 83 91 96 95 95 96 95 94 94 94 93 93 92 92 91 91 91 92 93 94 95 93 90 87 81 82 90 92 90
35 29 33 38 42 40 38 29 28 23 21 16 14 19 27 32 40 40 64 79 86 93 94 96 96 96 94 94 94 94 94 94 93 92 91 91 91 91 92 94 94 92 91 88 85 88 94 94 93
34 36 41 49 45 39 30 26 26 25 24 22 20 22 26 32 48 61 78 79 84 91 93 97 97 96 94 93 93 94 94 94 93 93 92 91 91 92 93 94 94 93 91 89 88 94 94 94 94
34 38 45 48 44 35 29 27 25 25 25 22 22 25 27 26 42 61 69 85 87 90 92 95 96 96 94 93 93 94 95 95 94 94 93 92 92 93 93 94 95 94 94 93 93 94 94 94 93
36 41 53 62 41 38 28 24 26 25 25 23 21 30 28 23 25 38 60 82 90 91 94 96 97 96 97 97 96 95 96 96 95 95 95 94 94 94 92 92 94 94 95 95 94 95 95 95 95
36 38 56 46 41 37 29 26 24 24 26 22 21 23 22 23 26 26 37 86 93 94 94 96 98 98 98 98 98 97 97 96 97 96 97 97 96 95 94 93 93 93 96 95 96 96 95 95 96
34 42 49 42 38 33 26 29 27 24 24 25 23 23 19 22 23 24 25 51 92 96 96 97 98 98 98 98 97 97 97 98 98 98 99 100 99 97 96 95 95 94 96 95 96 96 96 96 96
38 48 42 34 32 33 31 34 31 28 28 29 28 25 22 21 22 26 26 27 60 91 95 98 98 98 98 97 97 98 98 99 99 96 95 97 94 95 98 97 96 96 96 96 96 96 96 97 99
49 42 36 31 30 43 43 39 33 35 34 31 28 25 25 22 23 26 28 28 26 75 94 97 98 98 98 99 99 100 100 96 95 94 95 94 92 93 93 95 99 99 97 99 99 99 99 99 99
50 38 39 42 40 41 41 38 37 29 31 28 26 25 25 22 26 27 26 28 29 29 85 97 98 98 98 99 99 100 100 99 98 96 95 97 98 97 96 92 87 91 96 98 99 98 98 99 99
51 47 44 42 41 41 38 40 37 36 31 29 26 26 28 29 28 27 24 24 31 30 91 93 98 98 98 98 99 99 99 99 98 99 96 97 98 98 97 96 95 90 91 93 92 94 92 94 97
52 50 48 46 42 43 44 41 42 36 35 36 37 35 32 32 33 33 30 28 43 80 94 85 86 85 76 90 92 95 95 97 98 98 98 97 98 97 97 96 94 95 96 93 91 89 89 87 91
47 54 49 45 46 41 40 35 43 36 32 30 31 35 36 36 36 37 38 34 81 81 79 80 82 82 83 87 87 95 95 94 95 95 94 93 93 94 95 96 94 92 91 98 96 98 96 93 90
54 58 63 41 42 39 39 47 35 38 29 29 31 35 34 35 48 80 85 85 82 77 77 77 75 83 84 85 91 91 93 96 96 95 96 92 89 91 94 96 93 96 98 98 97 96 97 98 97
70 70 70 52 39 44 44 52 41 31 30 34 32 42 42 40 78 80 78 80 79 79 78 76 77 82 83 84 87 86 87 89 92 93 93 90 91 89 95 95 96 96 97 99 98 97 97 97 98
73 82 79 70 46 44 50 50 41 36 37 38 37 43 42 86 86 77 77 74 75 76 75 75 76 79 80 85 86 86 85 88 87 87 82 86 90 88 92 94 94 94 96 98 99 98 99 98 97
61 65 70 65 50 59 57 50 44 39 43 45 42 43 56 86 80 76 75 76 77 76 76 78 78 80 80 89 92 90 87 90 89 81 82 84 88 89 89 92 94 95 96 94 91 98 99 97 93
67 79 77 65 53 52 54 56 48 47 48 66 84 72 85 85 79 74 75 75 75 76 72 73 75 77 78 80 85 90 90 90 89 84 85 82 84 89 85 94 95 96 97 95 93 91 99 97 94
72 75 75 72 62 62 67 68 57 55 73 79 85 82 81 84 82 75 73 78 79 78 75 70 72 75 74 76 77 81 87 86 86 86 84 81 80 86 91 93 95 94 95 96 98 97 93 98 99
88 63 64 67 77 85 69 86 78 82 81 77 88 85 86 83 76 75 77 76 78 78 77 77 74 74 69 76 78 84 90 86 80 82 84 82 81 83 86 86 87 89 91 93 93 95 97 98 97
69 60 66 73 86 90 87 90 81 84 84 84 89 89 93 94 91 94 92 81 77 78 83 79 81 84 74 76 77 82 86 83 80 80 81 80 81 79 79 84 86 89 91 91 93 93 90 97 94
65 70 73 90 89 95 78 77 83 91 94 94 93 94 94 95 94 92 86 87 83 78 81 82 77 76 80 79 76 81 82 80 82 82 83 81 80 78 82 82 86 87 89 91 92 93 94 94 91
76 76 96 96 95 91 69 82 90 92 94 92 94 96 96 95 96 95 93 88 86 86 86 86 86 84 78 78 76 77 79 81 82 82 84 84 84 84 85 84 87 88 88 89 90 93 94 95 96
83 74 82 95 93 84 74 92 83 84 81 83 84 87 92 95 96 96 96 96 94 86 81 80 84 86 86 80 80 78 77 80 80 81 81 82 82 82 81 84 85 86 86 87 90 94 95 95 97
84 83 78 93 93 96 84 88 92 86 90 92 94 93 96 96 96 93 94 92 92 93 86 89 84 81 79 81 81 80 77 82 83 80 79 81 80 76 80 82 84 85 85 86 89 93 93 95 95
70 66 93 98 94 90 79 84 93 99 99 95 99 100 100 96 94 87 87 88 87 88 90 87 84 85 81 81 81 80 81 81 82 82 84 82 81 81 82 82 83 83 84 85 87 90 89 93 93
82 84 81 84 88 91 93 91 86 89 89 94 95 97 94 90 87 86 87 87 87 87 87 89 86 86 87 83 82 83 82 81 80 82 82 84 83 82 81 82 82 83 84 84 87 89 87 89 92
68 73 79 95 93 93 96 91 82 83 86 85 89 82 83 82 87 84 79 77 77 84 86 84 85 85 85 80 83 85 84 82 82 83 82 82 81 80 79 80 81 82 82 84 88 90 90 92 93

GFSSGP_sfc_rhum_123.txt.gz
RH
47 31 25 19 18 20 20 20 18 18 17 14 12 11 15 18 28 23 30 38 61 69 73 76 95 94 92 91 90 90 90 92 92 91 89 89 90 90 91 92 92 90 87 86 83 83 80 78 83
34 30 20 22 20 18 18 21 20 18 17 17 15 16 15 20 31 35 34 56 58 64 70 72 96 94 93 92 91 91 90 90 93 93 92 90 89 90 92 92 93 91 88 87 82 83 84 85 84
32 22 18 23 26 19 20 20 20 18 16 15 12 12 20 26 29 35 34 64 62 66 68 70 95 95 94 93 92 91 91 91 92 94 93 93 92 92 92 93 93 91 89 87 82 82 89 88 86
23 18 22 22 24 25 22 20 19 17 15 14 16 14 18 27 32 34 57 63 63 68 70 86 96 96 94 93 93 92 92 92 91 92 93 93 93 93 93 94 93 91 89 88 84 84 93 91 90
22 22 23 26 27 25 22 20 19 19 19 17 16 18 19 20 37 57 62 62 63 68 70 75 97 96 94 94 93 93 93 93 92 91 92 92 92 93 94 95 94 93 91 88 87 85 94 93 92
22 24 25 25 27 25 21 19 18 20 20 16 16 20 18 19 27 42 52 61 68 70 73 74 91 96 95 94 94 94 94 93 93 92 92 92 93 94 94 94 95 94 94 93 92 95 94 94 92
24 25 28 30 29 27 22 19 20 21 20 18 17 18 18 14 21 22 30 58 70 75 78 78 79 83 97 95 95 95 95 94 94 94 93 93 94 95 94 94 95 95 95 94 94 96 94 93 93
24 24 30 29 28 26 21 20 20 21 20 18 17 18 18 17 18 21 19 42 60 72 80 80 82 84 82 81 97 96 96 96 95 95 95 95 95 94 94 95 95 95 95 95 94 95 94 94 94
22 26 31 29 28 25 22 25 23 19 19 21 17 17 17 18 16 18 21 20 34 66 74 81 83 81 82 81 80 95 96 96 97 93 96 94 74 74 74 82 91 94 96 96 96 96 96 96 96
23 30 30 26 24 24 29 28 27 24 24 24 20 20 19 20 19 22 21 23 26 28 42 73 82 85 83 76 80 80 78 77 78 78 82 85 85 82 75 82 96 95 95 97 96 97 96 94 66
29 28 28 24 25 32 32 30 26 26 28 24 26 24 22 21 26 27 23 22 25 25 28 47 80 83 86 82 81 74 75 82 84 85 86 88 85 84 82 80 76 76 87 70 78 79 78 76 70
31 29 27 32 33 33 33 30 28 26 25 24 23 23 22 22 25 26 24 24 23 24 24 37 72 83 84 79 84 92 88 86 84 87 90 88 95 93 92 82 80 80 79 76 73 69 81 81 79
38 36 37 35 35 33 33 33 30 28 24 23 22 22 23 24 24 23 24 25 27 26 32 47 66 84 85 89 92 91 90 89 88 91 91 93 94 94 92 92 92 84 73 80 82 77 78 85 87
40 39 37 36 32 34 34 31 30 28 25 23 22 22 23 25 28 35 47 51 57 62 68 72 78 85 89 90 91 94 94 96 96 95 93 91 95 96 95 93 94 94 94 92 85 80 79 79 84
37 40 36 32 32 31 30 24 27 27 26 23 22 22 22 29 53 66 70 68 67 64 63 68 71 79 86 81 84 85 90 88 90 91 90 88 90 92 92 93 94 91 91 95 91 92 91 80 80
41 43 31 30 31 33 27 30 26 27 25 25 25 24 27 56 67 66 64 62 59 61 64 62 63 73 79 79 77 76 79 82 83 84 84 79 78 82 88 90 92 87 94 92 89 94 95 95 91
50 31 47 35 32 31 32 38 29 26 29 30 27 28 34 65 67 66 62 60 59 60 65 66 69 72 74 72 65 69 72 66 70 66 70 75 70 72 73 76 83 86 95 95 97 95 94 91 91
33 46 51 44 31 37 41 40 36 30 31 43 52 48 66 71 70 63 60 58 55 56 60 65 68 74 72 63 63 58 60 63 61 60 65 69 75 71 72 70 74 75 76 83 95 98 97 96 93
45 46 49 47 41 49 47 42 36 37 64 71 66 68 75 72 63 58 61 60 58 60 59 62 68 71 68 64 65 62 63 63 61 61 67 69 72 76 72 66 71 74 75 74 75 80 96 98 97
53 56 54 50 45 45 43 44 51 64 78 80 79 78 77 72 66 62 62 61 63 64 65 64 66 68 69 65 66 66 67 63 65 63 67 67 71 75 70 77 77 80 80 79 77 76 80 96 95
60 60 60 58 51 46 48 46 63 60 68 74 76 74 75 78 79 73 68 68 69 70 69 69 72 71 73 69 60 61 62 61 62 63 64 66 70 72 78 78 79 80 84 87 87 86 80 82 94
66 54 55 58 55 58 50 59 56 67 68 79 82 91 91 87 80 77 75 71 70 71 69 66 70 74 75 75 71 71 75 78 71 69 66 67 70 73 76 78 81 84 86 88 88 84 87 85 83
52 52 52 56 61 68 59 64 66 64 66 92 88 89 89 91 91 87 80 78 70 69 70 77 69 73 77 79 78 79 78 75 71 69 72 72 71 71 75 78 81 83 84 87 90 90 90 89 87
52 58 61 68 68 77 56 55 60 66 67 85 87 86 86 88 85 80 79 78 81 79 73 68 72 73 76 78 80 87 85 80 78 76 76 75 71 72 73 76 79 81 84 87 88 89 90 93 92
52 62 67 76 85 65 59 67 47 76 72 71 78 86 90 87 87 87 88 83 82 82 80 82 82 82 77 74 74 77 79 78 78 78 78 79 75 76 76 77 81 82 83 83 85 88 89 91 94
63 53 60 74 72 54 60 67 55 70 73 70 75 81 84 89 91 91 85 83 83 80 77 75 75 75 75 78 80 78 75 77 76 75 76 76 77 75 74 77 78 80 80 82 83 87 91 92 95
69 72 52 72 81 85 53 55 75 77 83 84 89 84 88 87 88 87 84 80 79 77 78 80 78 75 75 76 76 74 74 75 78 77 75 75 74 71 76 76 79 79 80 81 83 86 86 90 92
57 53 85 95 85 79 53 58 66 99 100 94 95 99 98 89 84 80 75 76 75 73 76 77 76 78 78 76 77 77 76 76 76 74 78 77 75 76 76 78 78 79 79 80 82 85 84 87 90
66 68 69 69 81 68 56 62 81 92 78 87 88 94 95 85 79 73 70 68 70 72 76 80 79 80 82 77 77 79 80 78 77 77 77 78 76 76 77 79 81 80 82 81 84 86 84 88 89
53 60 65 88 91 94 88 66 67 65 65 74 80 87 78 75 70 65 64 64 67 71 73 75 79 81 82 78 79 80 78 77 76 78 76 77 77 76 78 79 82 80 81 81 83 86 84 88 89

GFSSGP_sfc_rhum_126.txt.gz
RH
35 17 15 13 13 10 11 14 13 13 12 11 11 10 12 12 19 23 26 33 44 41 50 68 92 90 90 90 90 91 93 90 89 89 90 91 90 90 90 93 91 89 86 84 80 78 76 77 83
16 16 13 11 13 11 12 13 14 13 12 11 9 10 12 20 22 27 26 41 40 42 46 53 96 91 90 90 89 90 92 92 91 90 90 91 90 89 91 93 93 90 87 86 80 78 78 83 84
18 13 12 12 12 11 13 14 14 12 12 11 9 10 16 25 24 27 36 45 41 42 42 54 94 93 91 89 89 88 90 92 93 92 91 91 90 89 90 93 93 91 88 87 82 83 87 85 85
13 12 12 14 14 16 14 14 14 12 11 10 10 12 15 21 28 31 40 41 42 44 45 80 95 94 92 90 89 89 89 91 93 94 94 92 90 90 91 93 93 90 88 87 86 86 92 89 87
11 12 15 15 16 16 14 14 14 14 14 12 11 16 16 18 27 33 38 39 43 46 47 54 96 95 93 92 90 90 90 92 91 93 94 94 93 92 93 94 93 92 91 89 88 89 94 92 90
15 14 17 15 17 16 15 14 14 15 14 12 13 14 15 13 14 20 28 36 46 52 53 54 84 95 95 94 93 93 93 92 91 91 93 94 94 95 94 94 94 94 94 93 91 90 94 92 91
19 18 17 18 19 19 17 14 16 16 15 14 14 15 13 12 14 14 16 26 36 49 60 60 61 69 98 96 96 96 95 93 92 92 92 93 94 94 94 94 94 95 96 95 94 94 94 93 92
15 18 20 18 19 20 16 15 16 17 16 15 14 15 16 16 14 13 13 13 17 35 52 61 64 65 63 63 95 96 96 96 95 93 94 94 95 95 95 94 95 95 95 95 94 95 95 93 93
14 18 14 18 20 20 17 18 15 16 17 17 14 16 17 16 14 15 16 15 18 21 25 44 62 62 65 62 64 91 95 94 95 91 96 91 61 56 63 76 87 95 96 96 95 95 95 94 95
17 18 17 19 18 18 19 20 19 17 15 17 16 16 16 16 17 20 18 18 20 21 22 22 40 58 63 54 60 63 60 59 62 61 62 68 62 57 55 65 90 94 96 96 96 96 95 92 52
19 18 19 19 19 20 20 18 19 18 18 15 21 18 18 16 18 20 18 17 19 19 18 19 29 47 62 56 54 53 52 53 59 65 66 73 74 75 67 58 59 64 84 60 71 73 73 65 52
21 18 17 18 23 22 21 19 19 15 16 14 17 17 15 16 18 20 21 23 24 24 24 36 37 40 55 54 54 52 52 58 60 65 75 73 77 73 73 78 69 62 52 59 70 73 64 63 58
21 20 24 23 23 21 20 20 18 15 17 16 16 15 15 17 22 24 30 31 37 40 46 50 56 69 68 64 59 65 64 66 65 70 70 82 87 81 78 84 88 83 73 65 68 70 67 67 64
29 27 24 21 18 19 23 16 19 19 18 18 16 15 16 28 34 35 39 43 47 48 50 56 58 66 79 91 91 90 86 80 82 85 78 77 89 90 83 80 83 85 89 84 76 73 73 78 82
27 26 19 17 19 20 20 16 19 18 19 17 16 17 21 38 41 48 49 48 47 47 49 56 60 64 70 83 84 86 82 84 88 91 88 85 87 90 86 72 73 74 76 85 87 80 83 87 87
24 26 15 20 20 23 17 10 16 18 16 17 18 22 32 46 49 49 49 46 43 46 52 52 53 62 66 69 69 71 69 74 80 75 76 75 74 78 85 87 89 86 88 95 90 85 83 89 92
28 12 19 17 18 19 18 18 14 15 19 22 27 29 40 46 47 48 45 43 42 44 52 54 58 61 65 66 65 61 65 59 56 56 58 65 64 65 66 63 69 79 81 84 91 94 91 88 86
12 18 22 16 18 21 20 19 19 19 25 39 35 42 45 48 49 48 46 46 44 44 49 55 58 61 61 60 61 58 53 53 49 48 53 59 60 63 59 51 58 60 56 60 76 91 93 96 94
22 21 19 16 20 30 24 23 21 26 37 43 46 50 53 55 49 45 48 47 46 49 50 54 60 66 65 56 60 60 61 51 48 46 56 58 60 66 62 54 54 55 55 57 63 62 68 75 83
28 27 24 21 29 33 23 25 30 42 53 55 53 56 60 58 54 50 47 47 50 50 51 54 60 65 64 60 62 57 60 49 49 49 52 56 60 65 63 74 72 74 71 72 68 66 61 58 76
30 31 25 29 29 26 32 23 43 48 54 58 60 59 61 63 59 54 52 51 48 51 52 49 52 60 66 67 61 58 52 50 51 50 50 56 60 66 73 77 78 81 81 81 79 79 82 65 56
26 26 32 35 35 30 33 27 32 37 50 52 54 62 61 60 57 59 55 61 56 56 57 54 58 53 56 62 61 64 52 50 54 51 54 56 61 68 74 76 74 78 79 83 86 80 87 85 80
26 35 36 37 38 39 30 40 24 35 41 48 50 63 64 66 70 66 67 66 64 63 63 62 57 58 61 63 69 67 65 58 52 52 60 60 62 63 68 72 73 76 76 81 85 87 89 90 90
34 40 42 43 39 49 26 31 17 36 34 42 49 57 61 69 68 70 69 67 65 59 57 59 60 59 62 68 67 70 72 75 68 65 62 59 62 64 67 68 70 74 76 80 82 85 86 88 89
36 42 46 40 48 32 37 37 26 32 38 42 51 55 66 68 74 74 69 63 62 63 62 59 58 57 60 66 70 70 73 71 72 77 75 73 72 71 69 71 74 74 77 78 79 82 83 85 91
40 37 36 41 31 28 39 46 36 40 44 49 48 55 67 79 80 73 69 65 65 61 63 63 60 60 61 65 68 65 67 67 69 72 75 80 76 72 70 72 73 75 75 76 78 80 81 81 84
47 55 31 44 41 60 30 24 56 57 67 60 60 66 76 80 72 74 69 67 66 59 69 70 64 61 63 66 68 69 71 72 72 69 69 74 75 68 71 73 76 75 76 76 78 79 80 80 83
41 33 69 62 62 54 27 28 44 84 92 71 71 80 82 77 75 66 57 59 61 63 66 70 67 70 67 69 68 67 70 70 70 66 71 71 70 71 74 76 76 75 75 76 78 81 80 83 86
49 53 52 48 48 50 42 44 66 84 61 71 68 71 82 78 65 59 52 51 57 60 64 69 72 72 73 71 70 70 71 70 68 70 71 70 70 71 73 75 76 75 76 75 77 78 78 82 84
29 34 41 72 73 74 72 57 38 39 44 47 49 64 79 66 60 50 47 49 56 61 62 64 70 71 71 69 71 73 71 68 67 69 69 70 70 69 69 70 73 70 73 75 77 78 77 80 83